Wetterdaten: Montag, 13.06.2016
Datum Zeit Temp. A. Feuchte A. Luftdruck Regen Wind Richtung Richtung Sonnenschein ET UV Solar Taupunkt Windchill Windben Empfang
13.06.2016 00:00 14,7 C 92 % 1006,7 hPa 0,0 l/m 10,7 km/h (2 Bft) SW 227 0 min 0,000 mm 0,0 UV-I 0 W/m 13,4 C 12,5 C 14,5 km/h (3 Bft) 100,00 %
13.06.2016 00:02 14,7 C 92 % 1006,7 hPa 0,0 l/m 10,4 km/h (2 Bft) S-SW 206 0 min 0,000 mm 0,0 UV-I 0 W/m 13,4 C 12,6 C 16,1 km/h (3 Bft) 97,56 %
13.06.2016 00:03 14,7 C 92 % 1006,7 hPa 0,0 l/m 8,1 km/h (2 Bft) W-SW 246 0 min 0,000 mm 0,0 UV-I 0 W/m 13,4 C 13,7 C 16,1 km/h (3 Bft) 100,00 %
13.06.2016 00:04 14,7 C 92 % 1006,7 hPa 0,0 l/m 8,5 km/h (2 Bft) SW 219 0 min 0,000 mm 0,0 UV-I 0 W/m 13,4 C 13,5 C 12,9 km/h (3 Bft) 100,00 %
13.06.2016 00:05 14,7 C 92 % 1006,6 hPa 0,0 l/m 10,6 km/h (2 Bft) S-SW 198 0 min 0,000 mm 0,0 UV-I 0 W/m 13,4 C 12,5 C 14,5 km/h (3 Bft) 95,83 %
13.06.2016 00:06 14,7 C 92 % 1006,7 hPa 0,0 l/m 7,6 km/h (2 Bft) S 185 0 min 0,000 mm 0,0 UV-I 0 W/m 13,4 C 14,0 C 11,3 km/h (2 Bft) 100,00 %
13.06.2016 00:07 14,7 C 92 % 1006,7 hPa 0,0 l/m 8,3 km/h (2 Bft) S-SW 212 0 min 0,000 mm 0,0 UV-I 0 W/m 13,4 C 13,6 C 11,3 km/h (2 Bft) 100,00 %
13.06.2016 00:08 14,7 C 92 % 1006,7 hPa 0,0 l/m 10,2 km/h (2 Bft) S-SW 210 0 min 0,000 mm 0,0 UV-I 0 W/m 13,4 C 12,7 C 16,1 km/h (3 Bft) 100,00 %
13.06.2016 00:09 14,7 C 92 % 1006,6 hPa 0,0 l/m 8,6 km/h (2 Bft) S-SW 205 0 min 0,000 mm 0,0 UV-I 0 W/m 13,4 C 13,5 C 12,9 km/h (3 Bft) 100,00 %
13.06.2016 00:10 14,7 C 92 % 1006,6 hPa 0,0 l/m 8,0 km/h (2 Bft) SW 220 0 min 0,000 mm 0,0 UV-I 0 W/m 13,4 C 13,8 C 11,3 km/h (2 Bft) 100,00 %
13.06.2016 00:11 14,7 C 92 % 1006,7 hPa 0,0 l/m 8,9 km/h (2 Bft) SW 227 0 min 0,000 mm 0,0 UV-I 0 W/m 13,4 C 13,3 C 12,9 km/h (3 Bft) 100,00 %
13.06.2016 00:12 14,7 C 92 % 1006,6 hPa 0,0 l/m 9,6 km/h (2 Bft) S-SO 165 0 min 0,000 mm 0,0 UV-I 0 W/m 13,4 C 13,0 C 14,5 km/h (3 Bft) 100,00 %
13.06.2016 00:13 14,7 C 92 % 1006,6 hPa 0,0 l/m 7,6 km/h (2 Bft) S-SW 200 0 min 0,000 mm 0,0 UV-I 0 W/m 13,4 C 14,0 C 12,9 km/h (3 Bft) 100,00 %
13.06.2016 00:14 14,7 C 92 % 1006,6 hPa 0,0 l/m 7,1 km/h (2 Bft) S-SW 199 0 min 0,000 mm 0,0 UV-I 0 W/m 13,4 C 14,3 C 11,3 km/h (2 Bft) 100,00 %
13.06.2016 00:15 14,7 C 92 % 1006,6 hPa 0,0 l/m 9,2 km/h (2 Bft) S 190 0 min 0,000 mm 0,0 UV-I 0 W/m 13,4 C 13,2 C 17,7 km/h (3 Bft) 100,00 %
13.06.2016 00:16 14,6 C 92 % 1006,6 hPa 0,0 l/m 13,2 km/h (3 Bft) S-SW 200 0 min 0,000 mm 0,0 UV-I 0 W/m 13,3 C 11,3 C 16,1 km/h (3 Bft) 100,00 %
13.06.2016 00:17 14,6 C 92 % 1006,6 hPa 0,0 l/m 8,0 km/h (2 Bft) S-SW 202 0 min 0,000 mm 0,0 UV-I 0 W/m 13,3 C 13,7 C 12,9 km/h (3 Bft) 100,00 %
13.06.2016 00:18 14,6 C 92 % 1006,6 hPa 0,0 l/m 10,3 km/h (2 Bft) S-SW 194 0 min 0,000 mm 0,0 UV-I 0 W/m 13,3 C 12,5 C 14,5 km/h (3 Bft) 100,00 %
13.06.2016 00:19 14,6 C 92 % 1006,6 hPa 0,0 l/m 9,7 km/h (2 Bft) S 180 0 min 0,000 mm 0,0 UV-I 0 W/m 13,3 C 12,8 C 12,9 km/h (3 Bft) 100,00 %
13.06.2016 00:20 14,6 C 92 % 1006,6 hPa 0,0 l/m 9,7 km/h (2 Bft) S-SO 150 0 min 0,000 mm 0,0 UV-I 0 W/m 13,3 C 12,8 C 17,7 km/h (3 Bft) 96,15 %
13.06.2016 00:21 14,6 C 92 % 1006,6 hPa 0,0 l/m 8,8 km/h (2 Bft) W-SW 239 0 min 0,000 mm 0,0 UV-I 0 W/m 13,3 C 13,3 C 12,9 km/h (3 Bft) 100,00 %
13.06.2016 00:22 14,7 C 92 % 1006,5 hPa 0,0 l/m 7,6 km/h (2 Bft) S-SW 202 0 min 0,000 mm 0,0 UV-I 0 W/m 13,4 C 14,0 C 14,5 km/h (3 Bft) 96,55 %
13.06.2016 00:23 14,6 C 92 % 1006,6 hPa 0,0 l/m 8,6 km/h (2 Bft) S-SO 163 0 min 0,000 mm 0,0 UV-I 0 W/m 13,3 C 13,4 C 12,9 km/h (3 Bft) 100,00 %
13.06.2016 00:24 14,6 C 92 % 1006,5 hPa 0,0 l/m 9,2 km/h (2 Bft) S-SW 193 0 min 0,000 mm 0,0 UV-I 0 W/m 13,3 C 13,1 C 14,5 km/h (3 Bft) 100,00 %
13.06.2016 00:25 14,6 C 92 % 1006,5 hPa 0,0 l/m 7,7 km/h (2 Bft) S 188 0 min 0,000 mm 0,0 UV-I 0 W/m 13,3 C 13,8 C 11,3 km/h (2 Bft) 100,00 %
13.06.2016 00:26 14,6 C 92 % 1006,5 hPa 0,0 l/m 5,4 km/h (1 Bft) S 186 0 min 0,000 mm 0,0 UV-I 0 W/m 13,3 C 14,6 C 8,0 km/h (2 Bft) 100,00 %
13.06.2016 00:27 14,6 C 92 % 1006,5 hPa 0,0 l/m 6,9 km/h (2 Bft) S-SW 211 0 min 0,000 mm 0,0 UV-I 0 W/m 13,3 C 14,3 C 9,7 km/h (2 Bft) 100,00 %
13.06.2016 00:28 14,6 C 92 % 1006,5 hPa 0,0 l/m 10,1 km/h (2 Bft) W-SW 246 0 min 0,000 mm 0,0 UV-I 0 W/m 13,3 C 12,6 C 14,5 km/h (3 Bft) 100,00 %
13.06.2016 00:29 14,6 C 92 % 1006,5 hPa 0,0 l/m 10,9 km/h (2 Bft) S-SW 206 0 min 0,000 mm 0,0 UV-I 0 W/m 13,3 C 12,3 C 16,1 km/h (3 Bft) 100,00 %
13.06.2016 00:30 14,6 C 92 % 1006,5 hPa 0,0 l/m 7,9 km/h (2 Bft) S-SW 212 0 min 0,000 mm 0,0 UV-I 0 W/m 13,3 C 13,7 C 12,9 km/h (3 Bft) 96,30 %
13.06.2016 00:31 14,6 C 92 % 1006,5 hPa 0,0 l/m 8,7 km/h (2 Bft) SW 232 0 min 0,000 mm 0,0 UV-I 0 W/m 13,3 C 13,3 C 12,9 km/h (3 Bft) 100,00 %
13.06.2016 00:32 14,6 C 92 % 1006,5 hPa 0,0 l/m 8,1 km/h (2 Bft) SW 234 0 min 0,000 mm 0,0 UV-I 0 W/m 13,3 C 13,6 C 12,9 km/h (3 Bft) 100,00 %
13.06.2016 00:33 14,6 C 92 % 1006,5 hPa 0,0 l/m 6,7 km/h (2 Bft) S-SW 193 0 min 0,000 mm 0,0 UV-I 0 W/m 13,3 C 14,4 C 9,7 km/h (2 Bft) 100,00 %
13.06.2016 00:34 14,6 C 92 % 1006,6 hPa 0,0 l/m 8,5 km/h (2 Bft) SW 214 0 min 0,000 mm 0,0 UV-I 0 W/m 13,3 C 13,4 C 12,9 km/h (3 Bft) 100,00 %
13.06.2016 00:35 14,6 C 92 % 1006,5 hPa 0,0 l/m 11,4 km/h (2 Bft) SW 219 0 min 0,000 mm 0,0 UV-I 0 W/m 13,3 C 12,1 C 14,5 km/h (3 Bft) 100,00 %
13.06.2016 00:36 14,6 C 92 % 1006,5 hPa 0,0 l/m 12,0 km/h (2 Bft) S-SW 209 0 min 0,000 mm 0,0 UV-I 0 W/m 13,3 C 11,8 C 19,3 km/h (3 Bft) 100,00 %
13.06.2016 00:37 14,6 C 92 % 1006,4 hPa 0,0 l/m 14,8 km/h (3 Bft) SW 219 0 min 0,000 mm 0,0 UV-I 0 W/m 13,3 C 10,8 C 19,3 km/h (3 Bft) 100,00 %
13.06.2016 00:38 14,7 C 92 % 1006,5 hPa 0,0 l/m 11,0 km/h (2 Bft) SW 222 0 min 0,000 mm 0,0 UV-I 0 W/m 13,4 C 12,3 C 14,5 km/h (3 Bft) 100,00 %
13.06.2016 00:39 14,7 C 92 % 1006,5 hPa 0,0 l/m 12,9 km/h (3 Bft) W-SW 241 0 min 0,000 mm 0,0 UV-I 0 W/m 13,4 C 11,6 C 17,7 km/h (3 Bft) 100,00 %
13.06.2016 00:40 14,7 C 91 % 1006,5 hPa 0,0 l/m 11,9 km/h (2 Bft) W 259 0 min 0,000 mm 0,0 UV-I 0 W/m 13,2 C 12,0 C 16,1 km/h (3 Bft) 100,00 %
13.06.2016 00:41 14,7 C 91 % 1006,5 hPa 0,0 l/m 9,4 km/h (2 Bft) SW 233 0 min 0,000 mm 0,0 UV-I 0 W/m 13,2 C 13,1 C 12,9 km/h (3 Bft) 100,00 %
13.06.2016 00:42 14,7 C 91 % 1006,5 hPa 0,0 l/m 9,7 km/h (2 Bft) SW 229 0 min 0,000 mm 0,0 UV-I 0 W/m 13,2 C 12,9 C 16,1 km/h (3 Bft) 100,00 %
13.06.2016 00:43 14,7 C 91 % 1006,6 hPa 0,0 l/m 12,5 km/h (3 Bft) W-SW 253 0 min 0,000 mm 0,0 UV-I 0 W/m 13,2 C 11,7 C 19,3 km/h (3 Bft) 100,00 %
13.06.2016 00:44 14,7 C 91 % 1006,6 hPa 0,0 l/m 12,6 km/h (3 Bft) W-SW 248 0 min 0,000 mm 0,0 UV-I 0 W/m 13,2 C 11,7 C 17,7 km/h (3 Bft) 100,00 %
13.06.2016 00:45 14,7 C 91 % 1006,6 hPa 0,0 l/m 12,8 km/h (3 Bft) W-SW 246 0 min 0,000 mm 0,0 UV-I 0 W/m 13,2 C 11,6 C 17,7 km/h (3 Bft) 100,00 %
13.06.2016 00:46 14,7 C 91 % 1006,6 hPa 0,0 l/m 14,8 km/h (3 Bft) W-SW 246 0 min 0,000 mm 0,0 UV-I 0 W/m 13,2 C 10,9 C 20,9 km/h (4 Bft) 100,00 %
13.06.2016 00:47 14,7 C 91 % 1006,6 hPa 0,0 l/m 11,7 km/h (2 Bft) W-SW 238 0 min 0,000 mm 0,0 UV-I 0 W/m 13,2 C 12,0 C 16,1 km/h (3 Bft) 100,00 %
13.06.2016 00:48 14,7 C 91 % 1006,6 hPa 0,0 l/m 14,7 km/h (3 Bft) SW 225 0 min 0,000 mm 0,0 UV-I 0 W/m 13,2 C 10,9 C 24,1 km/h (4 Bft) 100,00 %
13.06.2016 00:49 14,7 C 91 % 1006,6 hPa 0,0 l/m 13,7 km/h (3 Bft) W-SW 246 0 min 0,000 mm 0,0 UV-I 0 W/m 13,2 C 11,3 C 19,3 km/h (3 Bft) 100,00 %
13.06.2016 00:50 14,7 C 91 % 1006,6 hPa 0,0 l/m 11,0 km/h (2 Bft) W-SW 240 0 min 0,000 mm 0,0 UV-I 0 W/m 13,2 C 12,3 C 14,5 km/h (3 Bft) 100,00 %
13.06.2016 00:51 14,7 C 91 % 1006,6 hPa 0,0 l/m 9,5 km/h (2 Bft) S-SW 212 0 min 0,000 mm 0,0 UV-I 0 W/m 13,2 C 13,0 C 14,5 km/h (3 Bft) 100,00 %
13.06.2016 00:52 14,7 C 91 % 1006,6 hPa 0,0 l/m 14,7 km/h (3 Bft) SW 236 0 min 0,000 mm 0,0 UV-I 0 W/m 13,2 C 10,9 C 22,5 km/h (4 Bft) 100,00 %
13.06.2016 00:53 14,7 C 91 % 1006,6 hPa 0,0 l/m 10,7 km/h (2 Bft) SW 231 0 min 0,000 mm 0,0 UV-I 0 W/m 13,2 C 12,5 C 19,3 km/h (3 Bft) 96,30 %
13.06.2016 00:54 14,7 C 91 % 1006,6 hPa 0,0 l/m 15,7 km/h (3 Bft) SW 222 0 min 0,000 mm 0,0 UV-I 0 W/m 13,2 C 10,6 C 22,5 km/h (4 Bft) 100,00 %
13.06.2016 00:55 14,7 C 91 % 1006,6 hPa 0,0 l/m 14,6 km/h (3 Bft) W-SW 242 0 min 0,000 mm 0,0 UV-I 0 W/m 13,2 C 11,0 C 20,9 km/h (4 Bft) 100,00 %
13.06.2016 00:56 14,7 C 91 % 1006,5 hPa 0,0 l/m 11,3 km/h (2 Bft) W-SW 248 0 min 0,000 mm 0,0 UV-I 0 W/m 13,2 C 12,2 C 16,1 km/h (3 Bft) 100,00 %
13.06.2016 00:57 14,7 C 91 % 1006,5 hPa 0,0 l/m 12,7 km/h (3 Bft) SW 229 0 min 0,000 mm 0,0 UV-I 0 W/m 13,2 C 11,7 C 19,3 km/h (3 Bft) 96,30 %
13.06.2016 00:58 14,7 C 91 % 1006,6 hPa 0,0 l/m 12,2 km/h (2 Bft) W-SW 242 0 min 0,000 mm 0,0 UV-I 0 W/m 13,2 C 11,8 C 16,1 km/h (3 Bft) 100,00 %
13.06.2016 00:59 14,7 C 91 % 1006,5 hPa 0,0 l/m 9,8 km/h (2 Bft) W-SW 246 0 min 0,000 mm 0,0 UV-I 0 W/m 13,2 C 12,9 C 16,1 km/h (3 Bft) 100,00 %
13.06.2016 01:00 14,7 C 91 % 1006,5 hPa 0,0 l/m 11,3 km/h (2 Bft) S-SW 211 0 min 0,000 mm 0,0 UV-I 0 W/m 13,2 C 12,2 C 16,1 km/h (3 Bft) 100,00 %
13.06.2016 01:01 14,7 C 91 % 1006,6 hPa 0,0 l/m 12,3 km/h (3 Bft) SW 231 0 min 0,000 mm 0,0 UV-I 0 W/m 13,2 C 11,8 C 17,7 km/h (3 Bft) 100,00 %
13.06.2016 01:02 14,7 C 91 % 1006,5 hPa 0,0 l/m 11,5 km/h (2 Bft) S-SW 204 0 min 0,000 mm 0,0 UV-I 0 W/m 13,2 C 12,1 C 14,5 km/h (3 Bft) 100,00 %
13.06.2016 01:03 14,7 C 91 % 1006,6 hPa 0,0 l/m 12,7 km/h (3 Bft) W-SW 248 0 min 0,000 mm 0,0 UV-I 0 W/m 13,2 C 11,7 C 19,3 km/h (3 Bft) 100,00 %
13.06.2016 01:04 14,7 C 91 % 1006,5 hPa 0,0 l/m 14,0 km/h (3 Bft) W-SW 250 0 min 0,000 mm 0,0 UV-I 0 W/m 13,2 C 11,2 C 19,3 km/h (3 Bft) 100,00 %
13.06.2016 01:05 14,7 C 91 % 1006,5 hPa 0,0 l/m 11,2 km/h (2 Bft) S-SW 194 0 min 0,000 mm 0,0 UV-I 0 W/m 13,2 C 12,3 C 19,3 km/h (3 Bft) 100,00 %
13.06.2016 01:06 14,7 C 91 % 1006,5 hPa 0,0 l/m 10,7 km/h (2 Bft) SW 232 0 min 0,000 mm 0,0 UV-I 0 W/m 13,2 C 12,5 C 12,9 km/h (3 Bft) 100,00 %
13.06.2016 01:07 14,7 C 91 % 1006,6 hPa 0,0 l/m 11,9 km/h (2 Bft) SW 234 0 min 0,000 mm 0,0 UV-I 0 W/m 13,2 C 12,0 C 19,3 km/h (3 Bft) 94,12 %
13.06.2016 01:08 14,7 C 91 % 1006,5 hPa 0,0 l/m 15,2 km/h (3 Bft) SW 215 0 min 0,000 mm 0,0 UV-I 0 W/m 13,2 C 10,8 C 19,3 km/h (3 Bft) 100,00 %
13.06.2016 01:09 14,7 C 91 % 1006,5 hPa 0,0 l/m 10,4 km/h (2 Bft) S-SW 197 0 min 0,000 mm 0,0 UV-I 0 W/m 13,2 C 12,6 C 16,1 km/h (3 Bft) 94,12 %
13.06.2016 01:10 14,8 C 91 % 1006,6 hPa 0,0 l/m 10,4 km/h (2 Bft) SW 234 0 min 0,000 mm 0,0 UV-I 0 W/m 13,3 C 12,7 C 16,1 km/h (3 Bft) 96,88 %
13.06.2016 01:11 14,8 C 91 % 1006,5 hPa 0,0 l/m 12,5 km/h (3 Bft) SW 225 0 min 0,000 mm 0,0 UV-I 0 W/m 13,3 C 11,8 C 16,1 km/h (3 Bft) 96,55 %
13.06.2016 01:12 14,7 C 91 % 1006,5 hPa 0,0 l/m 10,0 km/h (2 Bft) SW 233 0 min 0,000 mm 0,0 UV-I 0 W/m 13,2 C 12,8 C 12,9 km/h (3 Bft) 91,67 %
13.06.2016 01:13 14,7 C 91 % 1006,5 hPa 0,0 l/m 11,0 km/h (2 Bft) S-SW 213 0 min 0,000 mm 0,0 UV-I 0 W/m 13,2 C 12,3 C 16,1 km/h (3 Bft) 100,00 %
13.06.2016 01:14 14,7 C 91 % 1006,5 hPa 0,0 l/m 10,4 km/h (2 Bft) W-SW 244 0 min 0,000 mm 0,0 UV-I 0 W/m 13,2 C 12,6 C 16,1 km/h (3 Bft) 97,73 %
13.06.2016 01:15 14,7 C 91 % 1006,5 hPa 0,0 l/m 7,8 km/h (2 Bft) S-SW 196 0 min 0,000 mm 0,0 UV-I 0 W/m 13,2 C 13,9 C 9,7 km/h (2 Bft) 100,00 %
13.06.2016 01:16 14,7 C 91 % 1006,5 hPa 0,0 l/m 10,5 km/h (2 Bft) W-SW 250 0 min 0,000 mm 0,0 UV-I 0 W/m 13,2 C 12,6 C 14,5 km/h (3 Bft) 95,83 %
13.06.2016 01:17 14,7 C 91 % 1006,5 hPa 0,0 l/m 10,7 km/h (2 Bft) W 259 0 min 0,000 mm 0,0 UV-I 0 W/m 13,2 C 12,5 C 14,5 km/h (3 Bft) 100,00 %
13.06.2016 01:18 14,7 C 91 % 1006,5 hPa 0,0 l/m 9,6 km/h (2 Bft) SW 231 0 min 0,000 mm 0,0 UV-I 0 W/m 13,2 C 13,0 C 14,5 km/h (3 Bft) 95,83 %
13.06.2016 01:19 14,7 C 91 % 1006,5 hPa 0,0 l/m 10,1 km/h (2 Bft) W-SW 245 0 min 0,000 mm 0,0 UV-I 0 W/m 13,2 C 12,7 C 12,9 km/h (3 Bft) 95,65 %
13.06.2016 01:20 14,7 C 91 % 1006,5 hPa 0,0 l/m 10,9 km/h (2 Bft) W-SW 239 0 min 0,000 mm 0,0 UV-I 0 W/m 13,2 C 12,4 C 14,5 km/h (3 Bft) 100,00 %
13.06.2016 01:21 14,7 C 91 % 1006,5 hPa 0,0 l/m 10,7 km/h (2 Bft) W-SW 243 0 min 0,000 mm 0,0 UV-I 0 W/m 13,2 C 12,5 C 14,5 km/h (3 Bft) 95,65 %
13.06.2016 01:22 14,7 C 91 % 1006,5 hPa 0,0 l/m 12,3 km/h (3 Bft) SW 221 0 min 0,000 mm 0,0 UV-I 0 W/m 13,2 C 11,8 C 16,1 km/h (3 Bft) 100,00 %
13.06.2016 01:23 14,7 C 91 % 1006,5 hPa 0,0 l/m 10,7 km/h (2 Bft) W-SW 258 0 min 0,000 mm 0,0 UV-I 0 W/m 13,2 C 12,5 C 14,5 km/h (3 Bft) 92,31 %
13.06.2016 01:24 14,7 C 91 % 1006,5 hPa 0,0 l/m 8,3 km/h (2 Bft) S-SW 198 0 min 0,000 mm 0,0 UV-I 0 W/m 13,2 C 13,6 C 11,3 km/h (2 Bft) 100,00 %
13.06.2016 01:25 14,7 C 91 % 1006,4 hPa 0,0 l/m 8,9 km/h (2 Bft) SW 227 0 min 0,000 mm 0,0 UV-I 0 W/m 13,2 C 13,3 C 12,9 km/h (3 Bft) 96,30 %
13.06.2016 01:26 14,7 C 91 % 1006,5 hPa 0,0 l/m 10,0 km/h (2 Bft) W-SW 238 0 min 0,000 mm 0,0 UV-I 0 W/m 13,2 C 12,8 C 16,1 km/h (3 Bft) 96,15 %
13.06.2016 01:27 14,7 C 91 % 1006,6 hPa 0,0 l/m 12,5 km/h (3 Bft) W-SW 244 0 min 0,000 mm 0,0 UV-I 0 W/m 13,2 C 11,7 C 17,7 km/h (3 Bft) 100,00 %
13.06.2016 01:28 14,7 C 91 % 1006,6 hPa 0,0 l/m 11,3 km/h (2 Bft) W-SW 242 0 min 0,000 mm 0,0 UV-I 0 W/m 13,2 C 12,2 C 14,5 km/h (3 Bft) 91,67 %
13.06.2016 01:29 14,7 C 91 % 1006,5 hPa 0,0 l/m 11,3 km/h (2 Bft) W-SW 248 0 min 0,000 mm 0,0 UV-I 0 W/m 13,2 C 12,2 C 14,5 km/h (3 Bft) 96,30 %
13.06.2016 01:30 14,7 C 91 % 1006,5 hPa 0,0 l/m 10,5 km/h (2 Bft) SW 222 0 min 0,000 mm 0,0 UV-I 0 W/m 13,2 C 12,6 C 16,1 km/h (3 Bft) 86,96 %
13.06.2016 01:31 14,7 C 91 % 1006,5 hPa 0,0 l/m 10,6 km/h (2 Bft) SW 231 0 min 0,000 mm 0,0 UV-I 0 W/m 13,2 C 12,5 C 16,1 km/h (3 Bft) 100,00 %
13.06.2016 01:32 14,7 C 91 % 1006,5 hPa 0,0 l/m 9,2 km/h (2 Bft) S-SW 201 0 min 0,000 mm 0,0 UV-I 0 W/m 13,2 C 13,2 C 12,9 km/h (3 Bft) 92,31 %
13.06.2016 01:33 14,7 C 91 % 1006,5 hPa 0,0 l/m 9,1 km/h (2 Bft) S-SW 209 0 min 0,000 mm 0,0 UV-I 0 W/m 13,2 C 13,2 C 12,9 km/h (3 Bft) 96,30 %
13.06.2016 01:34 14,7 C 91 % 1006,5 hPa 0,0 l/m 7,4 km/h (2 Bft) SW 229 0 min 0,000 mm 0,0 UV-I 0 W/m 13,2 C 14,1 C 9,7 km/h (2 Bft) 100,00 %
13.06.2016 01:35 14,7 C 91 % 1006,5 hPa 0,0 l/m 7,3 km/h (2 Bft) W-SW 237 0 min 0,000 mm 0,0 UV-I 0 W/m 13,2 C 14,2 C 9,7 km/h (2 Bft) 95,83 %
13.06.2016 01:36 14,7 C 91 % 1006,5 hPa 0,0 l/m 10,6 km/h (2 Bft) SW 225 0 min 0,000 mm 0,0 UV-I 0 W/m 13,2 C 12,5 C 19,3 km/h (3 Bft) 95,65 %
13.06.2016 01:37 14,7 C 91 % 1006,6 hPa 0,0 l/m 12,6 km/h (3 Bft) S 175 0 min 0,000 mm 0,0 UV-I 0 W/m 13,2 C 11,7 C 17,7 km/h (3 Bft) 96,30 %
13.06.2016 01:38 14,7 C 91 % 1006,5 hPa 0,0 l/m 11,7 km/h (2 Bft) SW 232 0 min 0,000 mm 0,0 UV-I 0 W/m 13,2 C 12,0 C 19,3 km/h (3 Bft) 100,00 %
13.06.2016 01:39 14,7 C 91 % 1006,5 hPa 0,0 l/m 10,1 km/h (2 Bft) SW 229 0 min 0,000 mm 0,0 UV-I 0 W/m 13,2 C 12,7 C 12,9 km/h (3 Bft) 96,15 %
13.06.2016 01:40 14,7 C 91 % 1006,5 hPa 0,0 l/m 9,9 km/h (2 Bft) SW 224 0 min 0,000 mm 0,0 UV-I 0 W/m 13,2 C 12,8 C 12,9 km/h (3 Bft) 100,00 %
13.06.2016 01:41 14,7 C 91 % 1006,4 hPa 0,0 l/m 10,8 km/h (2 Bft) W 268 0 min 0,000 mm 0,0 UV-I 0 W/m 13,2 C 12,4 C 16,1 km/h (3 Bft) 96,55 %
13.06.2016 01:42 14,7 C 91 % 1006,5 hPa 0,0 l/m 7,6 km/h (2 Bft) W-SW 237 0 min 0,000 mm 0,0 UV-I 0 W/m 13,2 C 14,0 C 9,7 km/h (2 Bft) 100,00 %
13.06.2016 01:43 14,7 C 91 % 1006,5 hPa 0,0 l/m 10,2 km/h (2 Bft) SW 232 0 min 0,000 mm 0,0 UV-I 0 W/m 13,2 C 12,7 C 12,9 km/h (3 Bft) 95,65 %
13.06.2016 01:44 14,7 C 91 % 1006,4 hPa 0,0 l/m 9,7 km/h (2 Bft) W-SW 242 0 min 0,000 mm 0,0 UV-I 0 W/m 13,2 C 12,9 C 12,9 km/h (3 Bft) 100,00 %
13.06.2016 01:45 14,7 C 91 % 1006,5 hPa 0,0 l/m 8,7 km/h (2 Bft) SW 228 0 min 0,000 mm 0,0 UV-I 0 W/m 13,2 C 13,4 C 11,3 km/h (2 Bft) 100,00 %
13.06.2016 01:46 14,7 C 91 % 1006,5 hPa 0,0 l/m 8,0 km/h (2 Bft) W-SW 255 0 min 0,000 mm 0,0 UV-I 0 W/m 13,2 C 13,8 C 11,3 km/h (2 Bft) 100,00 %
13.06.2016 01:47 14,7 C 91 % 1006,5 hPa 0,0 l/m 9,2 km/h (2 Bft) W-SW 248 0 min 0,000 mm 0,0 UV-I 0 W/m 13,2 C 13,2 C 12,9 km/h (3 Bft) 100,00 %
13.06.2016 01:48 14,7 C 91 % 1006,4 hPa 0,0 l/m 10,2 km/h (2 Bft) W 261 0 min 0,000 mm 0,0 UV-I 0 W/m 13,2 C 12,7 C 16,1 km/h (3 Bft) 100,00 %
13.06.2016 01:49 14,7 C 91 % 1006,4 hPa 0,0 l/m 8,3 km/h (2 Bft) SW 235 0 min 0,000 mm 0,0 UV-I 0 W/m 13,2 C 13,6 C 14,5 km/h (3 Bft) 96,15 %
13.06.2016 01:50 14,7 C 91 % 1006,4 hPa 0,0 l/m 8,1 km/h (2 Bft) SW 234 0 min 0,000 mm 0,0 UV-I 0 W/m 13,2 C 13,7 C 11,3 km/h (2 Bft) 92,59 %
13.06.2016 01:51 14,7 C 91 % 1006,4 hPa 0,0 l/m 7,2 km/h (2 Bft) W-SW 254 0 min 0,000 mm 0,0 UV-I 0 W/m 13,2 C 14,2 C 11,3 km/h (2 Bft) 100,00 %
13.06.2016 01:52 14,7 C 91 % 1006,4 hPa 0,0 l/m 9,5 km/h (2 Bft) W-SW 241 0 min 0,000 mm 0,0 UV-I 0 W/m 13,2 C 13,0 C 16,1 km/h (3 Bft) 96,30 %
13.06.2016 01:53 14,7 C 91 % 1006,4 hPa 0,0 l/m 11,3 km/h (2 Bft) S-SW 206 0 min 0,000 mm 0,0 UV-I 0 W/m 13,2 C 12,2 C 14,5 km/h (3 Bft) 100,00 %
13.06.2016 01:54 14,6 C 91 % 1006,3 hPa 0,0 l/m 10,7 km/h (2 Bft) W-SW 250 0 min 0,000 mm 0,0 UV-I 0 W/m 13,1 C 12,4 C 16,1 km/h (3 Bft) 100,00 %
13.06.2016 01:55 14,7 C 91 % 1006,3 hPa 0,0 l/m 11,4 km/h (2 Bft) S-SW 204 0 min 0,000 mm 0,0 UV-I 0 W/m 13,2 C 12,2 C 14,5 km/h (3 Bft) 100,00 %
13.06.2016 01:56 14,7 C 91 % 1006,4 hPa 0,0 l/m 9,7 km/h (2 Bft) SW 216 0 min 0,000 mm 0,0 UV-I 0 W/m 13,2 C 12,9 C 14,5 km/h (3 Bft) 100,00 %
13.06.2016 01:57 14,7 C 91 % 1006,3 hPa 0,0 l/m 10,0 km/h (2 Bft) SW 216 0 min 0,000 mm 0,0 UV-I 0 W/m 13,2 C 12,8 C 12,9 km/h (3 Bft) 100,00 %
13.06.2016 01:58 14,7 C 91 % 1006,4 hPa 0,0 l/m 7,8 km/h (2 Bft) SW 216 0 min 0,000 mm 0,0 UV-I 0 W/m 13,2 C 13,9 C 12,9 km/h (3 Bft) 100,00 %
13.06.2016 01:59 14,7 C 91 % 1006,3 hPa 0,0 l/m 13,0 km/h (3 Bft) W-SW 240 0 min 0,000 mm 0,0 UV-I 0 W/m 13,2 C 11,5 C 19,3 km/h (3 Bft) 100,00 %
13.06.2016 02:00 14,6 C 91 % 1006,3 hPa 0,0 l/m 15,4 km/h (3 Bft) SW 236 0 min 0,025 mm 0,0 UV-I 0 W/m 13,1 C 10,6 C 19,3 km/h (3 Bft) 100,00 %
13.06.2016 02:02 14,6 C 91 % 1006,3 hPa 0,0 l/m 12,4 km/h (3 Bft) SW 221 0 min 0,000 mm 0,0 UV-I 0 W/m 13,1 C 11,7 C 17,7 km/h (3 Bft) 100,00 %
13.06.2016 02:03 14,7 C 91 % 1006,3 hPa 0,0 l/m 9,1 km/h (2 Bft) W-SW 248 0 min 0,000 mm 0,0 UV-I 0 W/m 13,2 C 13,2 C 11,3 km/h (2 Bft) 100,00 %
13.06.2016 02:04 14,7 C 91 % 1006,3 hPa 0,0 l/m 10,3 km/h (2 Bft) SW 224 0 min 0,000 mm 0,0 UV-I 0 W/m 13,2 C 12,6 C 14,5 km/h (3 Bft) 100,00 %
13.06.2016 02:05 14,7 C 91 % 1006,3 hPa 0,0 l/m 9,0 km/h (2 Bft) W-SW 252 0 min 0,000 mm 0,0 UV-I 0 W/m 13,2 C 13,3 C 12,9 km/h (3 Bft) 100,00 %
13.06.2016 02:06 14,7 C 91 % 1006,3 hPa 0,0 l/m 7,0 km/h (2 Bft) W-SW 238 0 min 0,000 mm 0,0 UV-I 0 W/m 13,2 C 14,4 C 9,7 km/h (2 Bft) 100,00 %
13.06.2016 02:07 14,7 C 91 % 1006,3 hPa 0,0 l/m 8,6 km/h (2 Bft) S-SW 202 0 min 0,000 mm 0,0 UV-I 0 W/m 13,2 C 13,5 C 14,5 km/h (3 Bft) 100,00 %
13.06.2016 02:08 14,7 C 91 % 1006,3 hPa 0,0 l/m 10,2 km/h (2 Bft) SW 220 0 min 0,000 mm 0,0 UV-I 0 W/m 13,2 C 12,7 C 12,9 km/h (3 Bft) 96,15 %
13.06.2016 02:09 14,7 C 91 % 1006,2 hPa 0,0 l/m 8,8 km/h (2 Bft) SW 217 0 min 0,000 mm 0,0 UV-I 0 W/m 13,2 C 13,4 C 14,5 km/h (3 Bft) 100,00 %
13.06.2016 02:10 14,7 C 91 % 1006,2 hPa 0,0 l/m 11,5 km/h (2 Bft) W-SW 238 0 min 0,000 mm 0,0 UV-I 0 W/m 13,2 C 12,1 C 16,1 km/h (3 Bft) 100,00 %
13.06.2016 02:11 14,7 C 91 % 1006,2 hPa 0,0 l/m 11,6 km/h (2 Bft) W-SW 254 0 min 0,000 mm 0,0 UV-I 0 W/m 13,2 C 12,1 C 14,5 km/h (3 Bft) 100,00 %
13.06.2016 02:12 14,7 C 91 % 1006,3 hPa 0,0 l/m 12,5 km/h (3 Bft) SW 230 0 min 0,000 mm 0,0 UV-I 0 W/m 13,2 C 11,7 C 19,3 km/h (3 Bft) 100,00 %
13.06.2016 02:13 14,7 C 91 % 1006,3 hPa 0,0 l/m 11,0 km/h (2 Bft) W-SW 238 0 min 0,000 mm 0,0 UV-I 0 W/m 13,2 C 12,3 C 16,1 km/h (3 Bft) 100,00 %
13.06.2016 02:14 14,7 C 91 % 1006,2 hPa 0,0 l/m 11,3 km/h (2 Bft) SW 222 0 min 0,000 mm 0,0 UV-I 0 W/m 13,2 C 12,2 C 16,1 km/h (3 Bft) 100,00 %
13.06.2016 02:15 14,6 C 91 % 1006,2 hPa 0,0 l/m 8,6 km/h (2 Bft) SW 218 0 min 0,000 mm 0,0 UV-I 0 W/m 13,1 C 13,4 C 11,3 km/h (2 Bft) 100,00 %
13.06.2016 02:16 14,7 C 91 % 1006,2 hPa 0,0 l/m 12,3 km/h (3 Bft) SW 234 0 min 0,000 mm 0,0 UV-I 0 W/m 13,2 C 11,8 C 17,7 km/h (3 Bft) 100,00 %
13.06.2016 02:17 14,7 C 91 % 1006,1 hPa 0,0 l/m 11,1 km/h (2 Bft) SW 223 0 min 0,000 mm 0,0 UV-I 0 W/m 13,2 C 12,3 C 17,7 km/h (3 Bft) 100,00 %
13.06.2016 02:18 14,7 C 91 % 1006,1 hPa 0,0 l/m 9,1 km/h (2 Bft) W-SW 252 0 min 0,000 mm 0,0 UV-I 0 W/m 13,2 C 13,2 C 11,3 km/h (2 Bft) 100,00 %
13.06.2016 02:19 14,7 C 91 % 1006,1 hPa 0,0 l/m 11,3 km/h (2 Bft) W 259 0 min 0,000 mm 0,0 UV-I 0 W/m 13,2 C 12,2 C 14,5 km/h (3 Bft) 100,00 %
13.06.2016 02:20 14,6 C 91 % 1006,1 hPa 0,0 l/m 13,0 km/h (3 Bft) SW 229 0 min 0,000 mm 0,0 UV-I 0 W/m 13,1 C 11,4 C 16,1 km/h (3 Bft) 100,00 %
13.06.2016 02:21 14,6 C 91 % 1006,1 hPa 0,0 l/m 14,2 km/h (3 Bft) S-SW 209 0 min 0,000 mm 0,0 UV-I 0 W/m 13,1 C 11,0 C 17,7 km/h (3 Bft) 100,00 %
13.06.2016 02:22 14,7 C 91 % 1006,1 hPa 0,0 l/m 13,7 km/h (3 Bft) SW 231 0 min 0,000 mm 0,0 UV-I 0 W/m 13,2 C 11,3 C 17,7 km/h (3 Bft) 100,00 %
13.06.2016 02:23 14,6 C 91 % 1006,1 hPa 0,0 l/m 10,9 km/h (2 Bft) W-SW 242 0 min 0,000 mm 0,0 UV-I 0 W/m 13,1 C 12,3 C 14,5 km/h (3 Bft) 100,00 %
13.06.2016 02:24 14,6 C 91 % 1006,1 hPa 0,0 l/m 10,6 km/h (2 Bft) SW 221 0 min 0,000 mm 0,0 UV-I 0 W/m 13,1 C 12,4 C 17,7 km/h (3 Bft) 100,00 %
13.06.2016 02:25 14,6 C 91 % 1006,1 hPa 0,0 l/m 11,5 km/h (2 Bft) W-SW 247 0 min 0,000 mm 0,0 UV-I 0 W/m 13,1 C 12,0 C 16,1 km/h (3 Bft) 100,00 %
13.06.2016 02:26 14,6 C 91 % 1006,1 hPa 0,0 l/m 10,1 km/h (2 Bft) W-SW 244 0 min 0,000 mm 0,0 UV-I 0 W/m 13,1 C 12,6 C 12,9 km/h (3 Bft) 100,00 %
13.06.2016 02:27 14,6 C 91 % 1006,1 hPa 0,0 l/m 9,3 km/h (2 Bft) W-SW 255 0 min 0,000 mm 0,0 UV-I 0 W/m 13,1 C 13,0 C 12,9 km/h (3 Bft) 100,00 %
13.06.2016 02:28 14,6 C 91 % 1006,1 hPa 0,0 l/m 8,4 km/h (2 Bft) S-SW 199 0 min 0,000 mm 0,0 UV-I 0 W/m 13,1 C 13,5 C 12,9 km/h (3 Bft) 100,00 %
13.06.2016 02:29 14,6 C 91 % 1006,0 hPa 0,0 l/m 9,4 km/h (2 Bft) W-SW 251 0 min 0,000 mm 0,0 UV-I 0 W/m 13,1 C 13,0 C 14,5 km/h (3 Bft) 100,00 %
13.06.2016 02:30 14,6 C 91 % 1006,0 hPa 0,0 l/m 9,7 km/h (2 Bft) SW 224 0 min 0,000 mm 0,0 UV-I 0 W/m 13,1 C 12,8 C 12,9 km/h (3 Bft) 100,00 %
13.06.2016 02:31 14,6 C 91 % 1006,0 hPa 0,0 l/m 12,5 km/h (3 Bft) W 259 0 min 0,000 mm 0,0 UV-I 0 W/m 13,1 C 11,6 C 17,7 km/h (3 Bft) 100,00 %
13.06.2016 02:32 14,6 C 91 % 1006,0 hPa 0,0 l/m 10,5 km/h (2 Bft) SW 219 0 min 0,000 mm 0,0 UV-I 0 W/m 13,1 C 12,4 C 12,9 km/h (3 Bft) 97,22 %
13.06.2016 02:33 14,6 C 91 % 1006,0 hPa 0,0 l/m 11,5 km/h (2 Bft) SW 231 0 min 0,000 mm 0,0 UV-I 0 W/m 13,1 C 12,0 C 16,1 km/h (3 Bft) 100,00 %
13.06.2016 02:34 14,6 C 91 % 1006,0 hPa 0,0 l/m 11,5 km/h (2 Bft) SW 227 0 min 0,000 mm 0,0 UV-I 0 W/m 13,1 C 12,0 C 17,7 km/h (3 Bft) 96,30 %
13.06.2016 02:35 14,6 C 91 % 1005,9 hPa 0,0 l/m 9,8 km/h (2 Bft) S-SW 211 0 min 0,000 mm 0,0 UV-I 0 W/m 13,1 C 12,8 C 14,5 km/h (3 Bft) 100,00 %
13.06.2016 02:36 14,6 C 91 % 1005,9 hPa 0,0 l/m 9,1 km/h (2 Bft) S-SW 204 0 min 0,000 mm 0,0 UV-I 0 W/m 13,1 C 13,1 C 16,1 km/h (3 Bft) 100,00 %
13.06.2016 02:37 14,6 C 91 % 1006,0 hPa 0,0 l/m 10,5 km/h (2 Bft) SW 236 0 min 0,000 mm 0,0 UV-I 0 W/m 13,1 C 12,4 C 14,5 km/h (3 Bft) 100,00 %
13.06.2016 02:38 14,6 C 91 % 1006,0 hPa 0,0 l/m 9,0 km/h (2 Bft) SW 220 0 min 0,000 mm 0,0 UV-I 0 W/m 13,1 C 13,2 C 12,9 km/h (3 Bft) 100,00 %
13.06.2016 02:39 14,6 C 91 % 1005,9 hPa 0,0 l/m 12,0 km/h (2 Bft) S-SW 213 0 min 0,000 mm 0,0 UV-I 0 W/m 13,1 C 11,8 C 17,7 km/h (3 Bft) 100,00 %
13.06.2016 02:40 14,5 C 91 % 1005,9 hPa 0,0 l/m 9,8 km/h (2 Bft) SW 224 0 min 0,000 mm 0,0 UV-I 0 W/m 13,0 C 12,7 C 14,5 km/h (3 Bft) 100,00 %
13.06.2016 02:41 14,5 C 91 % 1006,0 hPa 0,0 l/m 7,2 km/h (2 Bft) SW 215 0 min 0,000 mm 0,0 UV-I 0 W/m 13,0 C 14,0 C 12,9 km/h (3 Bft) 100,00 %
13.06.2016 02:42 14,5 C 91 % 1006,0 hPa 0,0 l/m 12,6 km/h (3 Bft) SW 229 0 min 0,000 mm 0,0 UV-I 0 W/m 13,0 C 11,5 C 16,1 km/h (3 Bft) 100,00 %
13.06.2016 02:43 14,5 C 91 % 1006,0 hPa 0,0 l/m 11,0 km/h (2 Bft) SW 234 0 min 0,000 mm 0,0 UV-I 0 W/m 13,0 C 12,1 C 16,1 km/h (3 Bft) 100,00 %
13.06.2016 02:44 14,5 C 91 % 1005,9 hPa 0,0 l/m 9,2 km/h (2 Bft) W-SW 242 0 min 0,000 mm 0,0 UV-I 0 W/m 13,0 C 13,0 C 12,9 km/h (3 Bft) 100,00 %
13.06.2016 02:45 14,5 C 91 % 1005,9 hPa 0,0 l/m 8,0 km/h (2 Bft) W-SW 241 0 min 0,000 mm 0,0 UV-I 0 W/m 13,0 C 13,6 C 11,3 km/h (2 Bft) 100,00 %
13.06.2016 02:46 14,5 C 91 % 1005,9 hPa 0,0 l/m 8,3 km/h (2 Bft) W-SW 238 0 min 0,000 mm 0,0 UV-I 0 W/m 13,0 C 13,4 C 11,3 km/h (2 Bft) 100,00 %
13.06.2016 02:47 14,5 C 91 % 1005,9 hPa 0,0 l/m 9,4 km/h (2 Bft) SW 235 0 min 0,000 mm 0,0 UV-I 0 W/m 13,0 C 12,9 C 14,5 km/h (3 Bft) 100,00 %
13.06.2016 02:48 14,5 C 91 % 1005,9 hPa 0,0 l/m 10,3 km/h (2 Bft) W-SW 242 0 min 0,000 mm 0,0 UV-I 0 W/m 13,0 C 12,4 C 14,5 km/h (3 Bft) 100,00 %
13.06.2016 02:49 14,5 C 91 % 1005,9 hPa 0,0 l/m 11,6 km/h (2 Bft) SW 225 0 min 0,000 mm 0,0 UV-I 0 W/m 13,0 C 11,9 C 14,5 km/h (3 Bft) 100,00 %
13.06.2016 02:50 14,4 C 91 % 1005,9 hPa 0,0 l/m 9,9 km/h (2 Bft) SW 223 0 min 0,000 mm 0,0 UV-I 0 W/m 12,9 C 12,5 C 14,5 km/h (3 Bft) 100,00 %
13.06.2016 02:51 14,4 C 91 % 1005,9 hPa 0,0 l/m 11,2 km/h (2 Bft) W-SW 238 0 min 0,000 mm 0,0 UV-I 0 W/m 12,9 C 11,9 C 14,5 km/h (3 Bft) 100,00 %
13.06.2016 02:52 14,4 C 91 % 1005,8 hPa 0,0 l/m 11,7 km/h (2 Bft) SW 232 0 min 0,000 mm 0,0 UV-I 0 W/m 12,9 C 11,7 C 16,1 km/h (3 Bft) 100,00 %
13.06.2016 02:53 14,4 C 91 % 1005,9 hPa 0,0 l/m 10,7 km/h (2 Bft) SW 227 0 min 0,000 mm 0,0 UV-I 0 W/m 12,9 C 12,1 C 14,5 km/h (3 Bft) 98,96 %
13.06.2016 02:54 14,4 C 91 % 1005,9 hPa 0,0 l/m 6,9 km/h (2 Bft) SW 232 0 min 0,000 mm 0,0 UV-I 0 W/m 12,9 C 14,1 C 9,7 km/h (2 Bft) 100,00 %
13.06.2016 02:55 14,4 C 91 % 1005,8 hPa 0,0 l/m 9,3 km/h (2 Bft) S-SW 211 0 min 0,000 mm 0,0 UV-I 0 W/m 12,9 C 12,8 C 14,5 km/h (3 Bft) 100,00 %
13.06.2016 02:56 14,4 C 91 % 1005,8 hPa 0,0 l/m 8,8 km/h (2 Bft) S 187 0 min 0,000 mm 0,0 UV-I 0 W/m 12,9 C 13,0 C 11,3 km/h (2 Bft) 100,00 %
13.06.2016 02:57 14,4 C 91 % 1005,8 hPa 0,0 l/m 8,7 km/h (2 Bft) S-SW 202 0 min 0,000 mm 0,0 UV-I 0 W/m 12,9 C 13,1 C 12,9 km/h (3 Bft) 100,00 %
13.06.2016 02:58 14,4 C 91 % 1005,8 hPa 0,0 l/m 11,1 km/h (2 Bft) SW 225 0 min 0,000 mm 0,0 UV-I 0 W/m 12,9 C 12,0 C 16,1 km/h (3 Bft) 100,00 %
13.06.2016 02:59 14,4 C 91 % 1005,8 hPa 0,0 l/m 11,7 km/h (2 Bft) SW 231 0 min 0,000 mm 0,0 UV-I 0 W/m 12,9 C 11,7 C 16,1 km/h (3 Bft) 96,30 %
13.06.2016 03:00 14,4 C 91 % 1005,9 hPa 0,0 l/m 14,2 km/h (3 Bft) SW 234 0 min 0,026 mm 0,0 UV-I 0 W/m 12,9 C 10,7 C 19,3 km/h (3 Bft) 100,00 %
13.06.2016 03:02 14,4 C 91 % 1005,8 hPa 0,0 l/m 11,2 km/h (2 Bft) SW 221 0 min 0,000 mm 0,0 UV-I 0 W/m 12,9 C 11,9 C 14,5 km/h (3 Bft) 100,00 %
13.06.2016 03:03 14,4 C 91 % 1005,8 hPa 0,0 l/m 11,1 km/h (2 Bft) SW 221 0 min 0,000 mm 0,0 UV-I 0 W/m 12,9 C 12,0 C 14,5 km/h (3 Bft) 100,00 %
13.06.2016 03:04 14,4 C 91 % 1005,8 hPa 0,0 l/m 10,9 km/h (2 Bft) W-SW 242 0 min 0,000 mm 0,0 UV-I 0 W/m 12,9 C 12,0 C 16,1 km/h (3 Bft) 100,00 %
13.06.2016 03:05 14,4 C 91 % 1005,8 hPa 0,0 l/m 10,9 km/h (2 Bft) S-SW 210 0 min 0,000 mm 0,0 UV-I 0 W/m 12,9 C 12,0 C 14,5 km/h (3 Bft) 100,00 %
13.06.2016 03:06 14,4 C 91 % 1005,8 hPa 0,0 l/m 9,5 km/h (2 Bft) SW 223 0 min 0,000 mm 0,0 UV-I 0 W/m 12,9 C 12,7 C 12,9 km/h (3 Bft) 100,00 %
13.06.2016 03:07 14,3 C 91 % 1005,8 hPa 0,0 l/m 12,6 km/h (3 Bft) S-SW 213 0 min 0,000 mm 0,0 UV-I 0 W/m 12,8 C 11,2 C 17,7 km/h (3 Bft) 96,77 %
13.06.2016 03:08 14,3 C 91 % 1005,8 hPa 0,0 l/m 9,4 km/h (2 Bft) S-SW 194 0 min 0,000 mm 0,0 UV-I 0 W/m 12,8 C 12,6 C 11,3 km/h (2 Bft) 100,00 %
13.06.2016 03:09 14,3 C 91 % 1005,8 hPa 0,0 l/m 12,7 km/h (3 Bft) SW 236 0 min 0,000 mm 0,0 UV-I 0 W/m 12,8 C 11,2 C 16,1 km/h (3 Bft) 96,15 %
13.06.2016 03:10 14,3 C 91 % 1005,7 hPa 0,0 l/m 9,8 km/h (2 Bft) SW 223 0 min 0,000 mm 0,0 UV-I 0 W/m 12,8 C 12,4 C 12,9 km/h (3 Bft) 100,00 %
13.06.2016 03:11 14,3 C 91 % 1005,7 hPa 0,0 l/m 10,7 km/h (2 Bft) W-SW 241 0 min 0,000 mm 0,0 UV-I 0 W/m 12,8 C 12,0 C 14,5 km/h (3 Bft) 92,31 %
13.06.2016 03:12 14,3 C 91 % 1005,8 hPa 0,0 l/m 10,5 km/h (2 Bft) SW 231 0 min 0,000 mm 0,0 UV-I 0 W/m 12,8 C 12,1 C 16,1 km/h (3 Bft) 96,30 %
13.06.2016 03:13 14,3 C 90 % 1005,8 hPa 0,0 l/m 10,3 km/h (2 Bft) S-SW 209 0 min 0,000 mm 0,0 UV-I 0 W/m 12,7 C 12,2 C 17,7 km/h (3 Bft) 100,00 %
13.06.2016 03:14 14,3 C 90 % 1005,8 hPa 0,0 l/m 7,3 km/h (2 Bft) S-SW 212 0 min 0,000 mm 0,0 UV-I 0 W/m 12,7 C 13,8 C 11,3 km/h (2 Bft) 96,30 %
13.06.2016 03:15 14,3 C 91 % 1005,8 hPa 0,0 l/m 10,8 km/h (2 Bft) S-SW 209 0 min 0,000 mm 0,0 UV-I 0 W/m 12,8 C 12,0 C 17,7 km/h (3 Bft) 100,00 %
13.06.2016 03:16 14,3 C 90 % 1005,7 hPa 0,0 l/m 10,3 km/h (2 Bft) S-SW 204 0 min 0,000 mm 0,0 UV-I 0 W/m 12,7 C 12,2 C 12,9 km/h (3 Bft) 91,67 %
13.06.2016 03:17 14,3 C 90 % 1005,7 hPa 0,0 l/m 9,1 km/h (2 Bft) W-SW 241 0 min 0,000 mm 0,0 UV-I 0 W/m 12,7 C 12,8 C 14,5 km/h (3 Bft) 100,00 %
13.06.2016 03:18 14,3 C 91 % 1005,7 hPa 0,0 l/m 8,0 km/h (2 Bft) SW 229 0 min 0,000 mm 0,0 UV-I 0 W/m 12,8 C 13,4 C 12,9 km/h (3 Bft) 96,15 %
13.06.2016 03:19 14,3 C 91 % 1005,7 hPa 0,0 l/m 7,4 km/h (2 Bft) W-SW 238 0 min 0,000 mm 0,0 UV-I 0 W/m 12,8 C 13,7 C 9,7 km/h (2 Bft) 96,15 %
13.06.2016 03:20 14,3 C 90 % 1005,7 hPa 0,0 l/m 8,6 km/h (2 Bft) W-SW 240 0 min 0,000 mm 0,0 UV-I 0 W/m 12,7 C 13,0 C 11,3 km/h (2 Bft) 91,67 %
13.06.2016 03:21 14,3 C 90 % 1005,7 hPa 0,0 l/m 8,2 km/h (2 Bft) W-SW 242 0 min 0,000 mm 0,0 UV-I 0 W/m 12,7 C 13,3 C 11,3 km/h (2 Bft) 100,00 %
13.06.2016 03:22 14,3 C 90 % 1005,7 hPa 0,0 l/m 9,2 km/h (2 Bft) SW 217 0 min 0,000 mm 0,0 UV-I 0 W/m 12,7 C 12,7 C 12,9 km/h (3 Bft) 97,73 %
13.06.2016 03:23 14,3 C 90 % 1005,7 hPa 0,0 l/m 9,1 km/h (2 Bft) W-SW 239 0 min 0,000 mm 0,0 UV-I 0 W/m 12,7 C 12,8 C 12,9 km/h (3 Bft) 91,67 %
13.06.2016 03:24 14,3 C 90 % 1005,7 hPa 0,0 l/m 9,3 km/h (2 Bft) W-SW 237 0 min 0,000 mm 0,0 UV-I 0 W/m 12,7 C 12,7 C 12,9 km/h (3 Bft) 96,88 %
13.06.2016 03:25 14,3 C 90 % 1005,6 hPa 0,0 l/m 9,0 km/h (2 Bft) SW 225 0 min 0,000 mm 0,0 UV-I 0 W/m 12,7 C 12,8 C 12,9 km/h (3 Bft) 96,30 %
13.06.2016 03:26 14,3 C 91 % 1005,6 hPa 0,0 l/m 7,8 km/h (2 Bft) W-SW 242 0 min 0,000 mm 0,0 UV-I 0 W/m 12,8 C 13,5 C 9,7 km/h (2 Bft) 95,65 %
13.06.2016 03:27 14,3 C 91 % 1005,6 hPa 0,0 l/m 8,8 km/h (2 Bft) W-SW 243 0 min 0,000 mm 0,0 UV-I 0 W/m 12,8 C 12,9 C 11,3 km/h (2 Bft) 100,00 %
13.06.2016 03:28 14,2 C 91 % 1005,6 hPa 0,0 l/m 8,7 km/h (2 Bft) SW 217 0 min 0,000 mm 0,0 UV-I 0 W/m 12,8 C 12,9 C 14,5 km/h (3 Bft) 100,00 %
13.06.2016 03:29 14,2 C 91 % 1005,6 hPa 0,0 l/m 9,5 km/h (2 Bft) SW 229 0 min 0,000 mm 0,0 UV-I 0 W/m 12,8 C 12,5 C 16,1 km/h (3 Bft) 91,67 %
13.06.2016 03:30 14,2 C 91 % 1005,6 hPa 0,0 l/m 13,1 km/h (3 Bft) S-SW 202 0 min 0,000 mm 0,0 UV-I 0 W/m 12,8 C 10,9 C 16,1 km/h (3 Bft) 97,37 %
13.06.2016 03:32 14,2 C 91 % 1005,5 hPa 0,0 l/m 8,9 km/h (2 Bft) SW 232 0 min 0,000 mm 0,0 UV-I 0 W/m 12,8 C 12,8 C 12,9 km/h (3 Bft) 98,00 %
13.06.2016 03:33 14,2 C 91 % 1005,5 hPa 0,0 l/m 9,2 km/h (2 Bft) W-SW 241 0 min 0,000 mm 0,0 UV-I 0 W/m 12,8 C 12,6 C 12,9 km/h (3 Bft) 96,30 %
13.06.2016 03:34 14,2 C 91 % 1005,6 hPa 0,0 l/m 8,8 km/h (2 Bft) W 259 0 min 0,000 mm 0,0 UV-I 0 W/m 12,8 C 12,8 C 11,3 km/h (2 Bft) 100,00 %
13.06.2016 03:35 14,2 C 91 % 1005,5 hPa 0,0 l/m 9,7 km/h (2 Bft) SW 232 0 min 0,000 mm 0,0 UV-I 0 W/m 12,8 C 12,4 C 12,9 km/h (3 Bft) 100,00 %
13.06.2016 03:36 14,2 C 91 % 1005,5 hPa 0,0 l/m 9,1 km/h (2 Bft) SW 236 0 min 0,000 mm 0,0 UV-I 0 W/m 12,8 C 12,7 C 12,9 km/h (3 Bft) 96,15 %
13.06.2016 03:37 14,2 C 91 % 1005,5 hPa 0,0 l/m 11,5 km/h (2 Bft) W-SW 250 0 min 0,000 mm 0,0 UV-I 0 W/m 12,8 C 11,6 C 16,1 km/h (3 Bft) 95,83 %
13.06.2016 03:38 14,1 C 91 % 1005,5 hPa 0,0 l/m 11,1 km/h (2 Bft) W-SW 240 0 min 0,000 mm 0,0 UV-I 0 W/m 12,7 C 11,6 C 14,5 km/h (3 Bft) 100,00 %
13.06.2016 03:39 14,1 C 91 % 1005,5 hPa 0,0 l/m 10,5 km/h (2 Bft) SW 227 0 min 0,000 mm 0,0 UV-I 0 W/m 12,7 C 11,9 C 14,5 km/h (3 Bft) 96,55 %
13.06.2016 03:40 14,1 C 91 % 1005,5 hPa 0,0 l/m 9,0 km/h (2 Bft) SW 219 0 min 0,000 mm 0,0 UV-I 0 W/m 12,7 C 12,6 C 12,9 km/h (3 Bft) 93,33 %
13.06.2016 03:41 14,1 C 91 % 1005,5 hPa 0,0 l/m 9,1 km/h (2 Bft) W-SW 254 0 min 0,000 mm 0,0 UV-I 0 W/m 12,7 C 12,6 C 12,9 km/h (3 Bft) 96,55 %
13.06.2016 03:42 14,1 C 91 % 1005,5 hPa 0,0 l/m 11,6 km/h (2 Bft) SW 221 0 min 0,000 mm 0,0 UV-I 0 W/m 12,7 C 11,4 C 16,1 km/h (3 Bft) 100,00 %
13.06.2016 03:43 14,1 C 91 % 1005,5 hPa 0,0 l/m 10,5 km/h (2 Bft) SW 228 0 min 0,000 mm 0,0 UV-I 0 W/m 12,7 C 11,9 C 14,5 km/h (3 Bft) 95,65 %
13.06.2016 03:44 14,1 C 91 % 1005,5 hPa 0,0 l/m 9,7 km/h (2 Bft) W-SW 248 0 min 0,000 mm 0,0 UV-I 0 W/m 12,7 C 12,3 C 14,5 km/h (3 Bft) 95,83 %
13.06.2016 03:45 14,1 C 91 % 1005,5 hPa 0,0 l/m 11,1 km/h (2 Bft) SW 232 0 min 0,000 mm 0,0 UV-I 0 W/m 12,7 C 11,6 C 16,1 km/h (3 Bft) 100,00 %
13.06.2016 03:46 14,1 C 91 % 1005,5 hPa 0,0 l/m 10,6 km/h (2 Bft) SW 236 0 min 0,000 mm 0,0 UV-I 0 W/m 12,7 C 11,8 C 14,5 km/h (3 Bft) 100,00 %
13.06.2016 03:47 14,1 C 91 % 1005,5 hPa 0,0 l/m 11,6 km/h (2 Bft) W-SW 240 0 min 0,000 mm 0,0 UV-I 0 W/m 12,7 C 11,4 C 16,1 km/h (3 Bft) 100,00 %
13.06.2016 03:48 14,1 C 91 % 1005,5 hPa 0,0 l/m 11,4 km/h (2 Bft) SW 226 0 min 0,000 mm 0,0 UV-I 0 W/m 12,7 C 11,5 C 16,1 km/h (3 Bft) 95,83 %
13.06.2016 03:49 14,1 C 91 % 1005,5 hPa 0,0 l/m 11,3 km/h (2 Bft) W-SW 245 0 min 0,000 mm 0,0 UV-I 0 W/m 12,7 C 11,5 C 16,1 km/h (3 Bft) 100,00 %
13.06.2016 03:50 14,0 C 91 % 1005,5 hPa 0,0 l/m 7,6 km/h (2 Bft) S-SW 212 0 min 0,000 mm 0,0 UV-I 0 W/m 12,6 C 13,3 C 12,9 km/h (3 Bft) 100,00 %
13.06.2016 03:51 14,0 C 91 % 1005,5 hPa 0,0 l/m 8,6 km/h (2 Bft) S 177 0 min 0,000 mm 0,0 UV-I 0 W/m 12,6 C 12,7 C 14,5 km/h (3 Bft) 100,00 %
13.06.2016 03:52 14,0 C 91 % 1005,5 hPa 0,0 l/m 7,5 km/h (2 Bft) S-SW 205 0 min 0,000 mm 0,0 UV-I 0 W/m 12,6 C 13,3 C 11,3 km/h (2 Bft) 96,67 %
13.06.2016 03:53 14,0 C 91 % 1005,5 hPa 0,0 l/m 9,5 km/h (2 Bft) SW 217 0 min 0,000 mm 0,0 UV-I 0 W/m 12,6 C 12,3 C 12,9 km/h (3 Bft) 100,00 %
13.06.2016 03:54 14,0 C 91 % 1005,5 hPa 0,0 l/m 8,5 km/h (2 Bft) SW 230 0 min 0,000 mm 0,0 UV-I 0 W/m 12,6 C 12,8 C 12,9 km/h (3 Bft) 100,00 %
13.06.2016 03:55 14,0 C 91 % 1005,5 hPa 0,0 l/m 5,7 km/h (1 Bft) SW 217 0 min 0,000 mm 0,0 UV-I 0 W/m 12,6 C 14,0 C 8,0 km/h (2 Bft) 100,00 %
13.06.2016 03:56 14,0 C 91 % 1005,5 hPa 0,0 l/m 6,9 km/h (2 Bft) S 188 0 min 0,000 mm 0,0 UV-I 0 W/m 12,6 C 13,7 C 11,3 km/h (2 Bft) 100,00 %
13.06.2016 03:57 13,9 C 91 % 1005,5 hPa 0,0 l/m 7,6 km/h (2 Bft) SW 227 0 min 0,000 mm 0,0 UV-I 0 W/m 12,5 C 13,2 C 12,9 km/h (3 Bft) 96,30 %
13.06.2016 03:58 13,9 C 91 % 1005,5 hPa 0,0 l/m 6,3 km/h (2 Bft) S-SW 206 0 min 0,000 mm 0,0 UV-I 0 W/m 12,5 C 13,9 C 8,0 km/h (2 Bft) 100,00 %
13.06.2016 03:59 13,9 C 91 % 1005,5 hPa 0,0 l/m 6,1 km/h (2 Bft) S 171 0 min 0,000 mm 0,0 UV-I 0 W/m 12,5 C 13,9 C 8,0 km/h (2 Bft) 95,83 %
13.06.2016 04:00 14,0 C 91 % 1005,6 hPa 0,0 l/m 8,9 km/h (2 Bft) S 171 0 min 0,000 mm 0,0 UV-I 0 W/m 12,6 C 12,6 C 12,9 km/h (3 Bft) 100,00 %
13.06.2016 04:01 13,9 C 91 % 1005,6 hPa 0,0 l/m 6,8 km/h (2 Bft) SW 215 0 min 0,000 mm 0,0 UV-I 0 W/m 12,5 C 13,7 C 9,7 km/h (2 Bft) 100,00 %
13.06.2016 04:02 14,0 C 91 % 1005,5 hPa 0,0 l/m 7,1 km/h (2 Bft) W-SW 241 0 min 0,000 mm 0,0 UV-I 0 W/m 12,6 C 13,6 C 12,9 km/h (3 Bft) 100,00 %
13.06.2016 04:03 14,0 C 91 % 1005,5 hPa 0,0 l/m 4,3 km/h (1 Bft) SW 214 0 min 0,000 mm 0,0 UV-I 0 W/m 12,6 C 14,0 C 6,4 km/h (2 Bft) 100,00 %
13.06.2016 04:04 13,9 C 91 % 1005,5 hPa 0,0 l/m 6,6 km/h (2 Bft) S 182 0 min 0,000 mm 0,0 UV-I 0 W/m 12,5 C 13,8 C 11,3 km/h (2 Bft) 100,00 %
13.06.2016 04:05 13,9 C 91 % 1005,5 hPa 0,0 l/m 7,4 km/h (2 Bft) S-SW 202 0 min 0,000 mm 0,0 UV-I 0 W/m 12,5 C 13,3 C 12,9 km/h (3 Bft) 100,00 %
13.06.2016 04:06 13,9 C 91 % 1005,5 hPa 0,0 l/m 8,5 km/h (2 Bft) SW 220 0 min 0,000 mm 0,0 UV-I 0 W/m 12,5 C 12,7 C 11,3 km/h (2 Bft) 100,00 %
13.06.2016 04:07 14,0 C 91 % 1005,5 hPa 0,0 l/m 7,7 km/h (2 Bft) S-SW 194 0 min 0,000 mm 0,0 UV-I 0 W/m 12,6 C 13,2 C 9,7 km/h (2 Bft) 97,44 %
13.06.2016 04:08 14,0 C 91 % 1005,5 hPa 0,0 l/m 6,7 km/h (2 Bft) S-SW 208 0 min 0,000 mm 0,0 UV-I 0 W/m 12,6 C 13,8 C 9,7 km/h (2 Bft) 100,00 %
13.06.2016 04:09 14,0 C 91 % 1005,5 hPa 0,0 l/m 8,5 km/h (2 Bft) S-SW 205 0 min 0,000 mm 0,0 UV-I 0 W/m 12,6 C 12,8 C 16,1 km/h (3 Bft) 100,00 %
13.06.2016 04:10 14,0 C 91 % 1005,5 hPa 0,0 l/m 6,4 km/h (2 Bft) S-SW 212 0 min 0,000 mm 0,0 UV-I 0 W/m 12,6 C 14,0 C 11,3 km/h (2 Bft) 100,00 %
13.06.2016 04:11 14,0 C 91 % 1005,5 hPa 0,0 l/m 8,7 km/h (2 Bft) SW 221 0 min 0,000 mm 0,0 UV-I 0 W/m 12,6 C 12,7 C 12,9 km/h (3 Bft) 100,00 %
13.06.2016 04:12 14,0 C 91 % 1005,5 hPa 0,0 l/m 7,4 km/h (2 Bft) W-SW 238 0 min 0,000 mm 0,0 UV-I 0 W/m 12,6 C 13,4 C 12,9 km/h (3 Bft) 100,00 %
13.06.2016 04:13 14,0 C 91 % 1005,5 hPa 0,0 l/m 9,5 km/h (2 Bft) W 268 0 min 0,000 mm 0,0 UV-I 0 W/m 12,6 C 12,3 C 14,5 km/h (3 Bft) 94,44 %
13.06.2016 04:14 14,0 C 91 % 1005,5 hPa 0,0 l/m 8,0 km/h (2 Bft) SW 227 0 min 0,000 mm 0,0 UV-I 0 W/m 12,6 C 13,1 C 11,3 km/h (2 Bft) 100,00 %
13.06.2016 04:15 14,0 C 91 % 1005,5 hPa 0,0 l/m 8,9 km/h (2 Bft) SW 221 0 min 0,000 mm 0,0 UV-I 0 W/m 12,6 C 12,6 C 11,3 km/h (2 Bft) 100,00 %
13.06.2016 04:16 14,0 C 91 % 1005,5 hPa 0,0 l/m 9,7 km/h (2 Bft) W-SW 246 0 min 0,000 mm 0,0 UV-I 0 W/m 12,6 C 12,2 C 12,9 km/h (3 Bft) 99,40 %
13.06.2016 04:17 14,0 C 91 % 1005,5 hPa 0,0 l/m 8,5 km/h (2 Bft) S-SW 192 0 min 0,000 mm 0,0 UV-I 0 W/m 12,6 C 12,8 C 12,9 km/h (3 Bft) 100,00 %
13.06.2016 04:18 14,0 C 91 % 1005,5 hPa 0,0 l/m 9,7 km/h (2 Bft) SW 229 0 min 0,000 mm 0,0 UV-I 0 W/m 12,6 C 12,2 C 14,5 km/h (3 Bft) 100,00 %
13.06.2016 04:19 14,0 C 91 % 1005,5 hPa 0,0 l/m 11,4 km/h (2 Bft) SW 229 0 min 0,000 mm 0,0 UV-I 0 W/m 12,6 C 11,4 C 16,1 km/h (3 Bft) 91,67 %
13.06.2016 04:20 14,1 C 91 % 1005,5 hPa 0,0 l/m 9,7 km/h (2 Bft) W-SW 242 0 min 0,000 mm 0,0 UV-I 0 W/m 12,7 C 12,3 C 12,9 km/h (3 Bft) 96,88 %
13.06.2016 04:21 14,1 C 91 % 1005,5 hPa 0,0 l/m 8,3 km/h (2 Bft) SW 225 0 min 0,000 mm 0,0 UV-I 0 W/m 12,7 C 13,0 C 11,3 km/h (2 Bft) 100,00 %
13.06.2016 04:22 14,1 C 91 % 1005,5 hPa 0,0 l/m 8,9 km/h (2 Bft) SW 236 0 min 0,000 mm 0,0 UV-I 0 W/m 12,7 C 12,7 C 11,3 km/h (2 Bft) 100,00 %
13.06.2016 04:23 14,1 C 91 % 1005,5 hPa 0,0 l/m 9,3 km/h (2 Bft) W-SW 248 0 min 0,000 mm 0,0 UV-I 0 W/m 12,7 C 12,5 C 12,9 km/h (3 Bft) 100,00 %
13.06.2016 04:24 14,1 C 91 % 1005,5 hPa 0,0 l/m 7,4 km/h (2 Bft) SW 219 0 min 0,000 mm 0,0 UV-I 0 W/m 12,7 C 13,5 C 11,3 km/h (2 Bft) 100,00 %
13.06.2016 04:25 14,1 C 91 % 1005,5 hPa 0,0 l/m 7,2 km/h (2 Bft) S-SW 195 0 min 0,000 mm 0,0 UV-I 0 W/m 12,7 C 13,6 C 12,9 km/h (3 Bft) 100,00 %
13.06.2016 04:26 14,1 C 91 % 1005,5 hPa 0,0 l/m 7,6 km/h (2 Bft) SW 234 0 min 0,000 mm 0,0 UV-I 0 W/m 12,7 C 13,4 C 11,3 km/h (2 Bft) 100,00 %
13.06.2016 04:27 14,1 C 91 % 1005,5 hPa 0,0 l/m 10,9 km/h (2 Bft) SW 230 0 min 0,000 mm 0,0 UV-I 0 W/m 12,7 C 11,7 C 14,5 km/h (3 Bft) 100,00 %
13.06.2016 04:28 14,1 C 91 % 1005,5 hPa 0,0 l/m 10,5 km/h (2 Bft) W-SW 249 0 min 0,000 mm 0,0 UV-I 0 W/m 12,7 C 11,9 C 14,5 km/h (3 Bft) 96,30 %
13.06.2016 04:29 14,1 C 91 % 1005,5 hPa 0,0 l/m 12,1 km/h (2 Bft) W-SW 238 0 min 0,000 mm 0,0 UV-I 0 W/m 12,7 C 11,2 C 17,7 km/h (3 Bft) 100,00 %
13.06.2016 04:30 14,1 C 91 % 1005,5 hPa 0,0 l/m 10,5 km/h (2 Bft) SW 234 0 min 0,000 mm 0,0 UV-I 0 W/m 12,7 C 11,9 C 17,7 km/h (3 Bft) 100,00 %
13.06.2016 04:31 14,1 C 91 % 1005,5 hPa 0,0 l/m 9,9 km/h (2 Bft) S-SW 211 0 min 0,000 mm 0,0 UV-I 0 W/m 12,7 C 12,2 C 16,1 km/h (3 Bft) 95,65 %
13.06.2016 04:32 14,1 C 91 % 1005,5 hPa 0,0 l/m 12,2 km/h (2 Bft) W-SW 244 0 min 0,000 mm 0,0 UV-I 0 W/m 12,7 C 11,2 C 14,5 km/h (3 Bft) 96,67 %
13.06.2016 04:33 14,1 C 91 % 1005,5 hPa 0,0 l/m 11,0 km/h (2 Bft) SW 228 0 min 0,000 mm 0,0 UV-I 0 W/m 12,7 C 11,7 C 14,5 km/h (3 Bft) 100,00 %
13.06.2016 04:34 14,1 C 91 % 1005,4 hPa 0,0 l/m 11,6 km/h (2 Bft) SW 222 0 min 0,000 mm 0,0 UV-I 0 W/m 12,7 C 11,4 C 16,1 km/h (3 Bft) 100,00 %
13.06.2016 04:35 14,1 C 91 % 1005,5 hPa 0,0 l/m 12,7 km/h (3 Bft) SW 221 0 min 0,000 mm 0,0 UV-I 0 W/m 12,7 C 11,0 C 19,3 km/h (3 Bft) 100,00 %
13.06.2016 04:36 14,1 C 91 % 1005,4 hPa 0,0 l/m 12,6 km/h (3 Bft) SW 223 0 min 0,000 mm 0,0 UV-I 0 W/m 12,7 C 11,0 C 16,1 km/h (3 Bft) 100,00 %
13.06.2016 04:37 14,1 C 91 % 1005,4 hPa 0,0 l/m 9,0 km/h (2 Bft) SW 222 0 min 0,000 mm 0,0 UV-I 0 W/m 12,7 C 12,6 C 12,9 km/h (3 Bft) 100,00 %
13.06.2016 04:38 14,1 C 91 % 1005,5 hPa 0,0 l/m 9,3 km/h (2 Bft) W-SW 248 0 min 0,000 mm 0,0 UV-I 0 W/m 12,7 C 12,5 C 14,5 km/h (3 Bft) 100,00 %
13.06.2016 04:39 14,2 C 91 % 1005,5 hPa 0,0 l/m 10,9 km/h (2 Bft) W-SW 242 0 min 0,000 mm 0,0 UV-I 0 W/m 12,8 C 11,8 C 17,7 km/h (3 Bft) 93,33 %
13.06.2016 04:40 14,2 C 91 % 1005,4 hPa 0,0 l/m 13,0 km/h (3 Bft) SW 220 0 min 0,000 mm 0,0 UV-I 0 W/m 12,8 C 11,0 C 19,3 km/h (3 Bft) 100,00 %
13.06.2016 04:41 14,2 C 91 % 1005,4 hPa 0,0 l/m 9,1 km/h (2 Bft) SW 219 0 min 0,000 mm 0,0 UV-I 0 W/m 12,8 C 12,7 C 14,5 km/h (3 Bft) 100,00 %
13.06.2016 04:42 14,2 C 91 % 1005,5 hPa 0,0 l/m 15,4 km/h (3 Bft) SW 230 0 min 0,000 mm 0,0 UV-I 0 W/m 12,8 C 10,1 C 19,3 km/h (3 Bft) 100,00 %
13.06.2016 04:43 14,2 C 91 % 1005,4 hPa 0,0 l/m 12,1 km/h (2 Bft) S-SW 195 0 min 0,000 mm 0,0 UV-I 0 W/m 12,8 C 11,3 C 17,7 km/h (3 Bft) 100,00 %
13.06.2016 04:44 14,2 C 91 % 1005,4 hPa 0,0 l/m 11,1 km/h (2 Bft) SW 232 0 min 0,000 mm 0,0 UV-I 0 W/m 12,8 C 11,7 C 16,1 km/h (3 Bft) 100,00 %
13.06.2016 04:45 14,2 C 91 % 1005,4 hPa 0,0 l/m 13,2 km/h (3 Bft) SW 215 0 min 0,000 mm 0,0 UV-I 0 W/m 12,8 C 10,9 C 17,7 km/h (3 Bft) 100,00 %
13.06.2016 04:46 14,2 C 91 % 1005,4 hPa 0,0 l/m 10,5 km/h (2 Bft) SW 236 0 min 0,000 mm 0,0 UV-I 0 W/m 12,8 C 12,0 C 16,1 km/h (3 Bft) 100,00 %
13.06.2016 04:47 14,2 C 91 % 1005,4 hPa 0,0 l/m 11,3 km/h (2 Bft) S 178 0 min 0,000 mm 0,0 UV-I 0 W/m 12,8 C 11,6 C 17,7 km/h (3 Bft) 100,00 %
13.06.2016 04:48 14,2 C 90 % 1005,4 hPa 0,0 l/m 11,7 km/h (2 Bft) SW 229 0 min 0,000 mm 0,0 UV-I 0 W/m 12,6 C 11,5 C 17,7 km/h (3 Bft) 100,00 %
13.06.2016 04:49 14,2 C 90 % 1005,4 hPa 0,0 l/m 11,4 km/h (2 Bft) W-SW 237 0 min 0,000 mm 0,0 UV-I 0 W/m 12,6 C 11,6 C 17,7 km/h (3 Bft) 100,00 %
13.06.2016 04:50 14,2 C 90 % 1005,4 hPa 0,0 l/m 11,3 km/h (2 Bft) SW 229 0 min 0,000 mm 0,0 UV-I 0 W/m 12,6 C 11,6 C 19,3 km/h (3 Bft) 100,00 %
13.06.2016 04:51 14,2 C 90 % 1005,4 hPa 0,0 l/m 9,5 km/h (2 Bft) W-SW 252 0 min 0,000 mm 0,0 UV-I 0 W/m 12,6 C 12,5 C 12,9 km/h (3 Bft) 100,00 %
13.06.2016 04:52 14,2 C 90 % 1005,4 hPa 0,0 l/m 10,1 km/h (2 Bft) SW 219 0 min 0,000 mm 0,0 UV-I 0 W/m 12,6 C 12,2 C 12,9 km/h (3 Bft) 100,00 %
13.06.2016 04:53 14,3 C 90 % 1005,4 hPa 0,0 l/m 10,3 km/h (2 Bft) SW 235 0 min 0,000 mm 0,0 UV-I 0 W/m 12,7 C 12,2 C 14,5 km/h (3 Bft) 100,00 %
13.06.2016 04:54 14,3 C 90 % 1005,4 hPa 0,0 l/m 10,7 km/h (2 Bft) SW 228 0 min 0,000 mm 0,0 UV-I 0 W/m 12,7 C 12,0 C 14,5 km/h (3 Bft) 100,00 %
13.06.2016 04:55 14,3 C 90 % 1005,4 hPa 0,0 l/m 12,5 km/h (3 Bft) W-SW 240 0 min 0,000 mm 0,0 UV-I 0 W/m 12,7 C 11,3 C 17,7 km/h (3 Bft) 100,00 %
13.06.2016 04:56 14,3 C 90 % 1005,4 hPa 0,0 l/m 11,9 km/h (2 Bft) W-SW 237 0 min 0,000 mm 0,0 UV-I 0 W/m 12,7 C 11,5 C 16,1 km/h (3 Bft) 100,00 %
13.06.2016 04:57 14,3 C 90 % 1005,4 hPa 0,0 l/m 9,9 km/h (2 Bft) W 261 0 min 0,000 mm 0,0 UV-I 0 W/m 12,7 C 12,4 C 12,9 km/h (3 Bft) 100,00 %
13.06.2016 04:58 14,3 C 90 % 1005,3 hPa 0,0 l/m 11,8 km/h (2 Bft) SW 219 0 min 0,000 mm 0,0 UV-I 0 W/m 12,7 C 11,5 C 16,1 km/h (3 Bft) 100,00 %
13.06.2016 04:59 14,3 C 90 % 1005,4 hPa 0,0 l/m 10,4 km/h (2 Bft) W-SW 242 0 min 0,000 mm 0,0 UV-I 0 W/m 12,7 C 12,2 C 12,9 km/h (3 Bft) 100,00 %
13.06.2016 05:00 14,3 C 90 % 1005,4 hPa 0,0 l/m 9,6 km/h (2 Bft) W-SW 254 0 min 0,025 mm 0,0 UV-I 0 W/m 12,7 C 12,5 C 14,5 km/h (3 Bft) 100,00 %
13.06.2016 05:01 14,3 C 90 % 1005,3 hPa 0,0 l/m 8,4 km/h (2 Bft) W-SW 257 0 min 0,000 mm 0,0 UV-I 0 W/m 12,7 C 13,1 C 11,3 km/h (2 Bft) 100,00 %
13.06.2016 05:02 14,3 C 90 % 1005,3 hPa 0,0 l/m 8,1 km/h (2 Bft) W-SW 242 0 min 0,000 mm 0,0 UV-I 0 W/m 12,7 C 13,3 C 11,3 km/h (2 Bft) 100,00 %
13.06.2016 05:03 14,3 C 90 % 1005,3 hPa 0,0 l/m 8,7 km/h (2 Bft) SW 223 0 min 0,000 mm 0,0 UV-I 0 W/m 12,7 C 13,0 C 16,1 km/h (3 Bft) 100,00 %
13.06.2016 05:04 14,3 C 90 % 1005,4 hPa 0,0 l/m 10,8 km/h (2 Bft) S-SW 205 0 min 0,000 mm 0,0 UV-I 0 W/m 12,7 C 12,0 C 14,5 km/h (3 Bft) 100,00 %
13.06.2016 05:05 14,3 C 90 % 1005,4 hPa 0,0 l/m 8,2 km/h (2 Bft) W-SW 240 0 min 0,000 mm 0,0 UV-I 0 W/m 12,7 C 13,3 C 12,9 km/h (3 Bft) 100,00 %
13.06.2016 05:06 14,3 C 90 % 1005,3 hPa 0,0 l/m 9,7 km/h (2 Bft) S-SW 212 0 min 0,000 mm 0,0 UV-I 0 W/m 12,7 C 12,5 C 14,5 km/h (3 Bft) 96,30 %
13.06.2016 05:07 14,3 C 90 % 1005,4 hPa 0,0 l/m 8,2 km/h (2 Bft) SW 217 0 min 0,000 mm 0,0 UV-I 0 W/m 12,7 C 13,3 C 12,9 km/h (3 Bft) 100,00 %
13.06.2016 05:08 14,3 C 90 % 1005,3 hPa 0,0 l/m 10,7 km/h (2 Bft) W-SW 241 0 min 0,000 mm 0,0 UV-I 0 W/m 12,7 C 12,0 C 14,5 km/h (3 Bft) 100,00 %
13.06.2016 05:09 14,3 C 90 % 1005,3 hPa 0,0 l/m 11,0 km/h (2 Bft) SW 231 0 min 0,000 mm 0,0 UV-I 0 W/m 12,7 C 11,9 C 14,5 km/h (3 Bft) 100,00 %
13.06.2016 05:10 14,3 C 90 % 1005,3 hPa 0,0 l/m 10,3 km/h (2 Bft) SW 231 0 min 0,000 mm 0,0 UV-I 0 W/m 12,7 C 12,2 C 14,5 km/h (3 Bft) 100,00 %
13.06.2016 05:11 14,3 C 90 % 1005,3 hPa 0,0 l/m 12,1 km/h (2 Bft) W-SW 241 0 min 0,000 mm 0,0 UV-I 0 W/m 12,7 C 11,4 C 17,7 km/h (3 Bft) 100,00 %
13.06.2016 05:12 14,3 C 90 % 1005,3 hPa 0,0 l/m 9,2 km/h (2 Bft) S-SW 212 0 min 0,000 mm 0,0 UV-I 4 W/m 12,7 C 12,7 C 12,9 km/h (3 Bft) 95,83 %
13.06.2016 05:13 14,3 C 90 % 1005,3 hPa 0,0 l/m 9,7 km/h (2 Bft) SW 228 0 min 0,000 mm 0,0 UV-I 5 W/m 12,7 C 12,5 C 14,5 km/h (3 Bft) 100,00 %
13.06.2016 05:14 14,3 C 90 % 1005,4 hPa 0,0 l/m 9,0 km/h (2 Bft) SW 230 0 min 0,000 mm 0,0 UV-I 5 W/m 12,7 C 12,8 C 11,3 km/h (2 Bft) 96,30 %
13.06.2016 05:15 14,3 C 90 % 1005,4 hPa 0,0 l/m 9,0 km/h (2 Bft) SW 227 0 min 0,000 mm 0,0 UV-I 5 W/m 12,7 C 12,8 C 12,9 km/h (3 Bft) 100,00 %
13.06.2016 05:16 14,3 C 90 % 1005,4 hPa 0,0 l/m 8,9 km/h (2 Bft) SW 233 0 min 0,000 mm 0,0 UV-I 7 W/m 12,7 C 12,9 C 12,9 km/h (3 Bft) 86,67 %
13.06.2016 05:17 14,3 C 90 % 1005,4 hPa 0,0 l/m 10,3 km/h (2 Bft) SW 235 0 min 0,000 mm 0,0 UV-I 7 W/m 12,7 C 12,2 C 16,1 km/h (3 Bft) 100,00 %
13.06.2016 05:18 14,3 C 90 % 1005,4 hPa 0,0 l/m 9,6 km/h (2 Bft) S-SW 211 0 min 0,000 mm 0,0 UV-I 8 W/m 12,7 C 12,5 C 11,3 km/h (2 Bft) 96,15 %
13.06.2016 05:19 14,3 C 90 % 1005,4 hPa 0,0 l/m 8,7 km/h (2 Bft) SW 230 0 min 0,000 mm 0,0 UV-I 9 W/m 12,7 C 13,0 C 11,3 km/h (2 Bft) 96,15 %
13.06.2016 05:20 14,3 C 90 % 1005,4 hPa 0,0 l/m 8,8 km/h (2 Bft) SW 233 0 min 0,000 mm 0,0 UV-I 11 W/m 12,7 C 12,9 C 11,3 km/h (2 Bft) 100,00 %
13.06.2016 05:21 14,3 C 90 % 1005,4 hPa 0,0 l/m 8,6 km/h (2 Bft) SW 227 0 min 0,000 mm 0,0 UV-I 11 W/m 12,7 C 13,0 C 11,3 km/h (2 Bft) 100,00 %
13.06.2016 05:22 14,3 C 90 % 1005,4 hPa 0,0 l/m 8,7 km/h (2 Bft) SW 235 0 min 0,000 mm 0,0 UV-I 11 W/m 12,7 C 13,0 C 11,3 km/h (2 Bft) 96,15 %
13.06.2016 05:23 14,3 C 90 % 1005,4 hPa 0,0 l/m 9,3 km/h (2 Bft) W-SW 244 0 min 0,000 mm 0,0 UV-I 12 W/m 12,7 C 12,7 C 12,9 km/h (3 Bft) 96,67 %
13.06.2016 05:24 14,3 C 90 % 1005,4 hPa 0,0 l/m 7,5 km/h (2 Bft) W-SW 245 0 min 0,000 mm 0,0 UV-I 12 W/m 12,7 C 13,7 C 11,3 km/h (2 Bft) 100,00 %
13.06.2016 05:25 14,3 C 90 % 1005,4 hPa 0,0 l/m 9,0 km/h (2 Bft) SW 225 0 min 0,000 mm 0,0 UV-I 12 W/m 12,7 C 12,8 C 14,5 km/h (3 Bft) 95,83 %
13.06.2016 05:26 14,3 C 90 % 1005,4 hPa 0,0 l/m 8,7 km/h (2 Bft) SW 223 0 min 0,000 mm 0,0 UV-I 15 W/m 12,7 C 13,0 C 11,3 km/h (2 Bft) 92,86 %
13.06.2016 05:27 14,3 C 90 % 1005,4 hPa 0,0 l/m 9,5 km/h (2 Bft) SW 221 0 min 0,000 mm 0,0 UV-I 16 W/m 12,7 C 12,6 C 12,9 km/h (3 Bft) 96,67 %
13.06.2016 05:28 14,3 C 90 % 1005,4 hPa 0,0 l/m 8,6 km/h (2 Bft) SW 232 0 min 0,000 mm 0,0 UV-I 16 W/m 12,7 C 13,0 C 11,3 km/h (2 Bft) 96,15 %
13.06.2016 05:29 14,3 C 90 % 1005,4 hPa 0,0 l/m 9,7 km/h (2 Bft) W-SW 254 0 min 0,000 mm 0,0 UV-I 17 W/m 12,7 C 12,5 C 14,5 km/h (3 Bft) 100,00 %
13.06.2016 05:30 14,3 C 90 % 1005,4 hPa 0,0 l/m 8,4 km/h (2 Bft) S-SW 207 0 min 0,000 mm 0,0 UV-I 18 W/m 12,7 C 13,1 C 11,3 km/h (2 Bft) 95,65 %
13.06.2016 05:31 14,3 C 90 % 1005,4 hPa 0,0 l/m 9,6 km/h (2 Bft) W-SW 241 0 min 0,000 mm 0,0 UV-I 18 W/m 12,7 C 12,5 C 12,9 km/h (3 Bft) 93,33 %
13.06.2016 05:32 14,3 C 90 % 1005,4 hPa 0,0 l/m 7,6 km/h (2 Bft) W-SW 240 0 min 0,000 mm 0,0 UV-I 19 W/m 12,7 C 13,6 C 11,3 km/h (2 Bft) 91,30 %
13.06.2016 05:33 14,3 C 90 % 1005,4 hPa 0,0 l/m 7,4 km/h (2 Bft) SW 232 0 min 0,000 mm 0,0 UV-I 21 W/m 12,7 C 13,7 C 9,7 km/h (2 Bft) 100,00 %
13.06.2016 05:34 14,2 C 90 % 1005,4 hPa 0,0 l/m 7,0 km/h (2 Bft) W-SW 244 0 min 0,000 mm 0,0 UV-I 23 W/m 12,6 C 13,8 C 11,3 km/h (2 Bft) 96,55 %
13.06.2016 05:35 14,3 C 90 % 1005,4 hPa 0,0 l/m 6,6 km/h (2 Bft) W-SW 252 0 min 0,000 mm 0,0 UV-I 23 W/m 12,7 C 14,2 C 9,7 km/h (2 Bft) 100,00 %
13.06.2016 05:36 14,2 C 90 % 1005,4 hPa 0,0 l/m 9,1 km/h (2 Bft) W-SW 258 0 min 0,000 mm 0,0 UV-I 24 W/m 12,6 C 12,7 C 12,9 km/h (3 Bft) 96,88 %
13.06.2016 05:37 14,2 C 90 % 1005,4 hPa 0,0 l/m 11,1 km/h (2 Bft) SW 234 0 min 0,000 mm 0,0 UV-I 26 W/m 12,6 C 11,7 C 16,1 km/h (3 Bft) 95,83 %
13.06.2016 05:38 14,2 C 90 % 1005,3 hPa 0,0 l/m 10,7 km/h (2 Bft) S-SW 197 0 min 0,000 mm 0,0 UV-I 28 W/m 12,6 C 11,9 C 16,1 km/h (3 Bft) 95,65 %
13.06.2016 05:39 14,2 C 90 % 1005,3 hPa 0,0 l/m 11,2 km/h (2 Bft) W-SW 238 0 min 0,000 mm 0,0 UV-I 30 W/m 12,6 C 11,7 C 14,5 km/h (3 Bft) 91,67 %
13.06.2016 05:40 14,2 C 90 % 1005,3 hPa 0,0 l/m 10,0 km/h (2 Bft) W-SW 244 0 min 0,000 mm 0,0 UV-I 31 W/m 12,6 C 12,2 C 14,5 km/h (3 Bft) 100,00 %
13.06.2016 05:41 14,2 C 90 % 1005,4 hPa 0,0 l/m 10,9 km/h (2 Bft) W 263 0 min 0,000 mm 0,0 UV-I 32 W/m 12,6 C 11,8 C 14,5 km/h (3 Bft) 94,12 %
13.06.2016 05:42 14,2 C 90 % 1005,3 hPa 0,0 l/m 11,8 km/h (2 Bft) W 267 0 min 0,000 mm 0,0 UV-I 32 W/m 12,6 C 11,4 C 16,1 km/h (3 Bft) 100,00 %
13.06.2016 05:43 14,2 C 90 % 1005,2 hPa 0,0 l/m 12,7 km/h (3 Bft) W-SW 239 0 min 0,000 mm 0,0 UV-I 33 W/m 12,6 C 11,1 C 16,1 km/h (3 Bft) 96,15 %
13.06.2016 05:44 14,2 C 90 % 1005,3 hPa 0,0 l/m 10,1 km/h (2 Bft) SW 236 0 min 0,000 mm 0,0 UV-I 33 W/m 12,6 C 12,2 C 14,5 km/h (3 Bft) 100,00 %
13.06.2016 05:45 14,2 C 90 % 1005,3 hPa 0,0 l/m 10,7 km/h (2 Bft) W-SW 255 0 min 0,000 mm 0,0 UV-I 36 W/m 12,6 C 11,9 C 14,5 km/h (3 Bft) 93,10 %
13.06.2016 05:46 14,2 C 90 % 1005,3 hPa 0,0 l/m 14,2 km/h (3 Bft) W-SW 238 0 min 0,000 mm 0,0 UV-I 37 W/m 12,6 C 10,5 C 17,7 km/h (3 Bft) 100,00 %
13.06.2016 05:47 14,2 C 90 % 1005,3 hPa 0,0 l/m 12,6 km/h (3 Bft) W 267 0 min 0,000 mm 0,0 UV-I 39 W/m 12,6 C 11,1 C 14,5 km/h (3 Bft) 100,00 %
13.06.2016 05:48 14,2 C 90 % 1005,3 hPa 0,0 l/m 10,5 km/h (2 Bft) W-SW 253 0 min 0,000 mm 0,0 UV-I 40 W/m 12,6 C 12,0 C 16,1 km/h (3 Bft) 96,30 %
13.06.2016 05:49 14,2 C 90 % 1005,3 hPa 0,0 l/m 13,8 km/h (3 Bft) W-SW 244 0 min 0,000 mm 0,0 UV-I 40 W/m 12,6 C 10,6 C 17,7 km/h (3 Bft) 100,00 %
13.06.2016 05:50 14,3 C 90 % 1005,3 hPa 0,0 l/m 14,3 km/h (3 Bft) SW 236 0 min 0,000 mm 0,0 UV-I 42 W/m 12,7 C 10,6 C 19,3 km/h (3 Bft) 100,00 %
13.06.2016 05:51 14,3 C 90 % 1005,3 hPa 0,0 l/m 8,9 km/h (2 Bft) W-SW 250 0 min 0,000 mm 0,0 UV-I 43 W/m 12,7 C 12,9 C 12,9 km/h (3 Bft) 100,00 %
13.06.2016 05:52 14,3 C 90 % 1005,3 hPa 0,0 l/m 8,5 km/h (2 Bft) W-SW 238 0 min 0,000 mm 0,0 UV-I 43 W/m 12,7 C 13,1 C 11,3 km/h (2 Bft) 100,00 %
13.06.2016 05:53 14,3 C 90 % 1005,3 hPa 0,0 l/m 13,0 km/h (3 Bft) W 259 0 min 0,000 mm 0,0 UV-I 41 W/m 12,7 C 11,1 C 17,7 km/h (3 Bft) 100,00 %
13.06.2016 05:54 14,3 C 90 % 1005,4 hPa 0,0 l/m 11,4 km/h (2 Bft) W-SW 244 0 min 0,000 mm 0,0 UV-I 40 W/m 12,7 C 11,7 C 16,1 km/h (3 Bft) 96,15 %
13.06.2016 05:55 14,3 C 90 % 1005,3 hPa 0,0 l/m 11,1 km/h (2 Bft) W 259 0 min 0,000 mm 0,0 UV-I 39 W/m 12,7 C 11,8 C 14,5 km/h (3 Bft) 96,15 %
13.06.2016 05:56 14,3 C 90 % 1005,4 hPa 0,0 l/m 13,1 km/h (3 Bft) SW 236 0 min 0,000 mm 0,0 UV-I 38 W/m 12,7 C 11,0 C 16,1 km/h (3 Bft) 100,00 %
13.06.2016 05:57 14,3 C 90 % 1005,4 hPa 0,0 l/m 11,1 km/h (2 Bft) SW 225 0 min 0,000 mm 0,0 UV-I 37 W/m 12,7 C 11,8 C 16,1 km/h (3 Bft) 96,15 %
13.06.2016 05:58 14,3 C 90 % 1005,4 hPa 0,0 l/m 9,2 km/h (2 Bft) W 261 0 min 0,000 mm 0,0 UV-I 37 W/m 12,7 C 12,7 C 11,3 km/h (2 Bft) 100,00 %
13.06.2016 05:59 14,3 C 90 % 1005,4 hPa 0,0 l/m 10,9 km/h (2 Bft) W-SW 241 0 min 0,000 mm 0,0 UV-I 37 W/m 12,7 C 11,9 C 16,1 km/h (3 Bft) 98,62 %
13.06.2016 06:00 14,3 C 90 % 1005,4 hPa 0,0 l/m 8,6 km/h (2 Bft) W-SW 246 0 min 0,026 mm 0,0 UV-I 39 W/m 12,7 C 13,0 C 11,3 km/h (2 Bft) 100,00 %
13.06.2016 06:01 14,3 C 90 % 1005,4 hPa 0,0 l/m 12,5 km/h (3 Bft) S-SW 207 0 min 0,000 mm 0,0 UV-I 40 W/m 12,7 C 11,3 C 17,7 km/h (3 Bft) 100,00 %
13.06.2016 06:02 14,3 C 91 % 1005,4 hPa 0,0 l/m 9,5 km/h (2 Bft) W-SW 240 0 min 0,000 mm 0,0 UV-I 44 W/m 12,8 C 12,6 C 14,5 km/h (3 Bft) 100,00 %
13.06.2016 06:03 14,3 C 91 % 1005,4 hPa 0,0 l/m 11,3 km/h (2 Bft) W-SW 246 0 min 0,000 mm 0,0 UV-I 46 W/m 12,8 C 11,8 C 17,7 km/h (3 Bft) 96,30 %
13.06.2016 06:04 14,3 C 91 % 1005,4 hPa 0,0 l/m 11,1 km/h (2 Bft) W-SW 240 0 min 0,000 mm 0,0 UV-I 47 W/m 12,8 C 11,8 C 14,5 km/h (3 Bft) 100,00 %
13.06.2016 06:05 14,3 C 90 % 1005,4 hPa 0,0 l/m 13,9 km/h (3 Bft) SW 223 0 min 0,000 mm 0,0 UV-I 46 W/m 12,7 C 10,7 C 22,5 km/h (4 Bft) 100,00 %
13.06.2016 06:06 14,3 C 90 % 1005,4 hPa 0,0 l/m 13,3 km/h (3 Bft) W-SW 244 0 min 0,000 mm 0,0 UV-I 46 W/m 12,7 C 11,0 C 16,1 km/h (3 Bft) 92,86 %
13.06.2016 06:07 14,4 C 90 % 1005,3 hPa 0,0 l/m 12,9 km/h (3 Bft) W 262 0 min 0,000 mm 0,0 UV-I 46 W/m 12,8 C 11,2 C 16,1 km/h (3 Bft) 100,00 %
13.06.2016 06:08 14,4 C 90 % 1005,4 hPa 0,0 l/m 12,0 km/h (2 Bft) W-SW 251 0 min 0,000 mm 0,0 UV-I 46 W/m 12,8 C 11,6 C 19,3 km/h (3 Bft) 100,00 %
13.06.2016 06:09 14,4 C 90 % 1005,4 hPa 0,0 l/m 10,9 km/h (2 Bft) SW 224 0 min 0,000 mm 0,0 UV-I 47 W/m 12,8 C 12,0 C 16,1 km/h (3 Bft) 100,00 %
13.06.2016 06:10 14,4 C 90 % 1005,4 hPa 0,0 l/m 15,6 km/h (3 Bft) W-SW 250 0 min 0,000 mm 0,0 UV-I 48 W/m 12,8 C 10,3 C 19,3 km/h (3 Bft) 100,00 %
13.06.2016 06:11 14,4 C 90 % 1005,4 hPa 0,0 l/m 11,9 km/h (2 Bft) SW 232 0 min 0,000 mm 0,0 UV-I 49 W/m 12,8 C 11,6 C 16,1 km/h (3 Bft) 100,00 %
13.06.2016 06:12 14,4 C 90 % 1005,3 hPa 0,0 l/m 12,3 km/h (3 Bft) W 263 0 min 0,000 mm 0,0 UV-I 49 W/m 12,8 C 11,5 C 16,1 km/h (3 Bft) 100,00 %
13.06.2016 06:13 14,4 C 90 % 1005,3 hPa 0,0 l/m 12,8 km/h (3 Bft) W 263 0 min 0,000 mm 0,0 UV-I 51 W/m 12,8 C 11,3 C 19,3 km/h (3 Bft) 100,00 %
13.06.2016 06:14 14,4 C 90 % 1005,3 hPa 0,0 l/m 10,9 km/h (2 Bft) W-SW 256 0 min 0,000 mm 0,0 UV-I 50 W/m 12,8 C 12,0 C 16,1 km/h (3 Bft) 96,15 %
13.06.2016 06:15 14,4 C 90 % 1005,3 hPa 0,0 l/m 16,7 km/h (3 Bft) SW 236 0 min 0,000 mm 0,0 UV-I 49 W/m 12,8 C 9,9 C 20,9 km/h (4 Bft) 100,00 %
13.06.2016 06:16 14,4 C 90 % 1005,3 hPa 0,0 l/m 14,3 km/h (3 Bft) W-SW 240 0 min 0,000 mm 0,0 UV-I 48 W/m 12,8 C 10,7 C 20,9 km/h (4 Bft) 100,00 %
13.06.2016 06:17 14,5 C 90 % 1005,3 hPa 0,0 l/m 13,7 km/h (3 Bft) W-SW 241 0 min 0,000 mm 0,0 UV-I 47 W/m 12,9 C 11,0 C 19,3 km/h (3 Bft) 100,00 %
13.06.2016 06:18 14,5 C 90 % 1005,3 hPa 0,0 l/m 14,2 km/h (3 Bft) W-SW 247 0 min 0,000 mm 0,0 UV-I 46 W/m 12,9 C 10,9 C 19,3 km/h (3 Bft) 100,00 %
13.06.2016 06:19 14,5 C 90 % 1005,3 hPa 0,0 l/m 13,5 km/h (3 Bft) W 267 0 min 0,000 mm 0,0 UV-I 46 W/m 12,9 C 11,1 C 17,7 km/h (3 Bft) 100,00 %
13.06.2016 06:20 14,5 C 90 % 1005,3 hPa 0,0 l/m 13,4 km/h (3 Bft) W-SW 239 0 min 0,000 mm 0,0 UV-I 45 W/m 12,9 C 11,2 C 17,7 km/h (3 Bft) 100,00 %
13.06.2016 06:21 14,5 C 90 % 1005,3 hPa 0,0 l/m 13,3 km/h (3 Bft) W-SW 239 0 min 0,000 mm 0,0 UV-I 46 W/m 12,9 C 11,2 C 20,9 km/h (4 Bft) 100,00 %
13.06.2016 06:22 14,6 C 90 % 1005,3 hPa 0,0 l/m 15,7 km/h (3 Bft) SW 224 0 min 0,000 mm 0,0 UV-I 46 W/m 13,0 C 10,5 C 24,1 km/h (4 Bft) 100,00 %
13.06.2016 06:23 14,6 C 90 % 1005,3 hPa 0,0 l/m 10,9 km/h (2 Bft) W-SW 255 0 min 0,000 mm 0,0 UV-I 47 W/m 13,0 C 12,3 C 19,3 km/h (3 Bft) 100,00 %
13.06.2016 06:24 14,6 C 90 % 1005,3 hPa 0,0 l/m 8,9 km/h (2 Bft) SW 236 0 min 0,000 mm 0,0 UV-I 47 W/m 13,0 C 13,2 C 14,5 km/h (3 Bft) 100,00 %
13.06.2016 06:25 14,6 C 90 % 1005,3 hPa 0,0 l/m 9,8 km/h (2 Bft) SW 228 0 min 0,000 mm 0,0 UV-I 47 W/m 13,0 C 12,8 C 14,5 km/h (3 Bft) 100,00 %
13.06.2016 06:26 14,6 C 90 % 1005,3 hPa 0,0 l/m 9,7 km/h (2 Bft) S-SW 210 0 min 0,000 mm 0,0 UV-I 47 W/m 13,0 C 12,8 C 14,5 km/h (3 Bft) 95,83 %
13.06.2016 06:27 14,6 C 90 % 1005,3 hPa 0,0 l/m 12,7 km/h (3 Bft) SW 230 0 min 0,000 mm 0,0 UV-I 45 W/m 13,0 C 11,5 C 16,1 km/h (3 Bft) 96,55 %
13.06.2016 06:28 14,6 C 90 % 1005,3 hPa 0,0 l/m 9,9 km/h (2 Bft) SW 222 0 min 0,000 mm 0,0 UV-I 44 W/m 13,0 C 12,7 C 12,9 km/h (3 Bft) 100,00 %
13.06.2016 06:29 14,6 C 90 % 1005,3 hPa 0,0 l/m 11,4 km/h (2 Bft) W-SW 246 0 min 0,000 mm 0,0 UV-I 44 W/m 13,0 C 12,1 C 14,5 km/h (3 Bft) 98,76 %
13.06.2016 06:30 14,6 C 90 % 1005,2 hPa 0,0 l/m 9,7 km/h (2 Bft) W-SW 245 0 min 0,000 mm 0,0 UV-I 48 W/m 13,0 C 12,8 C 12,9 km/h (3 Bft) 100,00 %
13.06.2016 06:31 14,6 C 90 % 1005,3 hPa 0,0 l/m 12,1 km/h (2 Bft) W-SW 241 0 min 0,000 mm 0,0 UV-I 52 W/m 13,0 C 11,8 C 16,1 km/h (3 Bft) 100,00 %
13.06.2016 06:32 14,6 C 90 % 1005,2 hPa 0,0 l/m 8,9 km/h (2 Bft) W-SW 242 0 min 0,000 mm 0,0 UV-I 55 W/m 13,0 C 13,2 C 11,3 km/h (2 Bft) 100,00 %
13.06.2016 06:33 14,6 C 90 % 1005,2 hPa 0,0 l/m 12,6 km/h (3 Bft) SW 236 0 min 0,000 mm 0,0 UV-I 59 W/m 13,0 C 11,6 C 17,7 km/h (3 Bft) 100,00 %
13.06.2016 06:34 14,6 C 90 % 1005,2 hPa 0,0 l/m 12,2 km/h (2 Bft) SW 233 0 min 0,000 mm 0,0 UV-I 61 W/m 13,0 C 11,7 C 17,7 km/h (3 Bft) 100,00 %
13.06.2016 06:35 14,6 C 90 % 1005,2 hPa 0,0 l/m 10,0 km/h (2 Bft) W-SW 245 0 min 0,000 mm 0,0 UV-I 63 W/m 13,0 C 12,7 C 14,5 km/h (3 Bft) 100,00 %
13.06.2016 06:36 14,6 C 90 % 1005,2 hPa 0,0 l/m 14,0 km/h (3 Bft) SW 234 0 min 0,000 mm 0,0 UV-I 63 W/m 13,0 C 11,1 C 19,3 km/h (3 Bft) 100,00 %
13.06.2016 06:37 14,6 C 90 % 1005,2 hPa 0,0 l/m 12,3 km/h (3 Bft) SW 215 0 min 0,000 mm 0,0 UV-I 65 W/m 13,0 C 11,7 C 19,3 km/h (3 Bft) 95,65 %
13.06.2016 06:38 14,7 C 90 % 1005,3 hPa 0,0 l/m 12,8 km/h (3 Bft) SW 223 0 min 0,000 mm 0,0 UV-I 65 W/m 13,1 C 11,6 C 17,7 km/h (3 Bft) 100,00 %
13.06.2016 06:39 14,7 C 90 % 1005,3 hPa 0,0 l/m 11,0 km/h (2 Bft) SW 234 0 min 0,000 mm 0,0 UV-I 65 W/m 13,1 C 12,3 C 16,1 km/h (3 Bft) 100,00 %
13.06.2016 06:40 14,7 C 90 % 1005,3 hPa 0,0 l/m 11,3 km/h (2 Bft) W-SW 238 0 min 0,000 mm 0,0 UV-I 63 W/m 13,1 C 12,2 C 16,1 km/h (3 Bft) 100,00 %
13.06.2016 06:41 14,7 C 90 % 1005,3 hPa 0,0 l/m 11,7 km/h (2 Bft) W-SW 243 0 min 0,000 mm 0,0 UV-I 60 W/m 13,1 C 12,0 C 14,5 km/h (3 Bft) 100,00 %
13.06.2016 06:42 14,7 C 90 % 1005,3 hPa 0,0 l/m 14,4 km/h (3 Bft) SW 234 0 min 0,000 mm 0,0 UV-I 56 W/m 13,1 C 11,0 C 19,3 km/h (3 Bft) 95,65 %
13.06.2016 06:43 14,7 C 90 % 1005,2 hPa 0,0 l/m 9,6 km/h (2 Bft) W-SW 249 0 min 0,000 mm 0,0 UV-I 54 W/m 13,1 C 13,0 C 14,5 km/h (3 Bft) 100,00 %
13.06.2016 06:44 14,7 C 90 % 1005,3 hPa 0,0 l/m 10,7 km/h (2 Bft) W-SW 252 0 min 0,000 mm 0,0 UV-I 55 W/m 13,1 C 12,5 C 16,1 km/h (3 Bft) 95,65 %
13.06.2016 06:45 14,7 C 90 % 1005,3 hPa 0,0 l/m 15,7 km/h (3 Bft) W-SW 245 0 min 0,000 mm 0,0 UV-I 57 W/m 13,1 C 10,6 C 20,9 km/h (4 Bft) 100,00 %
13.06.2016 06:46 14,7 C 90 % 1005,2 hPa 0,0 l/m 10,7 km/h (2 Bft) S-SW 213 0 min 0,000 mm 0,0 UV-I 56 W/m 13,1 C 12,5 C 14,5 km/h (3 Bft) 100,00 %
13.06.2016 06:47 14,7 C 90 % 1005,2 hPa 0,0 l/m 11,1 km/h (2 Bft) SW 216 0 min 0,000 mm 0,0 UV-I 53 W/m 13,1 C 12,3 C 14,5 km/h (3 Bft) 100,00 %
13.06.2016 06:48 14,7 C 90 % 1005,2 hPa 0,0 l/m 10,4 km/h (2 Bft) SW 236 0 min 0,000 mm 0,0 UV-I 47 W/m 13,1 C 12,6 C 12,9 km/h (3 Bft) 100,00 %
13.06.2016 06:49 14,7 C 90 % 1005,2 hPa 0,0 l/m 12,0 km/h (2 Bft) W-SW 242 0 min 0,000 mm 0,0 UV-I 44 W/m 13,1 C 11,9 C 16,1 km/h (3 Bft) 100,00 %
13.06.2016 06:50 14,7 C 90 % 1005,3 hPa 0,0 l/m 12,3 km/h (3 Bft) SW 219 0 min 0,000 mm 0,0 UV-I 45 W/m 13,1 C 11,8 C 17,7 km/h (3 Bft) 96,15 %
13.06.2016 06:51 14,7 C 89 % 1005,2 hPa 0,0 l/m 11,4 km/h (2 Bft) SW 228 0 min 0,000 mm 0,0 UV-I 45 W/m 12,9 C 12,2 C 19,3 km/h (3 Bft) 100,00 %
13.06.2016 06:52 14,7 C 89 % 1005,2 hPa 0,0 l/m 13,2 km/h (3 Bft) SW 229 0 min 0,000 mm 0,0 UV-I 48 W/m 12,9 C 11,5 C 17,7 km/h (3 Bft) 100,00 %
13.06.2016 06:53 14,8 C 89 % 1005,2 hPa 0,0 l/m 11,1 km/h (2 Bft) SW 217 0 min 0,000 mm 0,0 UV-I 62 W/m 13,0 C 12,4 C 14,5 km/h (3 Bft) 100,00 %
13.06.2016 06:54 14,8 C 89 % 1005,2 hPa 0,0 l/m 10,1 km/h (2 Bft) SW 224 0 min 0,000 mm 0,0 UV-I 74 W/m 13,0 C 12,9 C 12,9 km/h (3 Bft) 100,00 %
13.06.2016 06:55 14,8 C 89 % 1005,2 hPa 0,0 l/m 14,2 km/h (3 Bft) SW 225 0 min 0,000 mm 0,0 UV-I 74 W/m 13,0 C 11,2 C 20,9 km/h (4 Bft) 100,00 %
13.06.2016 06:56 14,8 C 89 % 1005,3 hPa 0,0 l/m 12,9 km/h (3 Bft) W-SW 241 0 min 0,000 mm 0,0 UV-I 72 W/m 13,0 C 11,7 C 16,1 km/h (3 Bft) 96,55 %
13.06.2016 06:57 14,8 C 90 % 1005,3 hPa 0,0 l/m 12,0 km/h (2 Bft) SW 234 0 min 0,000 mm 0,0 UV-I 74 W/m 13,2 C 12,0 C 19,3 km/h (3 Bft) 100,00 %
13.06.2016 06:58 14,8 C 90 % 1005,2 hPa 0,0 l/m 8,8 km/h (2 Bft) W-SW 244 0 min 0,000 mm 0,0 UV-I 76 W/m 13,2 C 13,5 C 12,9 km/h (3 Bft) 100,00 %
13.06.2016 06:59 14,8 C 90 % 1005,2 hPa 0,0 l/m 9,4 km/h (2 Bft) SW 217 0 min 0,000 mm 0,0 UV-I 76 W/m 13,2 C 13,2 C 14,5 km/h (3 Bft) 100,00 %
13.06.2016 07:00 14,8 C 90 % 1005,2 hPa 0,0 l/m 14,2 km/h (3 Bft) W-SW 238 0 min 0,050 mm 0,0 UV-I 78 W/m 13,2 C 11,2 C 17,7 km/h (3 Bft) 100,00 %
13.06.2016 07:02 14,8 C 90 % 1005,2 hPa 0,0 l/m 12,0 km/h (2 Bft) SW 233 0 min 0,000 mm 0,0 UV-I 82 W/m 13,2 C 12,0 C 16,1 km/h (3 Bft) 100,00 %
13.06.2016 07:03 14,8 C 90 % 1005,1 hPa 0,0 l/m 12,6 km/h (3 Bft) W-SW 247 0 min 0,000 mm 0,0 UV-I 81 W/m 13,2 C 11,8 C 20,9 km/h (4 Bft) 100,00 %
13.06.2016 07:04 14,8 C 90 % 1005,2 hPa 0,0 l/m 15,5 km/h (3 Bft) W-SW 240 0 min 0,000 mm 0,0 UV-I 79 W/m 13,2 C 10,8 C 20,9 km/h (4 Bft) 100,00 %
13.06.2016 07:05 14,8 C 90 % 1005,2 hPa 0,0 l/m 12,2 km/h (2 Bft) SW 225 0 min 0,000 mm 0,0 UV-I 73 W/m 13,2 C 12,0 C 14,5 km/h (3 Bft) 100,00 %
13.06.2016 07:06 14,8 C 90 % 1005,2 hPa 0,0 l/m 11,3 km/h (2 Bft) SW 234 0 min 0,000 mm 0,0 UV-I 72 W/m 13,2 C 12,3 C 16,1 km/h (3 Bft) 100,00 %
13.06.2016 07:07 14,8 C 90 % 1005,2 hPa 0,0 l/m 9,3 km/h (2 Bft) S-SW 208 0 min 0,000 mm 0,0 UV-I 79 W/m 13,2 C 13,2 C 12,9 km/h (3 Bft) 100,00 %
13.06.2016 07:08 14,8 C 90 % 1005,1 hPa 0,0 l/m 8,3 km/h (2 Bft) W-SW 252 0 min 0,000 mm 0,0 UV-I 83 W/m 13,2 C 13,7 C 11,3 km/h (2 Bft) 100,00 %
13.06.2016 07:09 14,8 C 90 % 1005,1 hPa 0,0 l/m 8,0 km/h (2 Bft) SW 236 0 min 0,000 mm 0,0 UV-I 76 W/m 13,2 C 13,9 C 11,3 km/h (2 Bft) 100,00 %
13.06.2016 07:10 14,8 C 90 % 1005,1 hPa 0,0 l/m 9,1 km/h (2 Bft) W-SW 239 0 min 0,000 mm 0,0 UV-I 66 W/m 13,2 C 13,3 C 12,9 km/h (3 Bft) 96,30 %
13.06.2016 07:11 14,8 C 90 % 1005,1 hPa 0,0 l/m 9,2 km/h (2 Bft) SW 230 0 min 0,000 mm 0,0 UV-I 62 W/m 13,2 C 13,3 C 12,9 km/h (3 Bft) 100,00 %
13.06.2016 07:12 14,8 C 90 % 1005,2 hPa 0,0 l/m 9,8 km/h (2 Bft) S 178 0 min 0,000 mm 0,0 UV-I 63 W/m 13,2 C 13,0 C 14,5 km/h (3 Bft) 100,00 %
13.06.2016 07:13 14,8 C 90 % 1005,2 hPa 0,0 l/m 9,4 km/h (2 Bft) W-SW 239 0 min 0,000 mm 0,0 UV-I 71 W/m 13,2 C 13,2 C 17,7 km/h (3 Bft) 96,15 %
13.06.2016 07:14 14,8 C 90 % 1005,1 hPa 0,0 l/m 9,7 km/h (2 Bft) SW 229 0 min 0,000 mm 0,0 UV-I 82 W/m 13,2 C 13,0 C 16,1 km/h (3 Bft) 96,30 %
13.06.2016 07:15 14,8 C 90 % 1005,1 hPa 0,0 l/m 9,0 km/h (2 Bft) W-SW 243 0 min 0,000 mm 0,0 UV-I 88 W/m 13,2 C 13,4 C 14,5 km/h (3 Bft) 100,00 %
13.06.2016 07:16 14,8 C 90 % 1005,1 hPa 0,0 l/m 9,9 km/h (2 Bft) S 191 0 min 0,000 mm 0,0 UV-I 88 W/m 13,2 C 12,9 C 14,5 km/h (3 Bft) 95,65 %
13.06.2016 07:17 14,8 C 90 % 1005,1 hPa 0,0 l/m 7,4 km/h (2 Bft) W-SW 251 0 min 0,000 mm 0,0 UV-I 88 W/m 13,2 C 14,2 C 11,3 km/h (2 Bft) 100,00 %
13.06.2016 07:18 14,8 C 90 % 1005,2 hPa 0,0 l/m 7,8 km/h (2 Bft) SW 232 0 min 0,000 mm 0,0 UV-I 90 W/m 13,2 C 14,0 C 11,3 km/h (2 Bft) 96,55 %
13.06.2016 07:19 14,8 C 90 % 1005,2 hPa 0,0 l/m 9,1 km/h (2 Bft) S-SW 212 0 min 0,000 mm 0,0 UV-I 89 W/m 13,2 C 13,3 C 12,9 km/h (3 Bft) 95,65 %
13.06.2016 07:20 14,8 C 90 % 1005,2 hPa 0,0 l/m 11,5 km/h (2 Bft) SW 217 0 min 0,000 mm 0,0 UV-I 85 W/m 13,2 C 12,2 C 14,5 km/h (3 Bft) 100,00 %
13.06.2016 07:21 14,8 C 90 % 1005,1 hPa 0,0 l/m 11,1 km/h (2 Bft) W-SW 252 0 min 0,000 mm 0,0 UV-I 78 W/m 13,2 C 12,4 C 14,5 km/h (3 Bft) 95,83 %
13.06.2016 07:22 14,9 C 90 % 1005,1 hPa 0,0 l/m 13,4 km/h (3 Bft) SW 227 0 min 0,000 mm 0,0 UV-I 76 W/m 13,3 C 11,6 C 19,3 km/h (3 Bft) 100,00 %
13.06.2016 07:23 14,8 C 90 % 1005,1 hPa 0,0 l/m 13,3 km/h (3 Bft) W-SW 238 0 min 0,000 mm 0,0 UV-I 71 W/m 13,2 C 11,5 C 22,5 km/h (4 Bft) 95,83 %
13.06.2016 07:24 14,9 C 90 % 1005,1 hPa 0,0 l/m 13,6 km/h (3 Bft) SW 225 0 min 0,000 mm 0,0 UV-I 67 W/m 13,3 C 11,6 C 17,7 km/h (3 Bft) 100,00 %
13.06.2016 07:25 14,9 C 90 % 1005,1 hPa 0,0 l/m 10,3 km/h (2 Bft) SW 225 0 min 0,000 mm 0,0 UV-I 63 W/m 13,3 C 12,9 C 16,1 km/h (3 Bft) 96,30 %
13.06.2016 07:26 14,9 C 90 % 1005,1 hPa 0,0 l/m 7,2 km/h (2 Bft) SW 230 0 min 0,000 mm 0,0 UV-I 66 W/m 13,3 C 14,4 C 12,9 km/h (3 Bft) 100,00 %
13.06.2016 07:27 14,9 C 90 % 1005,1 hPa 0,0 l/m 9,6 km/h (2 Bft) W 263 0 min 0,000 mm 0,0 UV-I 69 W/m 13,3 C 13,2 C 14,5 km/h (3 Bft) 96,30 %
13.06.2016 07:28 14,9 C 90 % 1005,1 hPa 0,0 l/m 9,4 km/h (2 Bft) SW 229 0 min 0,000 mm 0,0 UV-I 72 W/m 13,3 C 13,3 C 17,7 km/h (3 Bft) 100,00 %
13.06.2016 07:29 14,9 C 90 % 1005,1 hPa 0,0 l/m 12,6 km/h (3 Bft) SW 234 0 min 0,000 mm 0,0 UV-I 75 W/m 13,3 C 11,9 C 19,3 km/h (3 Bft) 96,67 %
13.06.2016 07:30 14,9 C 90 % 1005,1 hPa 0,0 l/m 7,0 km/h (2 Bft) S-SW 213 0 min 0,000 mm 0,0 UV-I 77 W/m 13,3 C 14,6 C 9,7 km/h (2 Bft) 95,65 %
13.06.2016 07:31 14,9 C 90 % 1005,1 hPa 0,0 l/m 7,9 km/h (2 Bft) SW 217 0 min 0,000 mm 0,0 UV-I 76 W/m 13,3 C 14,1 C 12,9 km/h (3 Bft) 100,00 %
13.06.2016 07:32 14,9 C 90 % 1005,1 hPa 0,0 l/m 13,1 km/h (3 Bft) W-SW 237 0 min 0,000 mm 0,0 UV-I 76 W/m 13,3 C 11,7 C 17,7 km/h (3 Bft) 96,30 %
13.06.2016 07:33 14,9 C 90 % 1005,1 hPa 0,0 l/m 11,9 km/h (2 Bft) W-SW 252 0 min 0,000 mm 0,0 UV-I 80 W/m 13,3 C 12,2 C 14,5 km/h (3 Bft) 96,15 %
13.06.2016 07:34 14,9 C 90 % 1005,1 hPa 0,0 l/m 11,1 km/h (2 Bft) SW 215 0 min 0,000 mm 0,0 UV-I 93 W/m 13,3 C 12,5 C 16,1 km/h (3 Bft) 96,55 %
13.06.2016 07:35 14,9 C 90 % 1005,1 hPa 0,0 l/m 8,6 km/h (2 Bft) SW 227 0 min 0,000 mm 0,0 UV-I 110 W/m 13,3 C 13,7 C 12,9 km/h (3 Bft) 100,00 %
13.06.2016 07:36 14,9 C 90 % 1005,2 hPa 0,0 l/m 10,7 km/h (2 Bft) W-SW 243 0 min 0,000 mm 0,0 UV-I 126 W/m 13,3 C 12,7 C 17,7 km/h (3 Bft) 95,65 %
13.06.2016 07:37 14,9 C 90 % 1005,1 hPa 0,0 l/m 12,5 km/h (3 Bft) S-SW 212 0 min 0,000 mm 0,0 UV-I 133 W/m 13,3 C 12,0 C 17,7 km/h (3 Bft) 95,83 %
13.06.2016 07:38 14,9 C 90 % 1005,1 hPa 0,0 l/m 12,3 km/h (3 Bft) SW 231 0 min 0,000 mm 0,0 UV-I 127 W/m 13,3 C 12,0 C 16,1 km/h (3 Bft) 100,00 %
13.06.2016 07:39 14,9 C 90 % 1005,1 hPa 0,0 l/m 14,5 km/h (3 Bft) W-SW 238 0 min 0,000 mm 0,0 UV-I 118 W/m 13,3 C 11,2 C 22,5 km/h (4 Bft) 96,55 %
13.06.2016 07:40 15,0 C 90 % 1005,1 hPa 0,0 l/m 10,5 km/h (2 Bft) SW 217 0 min 0,000 mm 0,0 UV-I 122 W/m 13,4 C 12,9 C 16,1 km/h (3 Bft) 96,30 %
13.06.2016 07:41 15,0 C 90 % 1005,1 hPa 0,0 l/m 11,1 km/h (2 Bft) W-SW 257 0 min 0,000 mm 0,4 UV-I 138 W/m 13,4 C 12,6 C 16,1 km/h (3 Bft) 96,15 %
13.06.2016 07:42 15,1 C 90 % 1005,2 hPa 0,0 l/m 9,4 km/h (2 Bft) SW 227 0 min 0,000 mm 0,5 UV-I 148 W/m 13,5 C 13,5 C 14,5 km/h (3 Bft) 100,00 %
13.06.2016 07:43 15,1 C 90 % 1005,2 hPa 0,0 l/m 11,5 km/h (2 Bft) SW 226 0 min 0,000 mm 0,5 UV-I 144 W/m 13,5 C 12,6 C 14,5 km/h (3 Bft) 95,65 %
13.06.2016 07:44 15,1 C 90 % 1005,2 hPa 0,0 l/m 11,5 km/h (2 Bft) S-SO 163 0 min 0,000 mm 0,6 UV-I 133 W/m 13,5 C 12,6 C 17,7 km/h (3 Bft) 100,00 %
13.06.2016 07:45 15,1 C 90 % 1005,0 hPa 0,0 l/m 10,6 km/h (2 Bft) SW 220 0 min 0,000 mm 0,6 UV-I 132 W/m 13,5 C 13,0 C 14,5 km/h (3 Bft) 100,00 %
13.06.2016 07:46 15,1 C 89 % 1005,1 hPa 0,0 l/m 13,4 km/h (3 Bft) SW 233 0 min 0,000 mm 0,6 UV-I 139 W/m 13,3 C 11,9 C 20,9 km/h (4 Bft) 100,00 %
13.06.2016 07:47 15,1 C 89 % 1005,1 hPa 0,0 l/m 17,7 km/h (3 Bft) SW 227 0 min 0,000 mm 0,6 UV-I 154 W/m 13,3 C 10,5 C 22,5 km/h (4 Bft) 100,00 %
13.06.2016 07:48 15,2 C 89 % 1005,1 hPa 0,0 l/m 15,6 km/h (3 Bft) SW 225 0 min 0,000 mm 0,6 UV-I 173 W/m 13,4 C 11,2 C 19,3 km/h (3 Bft) 93,33 %
13.06.2016 07:49 15,2 C 89 % 1005,1 hPa 0,0 l/m 13,8 km/h (3 Bft) SW 215 0 min 0,000 mm 0,6 UV-I 190 W/m 13,4 C 11,8 C 17,7 km/h (3 Bft) 100,00 %
13.06.2016 07:50 15,2 C 89 % 1005,1 hPa 0,0 l/m 11,1 km/h (2 Bft) S 185 0 min 0,000 mm 0,6 UV-I 204 W/m 13,4 C 12,9 C 14,5 km/h (3 Bft) 95,83 %
13.06.2016 07:51 15,2 C 89 % 1005,0 hPa 0,0 l/m 16,6 km/h (3 Bft) W-SW 257 0 min 0,000 mm 0,6 UV-I 195 W/m 13,4 C 10,9 C 22,5 km/h (4 Bft) 100,00 %
13.06.2016 07:52 15,3 C 89 % 1005,0 hPa 0,0 l/m 11,0 km/h (2 Bft) SW 223 0 min 0,000 mm 0,5 UV-I 166 W/m 13,5 C 13,0 C 17,7 km/h (3 Bft) 100,00 %
13.06.2016 07:53 15,3 C 89 % 1005,0 hPa 0,0 l/m 13,1 km/h (3 Bft) S-SW 198 0 min 0,000 mm 0,6 UV-I 151 W/m 13,5 C 12,2 C 17,7 km/h (3 Bft) 100,00 %
13.06.2016 07:54 15,3 C 88 % 1005,0 hPa 0,0 l/m 14,0 km/h (3 Bft) SW 219 0 min 0,000 mm 0,6 UV-I 153 W/m 13,3 C 11,9 C 20,9 km/h (4 Bft) 100,00 %
13.06.2016 07:55 15,3 C 89 % 1005,0 hPa 0,0 l/m 13,3 km/h (3 Bft) W-SW 256 0 min 0,000 mm 0,6 UV-I 157 W/m 13,5 C 12,1 C 17,7 km/h (3 Bft) 96,30 %
13.06.2016 07:56 15,3 C 89 % 1005,0 hPa 0,0 l/m 9,8 km/h (2 Bft) W-SW 252 0 min 0,000 mm 0,6 UV-I 166 W/m 13,5 C 13,5 C 14,5 km/h (3 Bft) 95,65 %
13.06.2016 07:57 15,3 C 89 % 1005,1 hPa 0,0 l/m 8,5 km/h (2 Bft) S-SW 197 0 min 0,000 mm 0,6 UV-I 188 W/m 13,5 C 14,2 C 12,9 km/h (3 Bft) 100,00 %
13.06.2016 07:58 15,3 C 89 % 1005,1 hPa 0,0 l/m 16,9 km/h (3 Bft) W-SW 238 0 min 0,000 mm 0,6 UV-I 177 W/m 13,5 C 11,0 C 22,5 km/h (4 Bft) 100,00 %
13.06.2016 07:59 15,3 C 88 % 1005,1 hPa 0,0 l/m 10,4 km/h (2 Bft) SW 225 0 min 0,000 mm 0,6 UV-I 167 W/m 13,3 C 13,3 C 16,1 km/h (3 Bft) 100,00 %
13.06.2016 08:00 15,3 C 88 % 1005,0 hPa 0,0 l/m 14,6 km/h (3 Bft) SW 215 0 min 0,077 mm 0,6 UV-I 158 W/m 13,3 C 11,7 C 20,9 km/h (4 Bft) 100,00 %
13.06.2016 08:02 15,4 C 88 % 1005,0 hPa 0,0 l/m 11,5 km/h (2 Bft) SW 217 0 min 0,000 mm 0,7 UV-I 152 W/m 13,4 C 12,9 C 17,7 km/h (3 Bft) 100,00 %
13.06.2016 08:03 15,3 C 88 % 1005,0 hPa 0,0 l/m 13,3 km/h (3 Bft) W-SW 250 0 min 0,000 mm 0,7 UV-I 157 W/m 13,3 C 12,1 C 22,5 km/h (4 Bft) 100,00 %
13.06.2016 08:04 15,3 C 88 % 1005,0 hPa 0,0 l/m 18,0 km/h (3 Bft) SW 226 0 min 0,000 mm 0,7 UV-I 144 W/m 13,3 C 10,7 C 25,7 km/h (4 Bft) 95,65 %
13.06.2016 08:05 15,3 C 88 % 1005,0 hPa 0,0 l/m 13,6 km/h (3 Bft) S-SW 198 0 min 0,000 mm 0,8 UV-I 162 W/m 13,3 C 12,0 C 20,9 km/h (4 Bft) 98,70 %
13.06.2016 08:06 15,3 C 88 % 1005,0 hPa 0,0 l/m 9,8 km/h (2 Bft) SW 223 0 min 0,000 mm 0,8 UV-I 180 W/m 13,3 C 13,5 C 16,1 km/h (3 Bft) 97,56 %
13.06.2016 08:07 15,3 C 88 % 1005,0 hPa 0,0 l/m 12,9 km/h (3 Bft) SW 226 0 min 0,000 mm 0,8 UV-I 196 W/m 13,3 C 12,3 C 17,7 km/h (3 Bft) 100,00 %
13.06.2016 08:08 15,4 C 88 % 1005,0 hPa 0,0 l/m 14,3 km/h (3 Bft) SW 215 0 min 0,000 mm 0,9 UV-I 210 W/m 13,4 C 11,9 C 19,3 km/h (3 Bft) 100,00 %
13.06.2016 08:09 15,4 C 88 % 1005,0 hPa 0,0 l/m 17,6 km/h (3 Bft) SW 229 1 min 0,000 mm 0,9 UV-I 291 W/m 13,4 C 10,9 C 20,9 km/h (4 Bft) 100,00 %
13.06.2016 08:10 15,4 C 88 % 1005,0 hPa 0,0 l/m 11,7 km/h (2 Bft) SW 217 0 min 0,000 mm 0,9 UV-I 217 W/m 13,4 C 12,8 C 16,1 km/h (3 Bft) 98,71 %
13.06.2016 08:11 15,5 C 88 % 1005,0 hPa 0,0 l/m 16,7 km/h (3 Bft) SW 235 0 min 0,000 mm 0,9 UV-I 192 W/m 13,5 C 11,3 C 24,1 km/h (4 Bft) 100,00 %
13.06.2016 08:12 15,5 C 88 % 1004,9 hPa 0,0 l/m 17,2 km/h (3 Bft) W-SW 247 0 min 0,000 mm 0,8 UV-I 175 W/m 13,5 C 11,1 C 22,5 km/h (4 Bft) 100,00 %
13.06.2016 08:13 15,5 C 87 % 1005,0 hPa 0,0 l/m 15,5 km/h (3 Bft) S-SW 205 0 min 0,000 mm 0,9 UV-I 189 W/m 13,3 C 11,6 C 24,1 km/h (4 Bft) 100,00 %
13.06.2016 08:14 15,6 C 88 % 1005,0 hPa 0,0 l/m 9,1 km/h (2 Bft) W-SW 252 0 min 0,000 mm 1,0 UV-I 226 W/m 13,6 C 14,2 C 16,1 km/h (3 Bft) 95,65 %
13.06.2016 08:15 15,6 C 88 % 1004,9 hPa 0,0 l/m 15,9 km/h (3 Bft) SW 221 1 min 0,000 mm 1,0 UV-I 297 W/m 13,6 C 11,6 C 22,5 km/h (4 Bft) 100,00 %
13.06.2016 08:16 15,7 C 88 % 1004,9 hPa 0,0 l/m 13,9 km/h (3 Bft) SW 236 1 min 0,000 mm 1,0 UV-I 310 W/m 13,7 C 12,4 C 19,3 km/h (3 Bft) 100,00 %
13.06.2016 08:17 15,7 C 88 % 1004,9 hPa 0,0 l/m 14,0 km/h (3 Bft) S 175 1 min 0,000 mm 1,0 UV-I 334 W/m 13,7 C 12,4 C 20,9 km/h (4 Bft) 100,00 %
13.06.2016 08:18 15,7 C 87 % 1004,9 hPa 0,0 l/m 16,0 km/h (3 Bft) SW 235 1 min 0,000 mm 0,9 UV-I 288 W/m 13,5 C 11,7 C 22,5 km/h (4 Bft) 100,00 %
13.06.2016 08:19 15,8 C 87 % 1004,9 hPa 0,0 l/m 20,0 km/h (4 Bft) W-SW 237 0 min 0,000 mm 0,8 UV-I 249 W/m 13,6 C 10,8 C 24,1 km/h (4 Bft) 100,00 %
13.06.2016 08:20 15,8 C 87 % 1004,9 hPa 0,0 l/m 14,9 km/h (3 Bft) W-SW 254 0 min 0,000 mm 0,7 UV-I 179 W/m 13,6 C 12,2 C 17,7 km/h (3 Bft) 100,00 %
13.06.2016 08:21 15,8 C 87 % 1004,9 hPa 0,0 l/m 12,5 km/h (3 Bft) W-SW 248 0 min 0,000 mm 0,8 UV-I 158 W/m 13,6 C 13,0 C 19,3 km/h (3 Bft) 92,86 %
13.06.2016 08:22 15,8 C 87 % 1005,0 hPa 0,0 l/m 11,5 km/h (2 Bft) S-SW 212 0 min 0,000 mm 0,8 UV-I 164 W/m 13,6 C 13,4 C 19,3 km/h (3 Bft) 100,00 %
13.06.2016 08:23 15,8 C 87 % 1005,0 hPa 0,0 l/m 12,0 km/h (2 Bft) W-SW 246 0 min 0,000 mm 0,8 UV-I 180 W/m 13,6 C 13,2 C 17,7 km/h (3 Bft) 100,00 %
13.06.2016 08:24 15,8 C 87 % 1005,0 hPa 0,0 l/m 13,5 km/h (3 Bft) W-SW 239 0 min 0,000 mm 0,9 UV-I 190 W/m 13,6 C 12,7 C 17,7 km/h (3 Bft) 100,00 %
13.06.2016 08:25 15,8 C 87 % 1005,0 hPa 0,0 l/m 9,4 km/h (2 Bft) SW 218 0 min 0,000 mm 0,9 UV-I 218 W/m 13,6 C 14,3 C 14,5 km/h (3 Bft) 100,00 %
13.06.2016 08:26 15,8 C 87 % 1005,0 hPa 0,0 l/m 11,8 km/h (2 Bft) W-SW 248 0 min 0,000 mm 1,0 UV-I 251 W/m 13,6 C 13,3 C 14,5 km/h (3 Bft) 100,00 %
13.06.2016 08:27 15,8 C 87 % 1004,9 hPa 0,0 l/m 11,9 km/h (2 Bft) W-SW 256 1 min 0,000 mm 1,0 UV-I 292 W/m 13,6 C 13,2 C 16,1 km/h (3 Bft) 90,91 %
13.06.2016 08:28 15,8 C 87 % 1004,9 hPa 0,0 l/m 13,9 km/h (3 Bft) SW 231 1 min 0,000 mm 1,2 UV-I 359 W/m 13,6 C 12,5 C 20,9 km/h (4 Bft) 100,00 %
13.06.2016 08:29 15,9 C 87 % 1004,9 hPa 0,0 l/m 15,8 km/h (3 Bft) W-SW 239 1 min 0,000 mm 1,1 UV-I 455 W/m 13,7 C 12,0 C 20,9 km/h (4 Bft) 96,15 %
13.06.2016 08:30 15,9 C 86 % 1004,8 hPa 0,0 l/m 12,5 km/h (3 Bft) SW 229 1 min 0,000 mm 1,0 UV-I 372 W/m 13,6 C 13,1 C 19,3 km/h (3 Bft) 100,00 %
13.06.2016 08:31 15,9 C 86 % 1004,8 hPa 0,0 l/m 7,8 km/h (2 Bft) SW 220 0 min 0,000 mm 0,9 UV-I 261 W/m 13,6 C 15,1 C 14,5 km/h (3 Bft) 100,00 %
13.06.2016 08:32 16,0 C 86 % 1004,8 hPa 0,0 l/m 14,5 km/h (3 Bft) W-SW 257 0 min 0,000 mm 0,8 UV-I 241 W/m 13,7 C 12,6 C 19,3 km/h (3 Bft) 100,00 %
13.06.2016 08:33 16,0 C 86 % 1004,8 hPa 0,0 l/m 8,3 km/h (2 Bft) W 273 0 min 0,000 mm 0,7 UV-I 206 W/m 13,7 C 15,0 C 12,9 km/h (3 Bft) 100,00 %
13.06.2016 08:34 16,1 C 87 % 1004,8 hPa 0,0 l/m 9,3 km/h (2 Bft) W-SW 237 0 min 0,000 mm 0,7 UV-I 189 W/m 13,9 C 14,6 C 14,5 km/h (3 Bft) 100,00 %
13.06.2016 08:35 16,1 C 87 % 1004,8 hPa 0,0 l/m 9,8 km/h (2 Bft) SW 230 0 min 0,000 mm 0,7 UV-I 186 W/m 13,9 C 14,4 C 12,9 km/h (3 Bft) 100,00 %
13.06.2016 08:36 16,1 C 86 % 1004,8 hPa 0,0 l/m 13,7 km/h (3 Bft) SW 234 0 min 0,000 mm 0,7 UV-I 169 W/m 13,8 C 12,9 C 19,3 km/h (3 Bft) 100,00 %
13.06.2016 08:37 16,1 C 86 % 1004,9 hPa 0,0 l/m 11,6 km/h (2 Bft) SW 234 0 min 0,000 mm 0,7 UV-I 156 W/m 13,8 C 13,7 C 16,1 km/h (3 Bft) 100,00 %
13.06.2016 08:38 16,0 C 85 % 1004,8 hPa 0,0 l/m 13,1 km/h (3 Bft) SW 226 0 min 0,000 mm 0,8 UV-I 162 W/m 13,5 C 13,0 C 17,7 km/h (3 Bft) 100,00 %
13.06.2016 08:39 16,0 C 86 % 1004,8 hPa 0,0 l/m 9,4 km/h (2 Bft) W-SW 240 0 min 0,000 mm 0,9 UV-I 180 W/m 13,7 C 14,5 C 16,1 km/h (3 Bft) 100,00 %
13.06.2016 08:40 16,0 C 87 % 1004,8 hPa 0,0 l/m 7,2 km/h (2 Bft) W-SW 249 0 min 0,000 mm 0,9 UV-I 201 W/m 13,8 C 15,6 C 12,9 km/h (3 Bft) 100,00 %
13.06.2016 08:41 16,0 C 87 % 1004,8 hPa 0,0 l/m 12,0 km/h (2 Bft) W-SW 244 0 min 0,000 mm 1,0 UV-I 210 W/m 13,8 C 13,4 C 17,7 km/h (3 Bft) 100,00 %
13.06.2016 08:42 16,0 C 87 % 1004,8 hPa 0,0 l/m 9,9 km/h (2 Bft) W 278 0 min 0,000 mm 1,1 UV-I 221 W/m 13,8 C 14,3 C 16,1 km/h (3 Bft) 92,86 %
13.06.2016 08:43 16,1 C 87 % 1004,8 hPa 0,0 l/m 7,1 km/h (2 Bft) W 276 0 min 0,000 mm 1,2 UV-I 235 W/m 13,9 C 15,7 C 12,9 km/h (3 Bft) 100,00 %
13.06.2016 08:44 16,1 C 86 % 1004,8 hPa 0,0 l/m 11,3 km/h (2 Bft) SW 226 0 min 0,000 mm 1,2 UV-I 251 W/m 13,8 C 13,8 C 14,5 km/h (3 Bft) 96,15 %
13.06.2016 08:45 16,1 C 86 % 1004,7 hPa 0,0 l/m 13,7 km/h (3 Bft) W-SW 251 0 min 0,000 mm 1,3 UV-I 276 W/m 13,8 C 12,9 C 19,3 km/h (3 Bft) 100,00 %
13.06.2016 08:46 16,1 C 87 % 1004,7 hPa 0,0 l/m 14,4 km/h (3 Bft) W-SW 256 0 min 0,000 mm 1,4 UV-I 276 W/m 13,9 C 12,7 C 17,7 km/h (3 Bft) 100,00 %
13.06.2016 08:47 16,2 C 86 % 1004,8 hPa 0,0 l/m 13,2 km/h (3 Bft) SW 236 0 min 0,000 mm 1,4 UV-I 276 W/m 13,9 C 13,2 C 19,3 km/h (3 Bft) 100,00 %
13.06.2016 08:48 16,3 C 86 % 1004,8 hPa 0,0 l/m 16,2 km/h (3 Bft) SW 223 1 min 0,000 mm 1,4 UV-I 343 W/m 14,0 C 12,4 C 25,7 km/h (4 Bft) 100,00 %
13.06.2016 08:49 16,3 C 85 % 1004,8 hPa 0,0 l/m 19,1 km/h (3 Bft) SW 226 1 min 0,000 mm 1,2 UV-I 390 W/m 13,8 C 11,6 C 24,1 km/h (4 Bft) 100,00 %
13.06.2016 08:50 16,3 C 85 % 1004,7 hPa 0,0 l/m 18,2 km/h (3 Bft) SW 215 0 min 0,000 mm 1,2 UV-I 232 W/m 13,8 C 11,9 C 22,5 km/h (4 Bft) 100,00 %
13.06.2016 08:51 16,3 C 84 % 1004,8 hPa 0,0 l/m 13,9 km/h (3 Bft) SW 227 0 min 0,000 mm 1,2 UV-I 234 W/m 13,6 C 13,1 C 17,7 km/h (3 Bft) 100,00 %
13.06.2016 08:52 16,3 C 84 % 1004,7 hPa 0,0 l/m 14,6 km/h (3 Bft) SW 230 0 min 0,000 mm 1,3 UV-I 250 W/m 13,6 C 12,9 C 19,3 km/h (3 Bft) 100,00 %
13.06.2016 08:53 16,3 C 84 % 1004,7 hPa 0,0 l/m 13,2 km/h (3 Bft) W-SW 258 0 min 0,000 mm 1,3 UV-I 264 W/m 13,6 C 13,3 C 17,7 km/h (3 Bft) 100,00 %
13.06.2016 08:54 16,3 C 85 % 1004,8 hPa 0,0 l/m 12,1 km/h (2 Bft) SW 229 0 min 0,000 mm 1,3 UV-I 265 W/m 13,8 C 13,7 C 19,3 km/h (3 Bft) 100,00 %
13.06.2016 08:55 16,3 C 85 % 1004,7 hPa 0,0 l/m 17,1 km/h (3 Bft) W-SW 255 0 min 0,000 mm 1,3 UV-I 260 W/m 13,8 C 12,2 C 22,5 km/h (4 Bft) 100,00 %
13.06.2016 08:56 16,2 C 84 % 1004,8 hPa 0,0 l/m 15,7 km/h (3 Bft) SW 227 0 min 0,000 mm 1,3 UV-I 250 W/m 13,5 C 12,4 C 19,3 km/h (3 Bft) 96,67 %
13.06.2016 08:57 16,2 C 84 % 1004,8 hPa 0,0 l/m 10,6 km/h (2 Bft) W-SW 244 0 min 0,000 mm 1,3 UV-I 239 W/m 13,5 C 14,2 C 16,1 km/h (3 Bft) 100,00 %
13.06.2016 08:58 16,2 C 85 % 1004,8 hPa 0,0 l/m 13,6 km/h (3 Bft) S-SW 194 0 min 0,000 mm 1,2 UV-I 229 W/m 13,7 C 13,1 C 22,5 km/h (4 Bft) 83,33 %
13.06.2016 08:59 16,2 C 85 % 1004,8 hPa 0,0 l/m 17,9 km/h (3 Bft) S-SW 194 0 min 0,000 mm 1,2 UV-I 232 W/m 13,7 C 11,8 C 24,1 km/h (4 Bft) 100,00 %
13.06.2016 09:00 16,2 C 85 % 1004,8 hPa 0,0 l/m 15,8 km/h (3 Bft) S 185 0 min 0,152 mm 1,2 UV-I 247 W/m 13,7 C 12,4 C 22,5 km/h (4 Bft) 100,00 %
13.06.2016 09:01 16,2 C 85 % 1004,8 hPa 0,0 l/m 13,4 km/h (3 Bft) W-SW 243 0 min 0,000 mm 1,2 UV-I 257 W/m 13,7 C 13,2 C 19,3 km/h (3 Bft) 90,91 %
13.06.2016 09:02 16,1 C 85 % 1004,8 hPa 0,0 l/m 12,3 km/h (3 Bft) S-SW 213 0 min 0,000 mm 1,2 UV-I 254 W/m 13,6 C 13,4 C 22,5 km/h (4 Bft) 100,00 %
13.06.2016 09:03 16,1 C 85 % 1004,8 hPa 0,0 l/m 11,0 km/h (2 Bft) SW 218 0 min 0,000 mm 1,2 UV-I 269 W/m 13,6 C 13,9 C 17,7 km/h (3 Bft) 100,00 %
13.06.2016 09:04 16,2 C 85 % 1004,8 hPa 0,0 l/m 10,3 km/h (2 Bft) W 264 0 min 0,000 mm 1,3 UV-I 295 W/m 13,7 C 14,3 C 17,7 km/h (3 Bft) 100,00 %
13.06.2016 09:05 16,2 C 85 % 1004,8 hPa 0,0 l/m 14,6 km/h (3 Bft) W-SW 248 0 min 0,000 mm 1,2 UV-I 281 W/m 13,7 C 12,8 C 16,1 km/h (3 Bft) 100,00 %
13.06.2016 09:06 16,2 C 85 % 1004,8 hPa 0,0 l/m 12,0 km/h (2 Bft) SW 223 0 min 0,000 mm 1,0 UV-I 282 W/m 13,7 C 13,7 C 20,9 km/h (4 Bft) 100,00 %
13.06.2016 09:07 16,2 C 85 % 1004,8 hPa 0,0 l/m 14,9 km/h (3 Bft) W-SW 244 0 min 0,000 mm 0,8 UV-I 292 W/m 13,7 C 12,7 C 20,9 km/h (4 Bft) 92,86 %
13.06.2016 09:08 16,2 C 84 % 1004,8 hPa 0,0 l/m 12,4 km/h (3 Bft) SW 223 0 min 0,000 mm 0,6 UV-I 148 W/m 13,5 C 13,5 C 17,7 km/h (3 Bft) 100,00 %
13.06.2016 09:09 16,2 C 85 % 1004,8 hPa 0,0 l/m 8,9 km/h (2 Bft) W-SW 244 0 min 0,000 mm 0,6 UV-I 137 W/m 13,7 C 14,9 C 12,9 km/h (3 Bft) 96,15 %
13.06.2016 09:10 16,1 C 84 % 1004,8 hPa 0,0 l/m 11,5 km/h (2 Bft) SW 221 0 min 0,000 mm 0,7 UV-I 148 W/m 13,4 C 13,7 C 17,7 km/h (3 Bft) 100,00 %
13.06.2016 09:11 16,1 C 85 % 1004,8 hPa 0,0 l/m 12,0 km/h (2 Bft) SW 231 0 min 0,000 mm 0,8 UV-I 160 W/m 13,6 C 13,5 C 19,3 km/h (3 Bft) 94,12 %
13.06.2016 09:12 16,1 C 85 % 1004,8 hPa 0,0 l/m 7,7 km/h (2 Bft) W-SW 238 0 min 0,000 mm 1,0 UV-I 177 W/m 13,6 C 15,4 C 11,3 km/h (2 Bft) 92,59 %
13.06.2016 09:13 16,1 C 85 % 1004,7 hPa 0,0 l/m 8,4 km/h (2 Bft) SW 216 0 min 0,000 mm 1,1 UV-I 189 W/m 13,6 C 15,1 C 16,1 km/h (3 Bft) 96,15 %
13.06.2016 09:14 16,1 C 86 % 1004,7 hPa 0,0 l/m 13,4 km/h (3 Bft) W-SW 254 0 min 0,000 mm 1,2 UV-I 204 W/m 13,8 C 13,0 C 17,7 km/h (3 Bft) 100,00 %
13.06.2016 09:15 16,1 C 86 % 1004,7 hPa 0,0 l/m 11,2 km/h (2 Bft) SW 236 0 min 0,000 mm 1,3 UV-I 226 W/m 13,8 C 13,8 C 14,5 km/h (3 Bft) 96,30 %
13.06.2016 09:16 16,2 C 85 % 1004,7 hPa 0,0 l/m 13,4 km/h (3 Bft) S-SW 198 0 min 0,000 mm 1,5 UV-I 261 W/m 13,7 C 13,2 C 17,7 km/h (3 Bft) 94,12 %
13.06.2016 09:17 16,2 C 84 % 1004,7 hPa 0,0 l/m 9,9 km/h (2 Bft) SW 217 0 min 0,000 mm 1,7 UV-I 294 W/m 13,5 C 14,5 C 14,5 km/h (3 Bft) 100,00 %
13.06.2016 09:18 16,2 C 84 % 1004,7 hPa 0,0 l/m 8,9 km/h (2 Bft) SW 232 0 min 0,000 mm 1,8 UV-I 334 W/m 13,5 C 14,9 C 12,9 km/h (3 Bft) 96,15 %
13.06.2016 09:19 16,3 C 86 % 1004,7 hPa 0,0 l/m 10,6 km/h (2 Bft) W-SW 242 1 min 0,000 mm 2,3 UV-I 396 W/m 14,0 C 14,3 C 14,5 km/h (3 Bft) 100,00 %
13.06.2016 09:20 16,4 C 85 % 1004,7 hPa 0,0 l/m 7,7 km/h (2 Bft) W 265 1 min 0,000 mm 2,2 UV-I 408 W/m 13,9 C 15,7 C 12,9 km/h (3 Bft) 95,65 %
13.06.2016 09:21 16,6 C 85 % 1004,7 hPa 0,0 l/m 5,7 km/h (1 Bft) W 269 1 min 0,000 mm 2,3 UV-I 415 W/m 14,1 C 16,6 C 11,3 km/h (2 Bft) 95,83 %
13.06.2016 09:22 16,7 C 85 % 1004,6 hPa 0,0 l/m 6,1 km/h (2 Bft) SW 221 1 min 0,000 mm 2,0 UV-I 432 W/m 14,2 C 16,7 C 12,9 km/h (3 Bft) 100,00 %
13.06.2016 09:23 16,8 C 84 % 1004,7 hPa 0,0 l/m 14,5 km/h (3 Bft) W-SW 238 1 min 0,000 mm 2,0 UV-I 432 W/m 14,1 C 13,5 C 20,9 km/h (4 Bft) 96,30 %
13.06.2016 09:24 16,9 C 82 % 1004,7 hPa 0,0 l/m 10,3 km/h (2 Bft) W-SW 247 1 min 0,000 mm 1,8 UV-I 419 W/m 13,8 C 15,1 C 14,5 km/h (3 Bft) 100,00 %
13.06.2016 09:25 16,9 C 82 % 1004,7 hPa 0,0 l/m 9,7 km/h (2 Bft) SW 227 1 min 0,000 mm 1,6 UV-I 368 W/m 13,8 C 15,3 C 14,5 km/h (3 Bft) 93,33 %
13.06.2016 09:26 17,1 C 84 % 1004,6 hPa 0,0 l/m 8,0 km/h (2 Bft) SW 233 0 min 0,000 mm 1,2 UV-I 282 W/m 14,4 C 16,3 C 12,9 km/h (3 Bft) 100,00 %
13.06.2016 09:27 17,1 C 83 % 1004,6 hPa 0,0 l/m 7,6 km/h (2 Bft) W 259 0 min 0,000 mm 1,0 UV-I 219 W/m 14,2 C 16,5 C 11,3 km/h (2 Bft) 96,30 %
13.06.2016 09:28 17,1 C 83 % 1004,6 hPa 0,0 l/m 7,4 km/h (2 Bft) W 273 0 min 0,000 mm 0,8 UV-I 186 W/m 14,2 C 16,6 C 12,9 km/h (3 Bft) 100,00 %
13.06.2016 09:29 17,0 C 81 % 1004,6 hPa 0,0 l/m 14,0 km/h (3 Bft) W 265 0 min 0,000 mm 0,8 UV-I 164 W/m 13,7 C 13,9 C 20,9 km/h (4 Bft) 96,30 %
13.06.2016 09:30 16,9 C 81 % 1004,6 hPa 0,0 l/m 13,1 km/h (3 Bft) W-SW 248 0 min 0,000 mm 0,6 UV-I 142 W/m 13,6 C 14,1 C 17,7 km/h (3 Bft) 100,00 %
13.06.2016 09:31 16,8 C 80 % 1004,6 hPa 0,0 l/m 12,7 km/h (3 Bft) W-SW 251 0 min 0,000 mm 0,6 UV-I 127 W/m 13,3 C 14,1 C 16,1 km/h (3 Bft) 95,65 %
13.06.2016 09:32 16,8 C 81 % 1004,5 hPa 0,0 l/m 10,0 km/h (2 Bft) SW 226 0 min 0,000 mm 0,5 UV-I 113 W/m 13,5 C 15,1 C 14,5 km/h (3 Bft) 96,55 %
13.06.2016 09:33 16,7 C 82 % 1004,5 hPa 0,0 l/m 11,2 km/h (2 Bft) SW 230 0 min 0,000 mm 0,0 UV-I 99 W/m 13,6 C 14,5 C 19,3 km/h (3 Bft) 100,00 %
13.06.2016 09:34 16,6 C 82 % 1004,5 hPa 0,0 l/m 15,7 km/h (3 Bft) S-SW 207 0 min 0,000 mm 0,0 UV-I 83 W/m 13,5 C 12,9 C 20,9 km/h (4 Bft) 91,67 %
13.06.2016 09:35 16,5 C 83 % 1004,5 hPa 0,0 l/m 15,4 km/h (3 Bft) SW 232 0 min 0,000 mm 0,0 UV-I 69 W/m 13,6 C 12,9 C 20,9 km/h (4 Bft) 100,00 %
13.06.2016 09:36 16,4 C 83 % 1004,5 hPa 0,0 l/m 13,8 km/h (3 Bft) W-SW 244 0 min 0,000 mm 0,0 UV-I 63 W/m 13,5 C 13,3 C 17,7 km/h (3 Bft) 96,30 %
13.06.2016 09:37 16,4 C 83 % 1004,5 hPa 0,0 l/m 14,6 km/h (3 Bft) W-SW 242 0 min 0,000 mm 0,0 UV-I 66 W/m 13,5 C 13,0 C 17,7 km/h (3 Bft) 96,15 %
13.06.2016 09:38 16,3 C 84 % 1004,5 hPa 0,0 l/m 12,8 km/h (3 Bft) W-SW 240 0 min 0,000 mm 0,0 UV-I 77 W/m 13,6 C 13,5 C 19,3 km/h (3 Bft) 100,00 %
13.06.2016 09:39 16,2 C 84 % 1004,5 hPa 0,0 l/m 10,1 km/h (2 Bft) SW 229 0 min 0,000 mm 0,5 UV-I 90 W/m 13,5 C 14,4 C 14,5 km/h (3 Bft) 100,00 %
13.06.2016 09:40 16,2 C 86 % 1004,5 hPa 0,0 l/m 9,9 km/h (2 Bft) SW 219 0 min 0,000 mm 0,6 UV-I 108 W/m 13,9 C 14,5 C 12,9 km/h (3 Bft) 100,00 %
13.06.2016 09:41 16,1 C 86 % 1004,5 hPa 0,0 l/m 9,9 km/h (2 Bft) SW 225 0 min 0,000 mm 0,8 UV-I 124 W/m 13,8 C 14,4 C 12,9 km/h (3 Bft) 100,00 %
13.06.2016 09:42 16,1 C 86 % 1004,5 hPa 0,0 l/m 9,0 km/h (2 Bft) SW 214 0 min 0,000 mm 0,8 UV-I 143 W/m 13,8 C 14,8 C 14,5 km/h (3 Bft) 100,00 %
13.06.2016 09:43 16,0 C 86 % 1004,5 hPa 0,0 l/m 9,1 km/h (2 Bft) SW 218 0 min 0,000 mm 0,9 UV-I 163 W/m 13,7 C 14,6 C 11,3 km/h (2 Bft) 100,00 %
13.06.2016 09:44 16,0 C 86 % 1004,5 hPa 0,0 l/m 8,2 km/h (2 Bft) SW 228 0 min 0,000 mm 1,0 UV-I 175 W/m 13,7 C 15,1 C 16,1 km/h (3 Bft) 100,00 %
13.06.2016 09:45 16,0 C 87 % 1004,5 hPa 0,0 l/m 7,4 km/h (2 Bft) SW 236 0 min 0,000 mm 1,1 UV-I 180 W/m 13,8 C 15,5 C 12,9 km/h (3 Bft) 100,00 %
13.06.2016 09:46 16,1 C 87 % 1004,5 hPa 0,0 l/m 10,7 km/h (2 Bft) W-SW 240 0 min 0,000 mm 1,1 UV-I 183 W/m 13,9 C 14,0 C 16,1 km/h (3 Bft) 100,00 %
13.06.2016 09:47 16,1 C 86 % 1004,5 hPa 0,0 l/m 12,7 km/h (3 Bft) SW 227 0 min 0,000 mm 1,2 UV-I 194 W/m 13,8 C 13,3 C 16,1 km/h (3 Bft) 95,65 %
13.06.2016 09:48 16,1 C 87 % 1004,5 hPa 0,0 l/m 11,1 km/h (2 Bft) SW 226 0 min 0,000 mm 1,3 UV-I 211 W/m 13,9 C 13,9 C 16,1 km/h (3 Bft) 100,00 %
13.06.2016 09:49 16,1 C 86 % 1004,5 hPa 0,0 l/m 15,0 km/h (3 Bft) W 261 0 min 0,000 mm 1,4 UV-I 230 W/m 13,8 C 12,5 C 19,3 km/h (3 Bft) 100,00 %
13.06.2016 09:50 16,2 C 86 % 1004,5 hPa 0,0 l/m 12,5 km/h (3 Bft) W-SW 255 0 min 0,000 mm 1,5 UV-I 245 W/m 13,9 C 13,5 C 19,3 km/h (3 Bft) 100,00 %
13.06.2016 09:51 16,2 C 85 % 1004,5 hPa 0,0 l/m 11,2 km/h (2 Bft) SW 232 0 min 0,000 mm 1,6 UV-I 259 W/m 13,7 C 14,0 C 16,1 km/h (3 Bft) 100,00 %
13.06.2016 09:52 16,3 C 86 % 1004,5 hPa 0,0 l/m 8,1 km/h (2 Bft) SW 222 0 min 0,000 mm 1,7 UV-I 268 W/m 14,0 C 15,4 C 11,3 km/h (2 Bft) 95,83 %
13.06.2016 09:53 16,3 C 85 % 1004,5 hPa 0,0 l/m 12,2 km/h (2 Bft) W 262 0 min 0,000 mm 1,8 UV-I 275 W/m 13,8 C 13,7 C 16,1 km/h (3 Bft) 100,00 %
13.06.2016 09:54 16,3 C 86 % 1004,4 hPa 0,0 l/m 7,0 km/h (2 Bft) W-SW 247 0 min 0,000 mm 1,8 UV-I 274 W/m 14,0 C 16,0 C 11,3 km/h (2 Bft) 100,00 %
13.06.2016 09:55 16,4 C 85 % 1004,4 hPa 0,0 l/m 14,5 km/h (3 Bft) W 271 0 min 0,000 mm 1,8 UV-I 274 W/m 13,9 C 13,0 C 20,9 km/h (4 Bft) 100,00 %
13.06.2016 09:56 16,4 C 84 % 1004,4 hPa 0,0 l/m 11,6 km/h (2 Bft) SW 234 0 min 0,000 mm 1,8 UV-I 274 W/m 13,7 C 14,0 C 19,3 km/h (3 Bft) 100,00 %
13.06.2016 09:57 16,4 C 84 % 1004,5 hPa 0,0 l/m 15,6 km/h (3 Bft) SW 217 0 min 0,000 mm 1,8 UV-I 259 W/m 13,7 C 12,7 C 19,3 km/h (3 Bft) 100,00 %
13.06.2016 09:58 16,5 C 82 % 1004,4 hPa 0,0 l/m 13,9 km/h (3 Bft) W-SW 244 0 min 0,000 mm 1,8 UV-I 262 W/m 13,4 C 13,4 C 17,7 km/h (3 Bft) 100,00 %
13.06.2016 09:59 16,5 C 83 % 1004,4 hPa 0,0 l/m 13,1 km/h (3 Bft) W-SW 241 0 min 0,000 mm 2,0 UV-I 300 W/m 13,6 C 13,6 C 16,1 km/h (3 Bft) 100,00 %
13.06.2016 10:00 16,5 C 82 % 1004,4 hPa 0,0 l/m 11,5 km/h (2 Bft) W-SW 252 0 min 0,152 mm 2,6 UV-I 306 W/m 13,4 C 14,2 C 17,7 km/h (3 Bft) 97,37 %
13.06.2016 10:01 16,6 C 83 % 1004,4 hPa 0,0 l/m 8,2 km/h (2 Bft) W-SW 240 0 min 0,000 mm 2,3 UV-I 306 W/m 13,7 C 15,7 C 12,9 km/h (3 Bft) 95,83 %
13.06.2016 10:02 16,7 C 84 % 1004,4 hPa 0,0 l/m 9,7 km/h (2 Bft) SW 234 0 min 0,000 mm 1,9 UV-I 311 W/m 14,0 C 15,1 C 16,1 km/h (3 Bft) 100,00 %
13.06.2016 10:03 16,8 C 83 % 1004,4 hPa 0,0 l/m 7,8 km/h (2 Bft) W-SW 252 0 min 0,000 mm 1,8 UV-I 300 W/m 13,9 C 16,1 C 14,5 km/h (3 Bft) 100,00 %
13.06.2016 10:04 16,8 C 83 % 1004,4 hPa 0,0 l/m 11,5 km/h (2 Bft) W-SW 244 0 min 0,000 mm 1,7 UV-I 283 W/m 13,9 C 14,5 C 16,1 km/h (3 Bft) 92,86 %
13.06.2016 10:05 16,9 C 83 % 1004,4 hPa 0,0 l/m 4,8 km/h (1 Bft) W-SW 255 0 min 0,000 mm 1,7 UV-I 294 W/m 14,0 C 16,9 C 9,7 km/h (2 Bft) 100,00 %
13.06.2016 10:06 16,9 C 82 % 1004,4 hPa 0,0 l/m 9,1 km/h (2 Bft) W-SW 249 0 min 0,000 mm 1,6 UV-I 285 W/m 13,8 C 15,6 C 17,7 km/h (3 Bft) 100,00 %
13.06.2016 10:07 16,9 C 81 % 1004,4 hPa 0,0 l/m 11,5 km/h (2 Bft) W-SW 247 0 min 0,000 mm 1,6 UV-I 266 W/m 13,6 C 14,6 C 20,9 km/h (4 Bft) 95,83 %
13.06.2016 10:08 16,9 C 80 % 1004,4 hPa 0,0 l/m 10,3 km/h (2 Bft) W 274 0 min 0,000 mm 1,7 UV-I 262 W/m 13,4 C 15,1 C 12,9 km/h (3 Bft) 100,00 %
13.06.2016 10:09 16,9 C 81 % 1004,4 hPa 0,0 l/m 9,5 km/h (2 Bft) W 281 0 min 0,000 mm 1,8 UV-I 272 W/m 13,6 C 15,4 C 17,7 km/h (3 Bft) 100,00 %
13.06.2016 10:10 16,9 C 79 % 1004,4 hPa 0,0 l/m 10,2 km/h (2 Bft) SW 227 0 min 0,000 mm 2,0 UV-I 288 W/m 13,2 C 15,1 C 14,5 km/h (3 Bft) 100,00 %
13.06.2016 10:11 16,8 C 79 % 1004,4 hPa 0,0 l/m 8,0 km/h (2 Bft) W 263 0 min 0,000 mm 2,2 UV-I 312 W/m 13,1 C 16,0 C 12,9 km/h (3 Bft) 100,00 %
13.06.2016 10:12 16,9 C 80 % 1004,4 hPa 0,0 l/m 13,8 km/h (3 Bft) W-SW 248 0 min 0,000 mm 2,2 UV-I 329 W/m 13,4 C 13,9 C 17,7 km/h (3 Bft) 100,00 %
13.06.2016 10:13 16,9 C 79 % 1004,4 hPa 0,0 l/m 12,4 km/h (3 Bft) W-SW 258 0 min 0,000 mm 2,2 UV-I 348 W/m 13,2 C 14,3 C 17,7 km/h (3 Bft) 100,00 %
13.06.2016 10:14 16,9 C 79 % 1004,3 hPa 0,0 l/m 9,4 km/h (2 Bft) W-SW 240 0 min 0,000 mm 2,3 UV-I 342 W/m 13,2 C 15,5 C 16,1 km/h (3 Bft) 100,00 %
13.06.2016 10:15 16,9 C 79 % 1004,3 hPa 0,0 l/m 12,6 km/h (3 Bft) W 265 0 min 0,000 mm 2,3 UV-I 355 W/m 13,2 C 14,3 C 16,1 km/h (3 Bft) 100,00 %
13.06.2016 10:16 16,9 C 79 % 1004,3 hPa 0,0 l/m 10,9 km/h (2 Bft) SW 219 0 min 0,000 mm 2,9 UV-I 371 W/m 13,2 C 14,9 C 16,1 km/h (3 Bft) 100,00 %
13.06.2016 10:17 17,1 C 80 % 1004,3 hPa 0,0 l/m 10,1 km/h (2 Bft) W-SW 244 0 min 0,000 mm 3,7 UV-I 371 W/m 13,6 C 15,4 C 17,7 km/h (3 Bft) 100,00 %
13.06.2016 10:18 17,1 C 80 % 1004,3 hPa 0,0 l/m 12,6 km/h (3 Bft) W-SW 258 0 min 0,000 mm 2,8 UV-I 382 W/m 13,6 C 14,5 C 19,3 km/h (3 Bft) 100,00 %
13.06.2016 10:19 17,2 C 79 % 1004,3 hPa 0,0 l/m 14,0 km/h (3 Bft) SW 218 1 min 0,000 mm 3,1 UV-I 449 W/m 13,5 C 14,2 C 17,7 km/h (3 Bft) 92,86 %
13.06.2016 10:20 17,2 C 78 % 1004,3 hPa 0,0 l/m 17,9 km/h (3 Bft) W-SW 252 0 min 0,000 mm 2,6 UV-I 406 W/m 13,3 C 13,1 C 20,9 km/h (4 Bft) 100,00 %
13.06.2016 10:21 17,2 C 78 % 1004,3 hPa 0,0 l/m 8,2 km/h (2 Bft) W-SW 246 0 min 0,000 mm 2,5 UV-I 369 W/m 13,3 C 16,3 C 16,1 km/h (3 Bft) 100,00 %
13.06.2016 10:22 17,3 C 80 % 1004,3 hPa 0,0 l/m 9,1 km/h (2 Bft) W-SW 252 0 min 0,000 mm 2,8 UV-I 353 W/m 13,8 C 16,0 C 16,1 km/h (3 Bft) 100,00 %
13.06.2016 10:23 17,3 C 79 % 1004,3 hPa 0,0 l/m 8,0 km/h (2 Bft) W-SW 252 0 min 0,000 mm 3,7 UV-I 353 W/m 13,6 C 16,5 C 12,9 km/h (3 Bft) 100,00 %
13.06.2016 10:24 17,4 C 79 % 1004,3 hPa 0,0 l/m 10,6 km/h (2 Bft) W 263 0 min 0,000 mm 2,5 UV-I 353 W/m 13,7 C 15,5 C 14,5 km/h (3 Bft) 96,43 %
13.06.2016 10:25 17,4 C 78 % 1004,3 hPa 0,0 l/m 14,1 km/h (3 Bft) NW 310 0 min 0,000 mm 2,0 UV-I 261 W/m 13,5 C 14,4 C 17,7 km/h (3 Bft) 100,00 %
13.06.2016 10:26 17,4 C 77 % 1004,3 hPa 0,0 l/m 9,9 km/h (2 Bft) W-SW 241 0 min 0,000 mm 2,2 UV-I 283 W/m 13,3 C 15,8 C 16,1 km/h (3 Bft) 100,00 %
13.06.2016 10:27 17,4 C 77 % 1004,3 hPa 0,0 l/m 4,2 km/h (1 Bft) W-SW 252 0 min 0,000 mm 2,6 UV-I 345 W/m 13,3 C 17,4 C 4,8 km/h (1 Bft) 100,00 %
13.06.2016 10:28 17,4 C 79 % 1004,3 hPa 0,0 l/m 8,6 km/h (2 Bft) SW 226 0 min 0,000 mm 3,1 UV-I 366 W/m 13,7 C 16,4 C 14,5 km/h (3 Bft) 100,00 %
13.06.2016 10:29 17,5 C 79 % 1004,3 hPa 0,0 l/m 13,7 km/h (3 Bft) W-SW 244 0 min 0,000 mm 4,3 UV-I 366 W/m 13,8 C 14,6 C 16,1 km/h (3 Bft) 100,00 %
13.06.2016 10:30 17,6 C 78 % 1004,3 hPa 0,0 l/m 15,8 km/h (3 Bft) W-SW 250 0 min 0,000 mm 4,4 UV-I 366 W/m 13,7 C 14,1 C 19,3 km/h (3 Bft) 100,00 %
13.06.2016 10:31 17,7 C 79 % 1004,3 hPa 0,0 l/m 13,2 km/h (3 Bft) W 267 0 min 0,000 mm 3,3 UV-I 366 W/m 14,0 C 15,0 C 17,7 km/h (3 Bft) 100,00 %
13.06.2016 10:32 17,9 C 80 % 1004,3 hPa 0,0 l/m 12,2 km/h (2 Bft) W-SW 248 0 min 0,000 mm 2,2 UV-I 352 W/m 14,4 C 15,5 C 17,7 km/h (3 Bft) 100,00 %
13.06.2016 10:33 17,9 C 77 % 1004,3 hPa 0,0 l/m 16,1 km/h (3 Bft) SW 223 0 min 0,000 mm 2,1 UV-I 330 W/m 13,8 C 14,4 C 22,5 km/h (4 Bft) 100,00 %
13.06.2016 10:34 17,9 C 76 % 1004,3 hPa 0,0 l/m 12,8 km/h (3 Bft) W-SW 238 0 min 0,000 mm 2,0 UV-I 367 W/m 13,6 C 15,4 C 19,3 km/h (3 Bft) 100,00 %
13.06.2016 10:35 17,8 C 76 % 1004,3 hPa 0,0 l/m 13,4 km/h (3 Bft) W-SW 257 0 min 0,000 mm 1,9 UV-I 321 W/m 13,5 C 15,1 C 17,7 km/h (3 Bft) 100,00 %
13.06.2016 10:36 17,7 C 77 % 1004,2 hPa 0,0 l/m 13,9 km/h (3 Bft) W-NW 296 0 min 0,000 mm 1,8 UV-I 283 W/m 13,6 C 14,8 C 17,7 km/h (3 Bft) 100,00 %
13.06.2016 10:37 17,6 C 77 % 1004,2 hPa 0,0 l/m 9,6 km/h (2 Bft) SW 225 0 min 0,000 mm 1,9 UV-I 300 W/m 13,5 C 16,1 C 16,1 km/h (3 Bft) 100,00 %
13.06.2016 10:38 17,6 C 78 % 1004,2 hPa 0,0 l/m 10,8 km/h (2 Bft) W-SW 249 0 min 0,000 mm 2,0 UV-I 308 W/m 13,7 C 15,7 C 14,5 km/h (3 Bft) 100,00 %
13.06.2016 10:39 17,6 C 79 % 1004,2 hPa 0,0 l/m 8,8 km/h (2 Bft) S-SW 213 0 min 0,000 mm 2,0 UV-I 308 W/m 13,9 C 16,5 C 14,5 km/h (3 Bft) 100,00 %
13.06.2016 10:40 17,6 C 79 % 1004,2 hPa 0,0 l/m 4,8 km/h (1 Bft) W-SW 251 0 min 0,000 mm 2,0 UV-I 309 W/m 13,9 C 17,6 C 11,3 km/h (2 Bft) 98,79 %
13.06.2016 10:41 17,6 C 79 % 1004,3 hPa 0,0 l/m 11,7 km/h (2 Bft) W-SW 253 0 min 0,000 mm 2,0 UV-I 306 W/m 13,9 C 15,4 C 19,3 km/h (3 Bft) 100,00 %
13.06.2016 10:42 17,6 C 78 % 1004,2 hPa 0,0 l/m 16,5 km/h (3 Bft) W-SW 247 0 min 0,000 mm 1,9 UV-I 295 W/m 13,7 C 13,9 C 22,5 km/h (4 Bft) 100,00 %
13.06.2016 10:43 17,6 C 77 % 1004,2 hPa 0,0 l/m 14,4 km/h (3 Bft) W 265 0 min 0,000 mm 1,9 UV-I 284 W/m 13,5 C 14,5 C 20,9 km/h (4 Bft) 100,00 %
13.06.2016 10:44 17,5 C 78 % 1004,2 hPa 0,0 l/m 10,3 km/h (2 Bft) W 266 0 min 0,000 mm 1,8 UV-I 274 W/m 13,6 C 15,8 C 17,7 km/h (3 Bft) 100,00 %
13.06.2016 10:45 17,4 C 77 % 1004,2 hPa 0,0 l/m 6,8 km/h (2 Bft) W-SW 246 0 min 0,000 mm 1,7 UV-I 258 W/m 13,3 C 17,2 C 11,3 km/h (2 Bft) 96,30 %
13.06.2016 10:46 17,4 C 78 % 1004,2 hPa 0,0 l/m 8,8 km/h (2 Bft) W 267 0 min 0,000 mm 1,5 UV-I 234 W/m 13,5 C 16,3 C 14,5 km/h (3 Bft) 100,00 %
13.06.2016 10:47 17,4 C 79 % 1004,2 hPa 0,0 l/m 12,9 km/h (3 Bft) SW 229 0 min 0,000 mm 1,4 UV-I 203 W/m 13,7 C 14,7 C 20,9 km/h (4 Bft) 100,00 %
13.06.2016 10:48 17,4 C 78 % 1004,3 hPa 0,0 l/m 17,3 km/h (3 Bft) S-SW 194 0 min 0,000 mm 1,1 UV-I 167 W/m 13,5 C 13,5 C 25,7 km/h (4 Bft) 98,80 %
13.06.2016 10:49 17,3 C 78 % 1004,3 hPa 0,0 l/m 12,4 km/h (3 Bft) S-SW 202 0 min 0,000 mm 1,0 UV-I 153 W/m 13,4 C 14,8 C 19,3 km/h (3 Bft) 100,00 %
13.06.2016 10:50 17,2 C 79 % 1004,3 hPa 0,0 l/m 18,4 km/h (3 Bft) W-SW 254 0 min 0,000 mm 0,9 UV-I 147 W/m 13,5 C 13,0 C 25,7 km/h (4 Bft) 100,00 %
13.06.2016 10:51 17,1 C 80 % 1004,3 hPa 0,0 l/m 22,0 km/h (4 Bft) S-SW 212 0 min 0,000 mm 0,9 UV-I 142 W/m 13,6 C 12,0 C 30,6 km/h (5 Bft) 100,00 %
13.06.2016 10:52 17,0 C 80 % 1004,3 hPa 0,0 l/m 16,3 km/h (3 Bft) W 266 0 min 0,000 mm 0,9 UV-I 142 W/m 13,5 C 13,2 C 29,0 km/h (5 Bft) 100,00 %
13.06.2016 10:53 16,8 C 81 % 1004,3 hPa 0,0 l/m 19,6 km/h (3 Bft) S 187 0 min 0,000 mm 1,0 UV-I 153 W/m 13,5 C 12,2 C 29,0 km/h (5 Bft) 100,00 %
13.06.2016 10:54 16,6 C 82 % 1004,3 hPa 0,0 l/m 19,2 km/h (3 Bft) SW 218 0 min 0,000 mm 1,0 UV-I 158 W/m 13,5 C 12,0 C 25,7 km/h (4 Bft) 100,00 %
13.06.2016 10:55 16,4 C 83 % 1004,3 hPa 0,0 l/m 18,7 km/h (3 Bft) S-SW 199 0 min 0,000 mm 1,0 UV-I 149 W/m 13,5 C 11,9 C 27,4 km/h (4 Bft) 100,00 %
13.06.2016 10:56 16,3 C 83 % 1004,3 hPa 0,0 l/m 15,5 km/h (3 Bft) W-SW 242 0 min 0,000 mm 0,9 UV-I 138 W/m 13,4 C 12,6 C 24,1 km/h (4 Bft) 100,00 %
13.06.2016 10:57 16,2 C 84 % 1004,4 hPa 0,0 l/m 13,0 km/h (3 Bft) S-SW 205 0 min 0,000 mm 0,8 UV-I 130 W/m 13,5 C 13,3 C 20,9 km/h (4 Bft) 100,00 %
13.06.2016 10:58 16,0 C 86 % 1004,4 hPa 0,0 l/m 10,2 km/h (2 Bft) S-SW 198 0 min 0,000 mm 0,8 UV-I 122 W/m 13,7 C 14,1 C 14,5 km/h (3 Bft) 100,00 %
13.06.2016 10:59 15,9 C 86 % 1004,4 hPa 0,0 l/m 5,4 km/h (1 Bft) W-SW 238 0 min 0,000 mm 0,7 UV-I 113 W/m 13,6 C 15,9 C 8,0 km/h (2 Bft) 100,00 %
13.06.2016 11:00 15,8 C 87 % 1004,4 hPa 0,0 l/m 9,2 km/h (2 Bft) W 259 0 min 0,204 mm 0,6 UV-I 106 W/m 13,6 C 14,4 C 12,9 km/h (3 Bft) 100,00 %
13.06.2016 11:02 15,7 C 88 % 1004,4 hPa 0,0 l/m 14,2 km/h (3 Bft) SW 234 0 min 0,000 mm 0,8 UV-I 124 W/m 13,7 C 12,3 C 22,5 km/h (4 Bft) 98,11 %
13.06.2016 11:03 15,7 C 89 % 1004,4 hPa 0,0 l/m 9,2 km/h (2 Bft) SW 223 0 min 0,000 mm 1,0 UV-I 150 W/m 13,9 C 14,3 C 16,1 km/h (3 Bft) 100,00 %
13.06.2016 11:04 15,6 C 89 % 1004,4 hPa 0,0 l/m 19,1 km/h (3 Bft) SW 232 0 min 0,000 mm 1,1 UV-I 161 W/m 13,8 C 10,7 C 27,4 km/h (4 Bft) 95,83 %
13.06.2016 11:05 15,5 C 89 % 1004,4 hPa 0,0 l/m 12,3 km/h (3 Bft) SW 221 0 min 0,000 mm 1,1 UV-I 168 W/m 13,7 C 12,7 C 22,5 km/h (4 Bft) 91,67 %
13.06.2016 11:06 15,4 C 89 % 1004,4 hPa 0,0 l/m 13,2 km/h (3 Bft) SW 216 0 min 0,000 mm 1,1 UV-I 162 W/m 13,6 C 12,3 C 17,7 km/h (3 Bft) 96,15 %
13.06.2016 11:07 15,4 C 90 % 1004,4 hPa 0,0 l/m 11,7 km/h (2 Bft) W-SW 256 0 min 0,000 mm 1,1 UV-I 155 W/m 13,8 C 12,8 C 14,5 km/h (3 Bft) 96,55 %
13.06.2016 11:08 15,3 C 90 % 1004,4 hPa 0,2 l/m 11,7 km/h (2 Bft) W-SW 242 0 min 0,000 mm 1,0 UV-I 143 W/m 13,7 C 12,7 C 22,5 km/h (4 Bft) 100,00 %
13.06.2016 11:09 15,2 C 90 % 1004,4 hPa 0,0 l/m 8,7 km/h (2 Bft) SW 222 0 min 0,000 mm 0,9 UV-I 120 W/m 13,6 C 14,0 C 11,3 km/h (2 Bft) 91,67 %
13.06.2016 11:10 15,2 C 91 % 1004,4 hPa 0,0 l/m 13,9 km/h (3 Bft) W-SW 242 0 min 0,000 mm 0,7 UV-I 109 W/m 13,7 C 11,8 C 24,1 km/h (4 Bft) 100,00 %
13.06.2016 11:11 15,1 C 91 % 1004,4 hPa 0,2 l/m 16,9 km/h (3 Bft) S 188 0 min 0,000 mm 0,7 UV-I 104 W/m 13,6 C 10,7 C 20,9 km/h (4 Bft) 96,15 %
13.06.2016 11:12 15,0 C 91 % 1004,4 hPa 0,2 l/m 15,4 km/h (3 Bft) SW 227 0 min 0,000 mm 0,7 UV-I 101 W/m 13,5 C 11,1 C 24,1 km/h (4 Bft) 96,30 %
13.06.2016 11:13 14,9 C 91 % 1004,4 hPa 0,2 l/m 13,2 km/h (3 Bft) SW 220 0 min 0,000 mm 0,7 UV-I 102 W/m 13,4 C 11,7 C 17,7 km/h (3 Bft) 95,65 %
13.06.2016 11:14 14,8 C 91 % 1004,3 hPa 0,2 l/m 12,3 km/h (3 Bft) SW 223 0 min 0,000 mm 0,7 UV-I 105 W/m 13,3 C 11,9 C 16,1 km/h (3 Bft) 95,24 %
13.06.2016 11:15 14,8 C 92 % 1004,3 hPa 0,0 l/m 8,6 km/h (2 Bft) SW 215 0 min 0,000 mm 0,8 UV-I 108 W/m 13,5 C 13,6 C 16,1 km/h (3 Bft) 100,00 %
13.06.2016 11:16 14,7 C 92 % 1004,3 hPa 0,2 l/m 15,1 km/h (3 Bft) W-SW 250 0 min 0,000 mm 0,8 UV-I 113 W/m 13,4 C 10,8 C 20,9 km/h (4 Bft) 96,55 %
13.06.2016 11:17 14,7 C 92 % 1004,3 hPa 0,2 l/m 10,2 km/h (2 Bft) SW 214 0 min 0,000 mm 0,8 UV-I 117 W/m 13,4 C 12,7 C 14,5 km/h (3 Bft) 100,00 %
13.06.2016 11:18 14,6 C 92 % 1004,3 hPa 0,0 l/m 8,6 km/h (2 Bft) SW 234 0 min 0,000 mm 0,9 UV-I 122 W/m 13,3 C 13,4 C 14,5 km/h (3 Bft) 86,96 %
13.06.2016 11:19 14,6 C 93 % 1004,3 hPa 0,0 l/m 8,5 km/h (2 Bft) S-SW 208 0 min 0,000 mm 0,9 UV-I 128 W/m 13,5 C 13,4 C 11,3 km/h (2 Bft) 100,00 %
13.06.2016 11:20 14,6 C 93 % 1004,2 hPa 0,0 l/m 6,4 km/h (2 Bft) W-SW 241 0 min 0,000 mm 1,0 UV-I 134 W/m 13,5 C 14,6 C 12,9 km/h (3 Bft) 91,30 %
13.06.2016 11:21 14,6 C 93 % 1004,2 hPa 0,0 l/m 8,3 km/h (2 Bft) W-SW 253 0 min 0,000 mm 1,1 UV-I 143 W/m 13,5 C 13,5 C 14,5 km/h (3 Bft) 100,00 %
13.06.2016 11:22 14,6 C 93 % 1004,2 hPa 0,0 l/m 8,6 km/h (2 Bft) SW 223 0 min 0,000 mm 1,2 UV-I 153 W/m 13,5 C 13,4 C 14,5 km/h (3 Bft) 96,15 %
13.06.2016 11:23 14,6 C 93 % 1004,1 hPa 0,0 l/m 10,1 km/h (2 Bft) SW 215 0 min 0,000 mm 1,3 UV-I 164 W/m 13,5 C 12,6 C 14,5 km/h (3 Bft) 96,30 %
13.06.2016 11:24 14,6 C 94 % 1004,1 hPa 0,2 l/m 10,4 km/h (2 Bft) S-SW 192 0 min 0,000 mm 1,3 UV-I 175 W/m 13,6 C 12,5 C 16,1 km/h (3 Bft) 92,86 %
13.06.2016 11:25 14,6 C 94 % 1004,1 hPa 0,0 l/m 7,8 km/h (2 Bft) S-SW 199 0 min 0,000 mm 1,4 UV-I 183 W/m 13,6 C 13,8 C 11,3 km/h (2 Bft) 100,00 %
13.06.2016 11:26 14,6 C 94 % 1004,1 hPa 0,0 l/m 5,6 km/h (1 Bft) S-SW 202 0 min 0,000 mm 1,5 UV-I 201 W/m 13,6 C 14,6 C 14,5 km/h (3 Bft) 96,15 %
13.06.2016 11:27 14,6 C 93 % 1004,1 hPa 0,0 l/m 8,6 km/h (2 Bft) SW 221 0 min 0,000 mm 1,7 UV-I 224 W/m 13,5 C 13,4 C 12,9 km/h (3 Bft) 100,00 %
13.06.2016 11:28 14,7 C 94 % 1004,1 hPa 0,0 l/m 8,9 km/h (2 Bft) S-SW 199 0 min 0,000 mm 1,9 UV-I 249 W/m 13,7 C 13,3 C 12,9 km/h (3 Bft) 96,88 %
13.06.2016 11:29 14,7 C 94 % 1004,1 hPa 0,0 l/m 8,9 km/h (2 Bft) S 191 0 min 0,000 mm 1,9 UV-I 278 W/m 13,7 C 13,3 C 12,9 km/h (3 Bft) 96,30 %
13.06.2016 11:30 14,7 C 94 % 1004,1 hPa 0,0 l/m 5,8 km/h (2 Bft) SW 222 0 min 0,000 mm 2,3 UV-I 317 W/m 13,7 C 14,7 C 11,3 km/h (2 Bft) 100,00 %
13.06.2016 11:31 14,8 C 94 % 1004,0 hPa 0,0 l/m 9,3 km/h (2 Bft) S 176 0 min 0,000 mm 2,6 UV-I 342 W/m 13,8 C 13,2 C 16,1 km/h (3 Bft) 91,67 %
13.06.2016 11:32 14,8 C 94 % 1004,0 hPa 0,0 l/m 5,7 km/h (1 Bft) S 188 0 min 0,000 mm 2,7 UV-I 362 W/m 13,8 C 14,8 C 11,3 km/h (2 Bft) 100,00 %
13.06.2016 11:33 14,9 C 94 % 1004,0 hPa 0,0 l/m 6,1 km/h (2 Bft) S 185 0 min 0,000 mm 3,0 UV-I 440 W/m 13,9 C 14,9 C 9,7 km/h (2 Bft) 96,15 %
13.06.2016 11:34 14,9 C 94 % 1004,0 hPa 0,0 l/m 7,8 km/h (2 Bft) SW 216 1 min 0,000 mm 3,2 UV-I 473 W/m 13,9 C 14,1 C 11,3 km/h (2 Bft) 100,00 %
13.06.2016 11:35 15,1 C 95 % 1004,0 hPa 0,0 l/m 8,8 km/h (2 Bft) S 174 0 min 0,000 mm 3,2 UV-I 452 W/m 14,3 C 13,8 C 11,3 km/h (2 Bft) 97,56 %
13.06.2016 11:36 15,2 C 95 % 1004,0 hPa 0,0 l/m 9,9 km/h (2 Bft) SW 215 0 min 0,000 mm 3,1 UV-I 442 W/m 14,4 C 13,4 C 11,3 km/h (2 Bft) 100,00 %
13.06.2016 11:37 15,3 C 94 % 1004,0 hPa 0,0 l/m 9,5 km/h (2 Bft) S 175 0 min 0,000 mm 3,1 UV-I 444 W/m 14,3 C 13,7 C 16,1 km/h (3 Bft) 100,00 %
13.06.2016 11:38 15,3 C 95 % 1003,9 hPa 0,0 l/m 9,6 km/h (2 Bft) S-SW 204 0 min 0,000 mm 3,2 UV-I 454 W/m 14,5 C 13,6 C 14,5 km/h (3 Bft) 100,00 %
13.06.2016 11:39 15,4 C 94 % 1004,0 hPa 0,0 l/m 10,8 km/h (2 Bft) S-SW 198 1 min 0,000 mm 3,4 UV-I 478 W/m 14,4 C 13,2 C 16,1 km/h (3 Bft) 100,00 %
13.06.2016 11:40 15,6 C 94 % 1004,0 hPa 0,0 l/m 7,1 km/h (2 Bft) S 184 0 min 0,000 mm 3,4 UV-I 463 W/m 14,6 C 15,2 C 11,3 km/h (2 Bft) 100,00 %
13.06.2016 11:41 15,6 C 95 % 1004,0 hPa 0,0 l/m 9,7 km/h (2 Bft) SW 221 1 min 0,000 mm 3,6 UV-I 504 W/m 14,8 C 13,9 C 12,9 km/h (3 Bft) 100,00 %
13.06.2016 11:42 15,7 C 95 % 1004,0 hPa 0,0 l/m 6,4 km/h (2 Bft) S-SO 148 1 min 0,000 mm 3,9 UV-I 582 W/m 14,9 C 15,7 C 11,3 km/h (2 Bft) 95,83 %
13.06.2016 11:43 15,9 C 94 % 1003,9 hPa 0,0 l/m 8,0 km/h (2 Bft) W-SW 238 1 min 0,000 mm 3,9 UV-I 606 W/m 14,9 C 15,0 C 14,5 km/h (3 Bft) 96,15 %
13.06.2016 11:44 16,0 C 94 % 1003,9 hPa 0,0 l/m 12,5 km/h (3 Bft) SW 218 1 min 0,000 mm 3,7 UV-I 549 W/m 15,0 C 13,2 C 16,1 km/h (3 Bft) 100,00 %
13.06.2016 11:45 16,1 C 93 % 1003,9 hPa 0,0 l/m 10,0 km/h (2 Bft) SW 214 1 min 0,000 mm 3,6 UV-I 492 W/m 15,0 C 14,3 C 14,5 km/h (3 Bft) 100,00 %
13.06.2016 11:46 16,1 C 93 % 1003,9 hPa 0,0 l/m 8,7 km/h (2 Bft) SW 217 1 min 0,000 mm 3,7 UV-I 499 W/m 15,0 C 14,9 C 12,9 km/h (3 Bft) 100,00 %
13.06.2016 11:47 16,1 C 92 % 1003,9 hPa 0,0 l/m 8,0 km/h (2 Bft) S-SW 194 1 min 0,000 mm 3,8 UV-I 512 W/m 14,8 C 15,3 C 11,3 km/h (2 Bft) 100,00 %
13.06.2016 11:48 16,2 C 92 % 1003,9 hPa 0,0 l/m 9,1 km/h (2 Bft) S-SW 205 1 min 0,000 mm 3,8 UV-I 512 W/m 14,9 C 14,8 C 12,9 km/h (3 Bft) 100,00 %
13.06.2016 11:49 16,2 C 92 % 1003,9 hPa 0,0 l/m 4,7 km/h (1 Bft) SW 230 1 min 0,000 mm 3,5 UV-I 483 W/m 14,9 C 16,2 C 6,4 km/h (2 Bft) 100,00 %
13.06.2016 11:50 16,3 C 92 % 1003,9 hPa 0,0 l/m 8,8 km/h (2 Bft) S-SW 206 1 min 0,000 mm 3,7 UV-I 478 W/m 15,0 C 15,1 C 16,1 km/h (3 Bft) 100,00 %
13.06.2016 11:51 16,3 C 90 % 1003,8 hPa 0,0 l/m 12,5 km/h (3 Bft) S-SO 167 1 min 0,000 mm 4,1 UV-I 540 W/m 14,7 C 13,6 C 17,7 km/h (3 Bft) 100,00 %
13.06.2016 11:52 16,3 C 90 % 1003,8 hPa 0,0 l/m 9,5 km/h (2 Bft) S-SO 163 1 min 0,000 mm 4,1 UV-I 550 W/m 14,7 C 14,8 C 12,9 km/h (3 Bft) 100,00 %
13.06.2016 11:53 16,4 C 89 % 1003,9 hPa 0,0 l/m 4,0 km/h (1 Bft) W-SW 239 1 min 0,000 mm 5,6 UV-I 550 W/m 14,6 C 16,4 C 6,4 km/h (2 Bft) 100,00 %
13.06.2016 11:54 16,6 C 91 % 1003,8 hPa 0,0 l/m 4,5 km/h (1 Bft) S-SW 203 1 min 0,000 mm 5,9 UV-I 550 W/m 15,1 C 16,6 C 8,0 km/h (2 Bft) 96,15 %
13.06.2016 11:55 16,8 C 91 % 1003,8 hPa 0,0 l/m 5,9 km/h (2 Bft) S-SW 198 1 min 0,000 mm 5,2 UV-I 682 W/m 15,3 C 16,8 C 11,3 km/h (2 Bft) 100,00 %
13.06.2016 11:56 16,9 C 90 % 1003,8 hPa 0,0 l/m 7,7 km/h (2 Bft) SW 217 1 min 0,000 mm 4,6 UV-I 847 W/m 15,2 C 16,2 C 14,5 km/h (3 Bft) 100,00 %
13.06.2016 11:57 17,1 C 89 % 1003,8 hPa 0,0 l/m 10,5 km/h (2 Bft) S 182 1 min 0,000 mm 4,5 UV-I 671 W/m 15,3 C 15,2 C 14,5 km/h (3 Bft) 100,00 %
13.06.2016 11:58 17,1 C 87 % 1003,8 hPa 0,0 l/m 8,1 km/h (2 Bft) S 180 1 min 0,000 mm 4,7 UV-I 728 W/m 14,9 C 16,3 C 12,9 km/h (3 Bft) 100,00 %
13.06.2016 11:59 17,2 C 87 % 1003,8 hPa 0,0 l/m 7,4 km/h (2 Bft) SW 231 1 min 0,000 mm 4,1 UV-I 728 W/m 15,0 C 16,7 C 11,3 km/h (2 Bft) 100,00 %
13.06.2016 12:00 17,2 C 87 % 1003,7 hPa 0,0 l/m 9,3 km/h (2 Bft) S-SW 192 1 min 0,000 mm 4,0 UV-I 621 W/m 15,0 C 15,8 C 14,5 km/h (3 Bft) 100,00 %
13.06.2016 12:02 17,2 C 86 % 1003,7 hPa 0,0 l/m 10,1 km/h (2 Bft) SW 215 0 min 0,203 mm 3,9 UV-I 422 W/m 14,8 C 15,5 C 14,5 km/h (3 Bft) 100,00 %
13.06.2016 12:03 17,2 C 87 % 1003,7 hPa 0,0 l/m 10,4 km/h (2 Bft) SW 234 0 min 0,000 mm 5,6 UV-I 439 W/m 15,0 C 15,4 C 16,1 km/h (3 Bft) 100,00 %
13.06.2016 12:04 17,3 C 88 % 1003,7 hPa 0,0 l/m 12,4 km/h (3 Bft) SW 215 1 min 0,000 mm 5,9 UV-I 511 W/m 15,3 C 14,8 C 16,1 km/h (3 Bft) 96,15 %
13.06.2016 12:05 17,4 C 87 % 1003,7 hPa 0,0 l/m 11,5 km/h (2 Bft) SW 235 1 min 0,000 mm 5,9 UV-I 880 W/m 15,2 C 15,2 C 17,7 km/h (3 Bft) 100,00 %
13.06.2016 12:06 17,4 C 86 % 1003,7 hPa 0,0 l/m 9,7 km/h (2 Bft) SW 221 1 min 0,000 mm 5,9 UV-I 888 W/m 15,0 C 15,9 C 17,7 km/h (3 Bft) 100,00 %
13.06.2016 12:07 17,5 C 83 % 1003,7 hPa 0,0 l/m 9,5 km/h (2 Bft) W 270 1 min 0,000 mm 5,9 UV-I 878 W/m 14,6 C 16,1 C 12,9 km/h (3 Bft) 100,00 %
13.06.2016 12:08 17,6 C 85 % 1003,6 hPa 0,0 l/m 8,6 km/h (2 Bft) SW 225 1 min 0,000 mm 5,9 UV-I 871 W/m 15,0 C 16,6 C 12,9 km/h (3 Bft) 100,00 %
13.06.2016 12:09 17,7 C 85 % 1003,7 hPa 0,0 l/m 10,1 km/h (2 Bft) SW 215 1 min 0,000 mm 5,9 UV-I 868 W/m 15,1 C 16,1 C 16,1 km/h (3 Bft) 100,00 %
13.06.2016 12:10 17,7 C 83 % 1003,6 hPa 0,0 l/m 10,6 km/h (2 Bft) W-SW 244 1 min 0,000 mm 5,9 UV-I 868 W/m 14,8 C 15,9 C 16,1 km/h (3 Bft) 96,88 %
13.06.2016 12:11 17,7 C 82 % 1003,6 hPa 0,0 l/m 8,7 km/h (2 Bft) W-SW 246 1 min 0,000 mm 6,0 UV-I 872 W/m 14,6 C 16,6 C 14,5 km/h (3 Bft) 100,00 %
13.06.2016 12:12 17,8 C 83 % 1003,6 hPa 0,0 l/m 7,0 km/h (2 Bft) S-SW 192 1 min 0,000 mm 6,0 UV-I 873 W/m 14,9 C 17,5 C 16,1 km/h (3 Bft) 100,00 %
13.06.2016 12:13 17,8 C 81 % 1003,5 hPa 0,0 l/m 10,4 km/h (2 Bft) S-SO 156 1 min 0,000 mm 6,0 UV-I 875 W/m 14,5 C 16,1 C 19,3 km/h (3 Bft) 100,00 %
13.06.2016 12:14 17,8 C 81 % 1003,5 hPa 0,0 l/m 10,5 km/h (2 Bft) W-SW 237 1 min 0,000 mm 6,0 UV-I 875 W/m 14,5 C 16,0 C 16,1 km/h (3 Bft) 100,00 %
13.06.2016 12:15 17,9 C 83 % 1003,5 hPa 0,0 l/m 7,6 km/h (2 Bft) S-SW 197 1 min 0,000 mm 6,0 UV-I 879 W/m 15,0 C 17,3 C 11,3 km/h (2 Bft) 100,00 %
13.06.2016 12:16 18,0 C 83 % 1003,4 hPa 0,0 l/m 7,4 km/h (2 Bft) SW 217 1 min 0,000 mm 6,0 UV-I 887 W/m 15,1 C 17,5 C 9,7 km/h (2 Bft) 100,00 %
13.06.2016 12:17 18,1 C 82 % 1003,4 hPa 0,0 l/m 8,6 km/h (2 Bft) S-SW 208 1 min 0,000 mm 6,0 UV-I 895 W/m 15,0 C 17,1 C 14,5 km/h (3 Bft) 95,65 %
13.06.2016 12:18 18,1 C 82 % 1003,4 hPa 0,0 l/m 5,7 km/h (1 Bft) W-SW 255 1 min 0,000 mm 6,1 UV-I 923 W/m 15,0 C 18,1 C 6,4 km/h (2 Bft) 100,00 %
13.06.2016 12:19 18,2 C 87 % 1003,4 hPa 0,0 l/m 5,9 km/h (2 Bft) W 263 1 min 0,000 mm 6,2 UV-I 935 W/m 16,0 C 18,2 C 11,3 km/h (2 Bft) 100,00 %
13.06.2016 12:20 18,4 C 84 % 1003,4 hPa 0,0 l/m 9,9 km/h (2 Bft) W-SW 252 1 min 0,000 mm 6,2 UV-I 935 W/m 15,6 C 16,9 C 19,3 km/h (3 Bft) 100,00 %
13.06.2016 12:21 18,5 C 81 % 1003,4 hPa 0,0 l/m 10,6 km/h (2 Bft) SW 219 1 min 0,000 mm 6,3 UV-I 965 W/m 15,2 C 16,8 C 16,1 km/h (3 Bft) 95,65 %
13.06.2016 12:22 18,6 C 81 % 1003,4 hPa 0,0 l/m 15,0 km/h (3 Bft) W-SW 250 1 min 0,000 mm 6,2 UV-I 924 W/m 15,3 C 15,6 C 24,1 km/h (4 Bft) 96,30 %
13.06.2016 12:23 18,6 C 80 % 1003,4 hPa 0,0 l/m 13,4 km/h (3 Bft) W-SW 257 1 min 0,000 mm 6,2 UV-I 888 W/m 15,1 C 16,0 C 16,1 km/h (3 Bft) 100,00 %
13.06.2016 12:24 18,6 C 80 % 1003,3 hPa 0,0 l/m 8,5 km/h (2 Bft) W-NW 286 1 min 0,000 mm 6,3 UV-I 937 W/m 15,1 C 17,7 C 12,9 km/h (3 Bft) 92,59 %
13.06.2016 12:25 18,7 C 79 % 1003,4 hPa 0,0 l/m 12,5 km/h (3 Bft) S 188 1 min 0,000 mm 6,4 UV-I 956 W/m 15,0 C 16,4 C 16,1 km/h (3 Bft) 93,33 %
13.06.2016 12:26 18,7 C 77 % 1003,3 hPa 0,0 l/m 9,0 km/h (2 Bft) W-SW 237 1 min 0,000 mm 6,6 UV-I 1012 W/m 14,6 C 17,6 C 12,9 km/h (3 Bft) 96,97 %
13.06.2016 12:27 18,7 C 80 % 1003,3 hPa 0,0 l/m 6,9 km/h (2 Bft) W-NW 293 1 min 0,000 mm 4,5 UV-I 1014 W/m 15,2 C 18,5 C 9,7 km/h (2 Bft) 100,00 %
13.06.2016 12:28 18,8 C 82 % 1003,3 hPa 0,0 l/m 11,7 km/h (2 Bft) W 280 1 min 0,000 mm 6,5 UV-I 1012 W/m 15,7 C 16,7 C 19,3 km/h (3 Bft) 95,83 %
13.06.2016 12:29 18,8 C 77 % 1003,3 hPa 0,0 l/m 9,8 km/h (2 Bft) W 271 1 min 0,000 mm 6,7 UV-I 1013 W/m 14,7 C 17,4 C 12,9 km/h (3 Bft) 100,00 %
13.06.2016 12:30 18,9 C 81 % 1003,2 hPa 0,0 l/m 11,9 km/h (2 Bft) SW 234 1 min 0,000 mm 6,0 UV-I 1021 W/m 15,6 C 16,8 C 16,1 km/h (3 Bft) 95,83 %
13.06.2016 12:31 18,9 C 78 % 1003,2 hPa 0,0 l/m 14,6 km/h (3 Bft) W 267 1 min 0,000 mm 6,0 UV-I 1021 W/m 15,0 C 16,0 C 17,7 km/h (3 Bft) 100,00 %
13.06.2016 12:32 18,9 C 78 % 1003,2 hPa 0,0 l/m 8,3 km/h (2 Bft) SW 225 1 min 0,000 mm 6,7 UV-I 1034 W/m 15,0 C 18,1 C 16,1 km/h (3 Bft) 100,00 %
13.06.2016 12:33 18,9 C 78 % 1003,1 hPa 0,0 l/m 11,1 km/h (2 Bft) W-SW 248 1 min 0,000 mm 6,7 UV-I 1028 W/m 15,0 C 17,0 C 14,5 km/h (3 Bft) 100,00 %
13.06.2016 12:34 18,8 C 75 % 1003,1 hPa 0,0 l/m 6,1 km/h (2 Bft) W 265 1 min 0,000 mm 6,7 UV-I 1028 W/m 14,3 C 18,8 C 9,7 km/h (2 Bft) 100,00 %
13.06.2016 12:35 18,8 C 77 % 1003,1 hPa 0,0 l/m 7,1 km/h (2 Bft) W-SW 252 1 min 0,000 mm 6,4 UV-I 1028 W/m 14,7 C 18,5 C 12,9 km/h (3 Bft) 100,00 %
13.06.2016 12:36 18,9 C 78 % 1003,1 hPa 0,0 l/m 6,8 km/h (2 Bft) W-SW 247 1 min 0,000 mm 6,1 UV-I 1028 W/m 15,0 C 18,7 C 8,0 km/h (2 Bft) 96,88 %
13.06.2016 12:37 18,9 C 77 % 1003,0 hPa 0,0 l/m 6,4 km/h (2 Bft) SW 218 1 min 0,000 mm 4,4 UV-I 1028 W/m 14,8 C 18,9 C 9,7 km/h (2 Bft) 100,00 %
13.06.2016 12:38 18,9 C 80 % 1003,0 hPa 0,0 l/m 7,0 km/h (2 Bft) W-SW 237 1 min 0,000 mm 6,4 UV-I 1028 W/m 15,4 C 18,6 C 11,3 km/h (2 Bft) 98,72 %
13.06.2016 12:39 19,1 C 79 % 1003,0 hPa 0,0 l/m 10,3 km/h (2 Bft) S-SW 207 1 min 0,000 mm 6,4 UV-I 1051 W/m 15,4 C 17,5 C 16,1 km/h (3 Bft) 100,00 %
13.06.2016 12:40 19,1 C 78 % 1002,9 hPa 0,0 l/m 13,1 km/h (3 Bft) SW 235 1 min 0,000 mm 3,1 UV-I 710 W/m 15,2 C 16,7 C 17,7 km/h (3 Bft) 100,00 %
13.06.2016 12:41 19,1 C 77 % 1002,9 hPa 0,0 l/m 10,5 km/h (2 Bft) W 269 0 min 0,000 mm 2,8 UV-I 268 W/m 15,0 C 17,5 C 14,5 km/h (3 Bft) 100,00 %
13.06.2016 12:42 19,0 C 76 % 1002,9 hPa 0,0 l/m 8,8 km/h (2 Bft) S-SO 165 0 min 0,000 mm 2,7 UV-I 261 W/m 14,7 C 18,0 C 12,9 km/h (3 Bft) 100,00 %
13.06.2016 12:43 18,9 C 74 % 1002,9 hPa 0,0 l/m 12,3 km/h (3 Bft) S 174 0 min 0,000 mm 2,5 UV-I 252 W/m 14,2 C 16,7 C 17,7 km/h (3 Bft) 96,30 %
13.06.2016 12:44 18,8 C 75 % 1002,9 hPa 0,0 l/m 11,0 km/h (2 Bft) S-SW 213 0 min 0,000 mm 2,4 UV-I 247 W/m 14,3 C 17,0 C 16,1 km/h (3 Bft) 100,00 %
13.06.2016 12:45 18,7 C 76 % 1002,9 hPa 0,0 l/m 13,5 km/h (3 Bft) W-SW 242 0 min 0,000 mm 2,4 UV-I 249 W/m 14,4 C 16,1 C 20,9 km/h (4 Bft) 100,00 %
13.06.2016 12:46 18,6 C 76 % 1002,8 hPa 0,0 l/m 11,9 km/h (2 Bft) W-SW 240 0 min 0,000 mm 2,5 UV-I 261 W/m 14,3 C 16,4 C 16,1 km/h (3 Bft) 100,00 %
13.06.2016 12:47 18,6 C 75 % 1002,8 hPa 0,0 l/m 10,3 km/h (2 Bft) S-SO 166 0 min 0,000 mm 2,8 UV-I 285 W/m 14,1 C 17,0 C 12,9 km/h (3 Bft) 100,00 %
13.06.2016 12:48 18,5 C 77 % 1002,8 hPa 0,0 l/m 10,4 km/h (2 Bft) SW 230 0 min 0,000 mm 3,0 UV-I 309 W/m 14,4 C 16,8 C 14,5 km/h (3 Bft) 100,00 %
13.06.2016 12:49 18,5 C 78 % 1002,8 hPa 0,0 l/m 8,0 km/h (2 Bft) SW 234 0 min 0,000 mm 3,2 UV-I 320 W/m 14,6 C 17,8 C 12,9 km/h (3 Bft) 96,55 %
13.06.2016 12:50 18,6 C 78 % 1002,8 hPa 0,0 l/m 7,1 km/h (2 Bft) W-SW 242 0 min 0,000 mm 3,3 UV-I 324 W/m 14,7 C 18,3 C 11,3 km/h (2 Bft) 100,00 %
13.06.2016 12:51 18,6 C 76 % 1002,8 hPa 0,0 l/m 8,3 km/h (2 Bft) SW 227 0 min 0,000 mm 3,5 UV-I 411 W/m 14,3 C 17,8 C 11,3 km/h (2 Bft) 100,00 %
13.06.2016 12:52 18,6 C 76 % 1002,7 hPa 0,0 l/m 11,1 km/h (2 Bft) W-SW 247 0 min 0,000 mm 3,8 UV-I 415 W/m 14,3 C 16,7 C 14,5 km/h (3 Bft) 100,00 %
13.06.2016 12:53 18,6 C 75 % 1002,7 hPa 0,0 l/m 4,9 km/h (1 Bft) W-SW 257 1 min 0,000 mm 6,3 UV-I 654 W/m 14,1 C 18,6 C 8,0 km/h (2 Bft) 96,55 %
13.06.2016 12:54 18,8 C 80 % 1002,7 hPa 0,0 l/m 6,2 km/h (2 Bft) W-SW 242 1 min 0,000 mm 5,6 UV-I 849 W/m 15,3 C 18,8 C 9,7 km/h (2 Bft) 100,00 %
13.06.2016 12:55 18,9 C 79 % 1002,6 hPa 0,0 l/m 4,9 km/h (1 Bft) W 271 1 min 0,000 mm 3,8 UV-I 849 W/m 15,2 C 18,9 C 9,7 km/h (2 Bft) 95,65 %
13.06.2016 12:56 19,0 C 77 % 1002,6 hPa 0,0 l/m 13,6 km/h (3 Bft) W-SW 244 0 min 0,000 mm 3,2 UV-I 406 W/m 14,9 C 16,4 C 22,5 km/h (4 Bft) 100,00 %
13.06.2016 12:57 19,0 C 75 % 1002,6 hPa 0,0 l/m 14,1 km/h (3 Bft) W 259 0 min 0,000 mm 3,1 UV-I 357 W/m 14,5 C 16,3 C 19,3 km/h (3 Bft) 91,30 %
13.06.2016 12:58 19,0 C 75 % 1002,5 hPa 0,0 l/m 12,1 km/h (2 Bft) W-SW 254 0 min 0,000 mm 3,3 UV-I 376 W/m 14,5 C 16,8 C 17,7 km/h (3 Bft) 95,83 %
13.06.2016 12:59 18,9 C 75 % 1002,6 hPa 0,0 l/m 9,7 km/h (2 Bft) W 281 0 min 0,000 mm 3,4 UV-I 391 W/m 14,4 C 17,5 C 14,5 km/h (3 Bft) 100,00 %
13.06.2016 13:00 18,9 C 75 % 1002,5 hPa 0,0 l/m 5,6 km/h (1 Bft) W-SW 244 0 min 0,406 mm 3,5 UV-I 405 W/m 14,4 C 18,9 C 6,4 km/h (2 Bft) 96,43 %
13.06.2016 13:02 18,9 C 75 % 1002,5 hPa 0,0 l/m 12,6 km/h (3 Bft) S-SW 206 0 min 0,000 mm 3,8 UV-I 442 W/m 14,4 C 16,6 C 19,3 km/h (3 Bft) 97,56 %
13.06.2016 13:03 18,9 C 75 % 1002,4 hPa 0,0 l/m 9,1 km/h (2 Bft) SW 217 0 min 0,000 mm 3,7 UV-I 445 W/m 14,4 C 17,8 C 16,1 km/h (3 Bft) 100,00 %
13.06.2016 13:04 18,8 C 74 % 1002,4 hPa 0,0 l/m 16,0 km/h (3 Bft) S-SW 197 0 min 0,000 mm 2,7 UV-I 405 W/m 14,1 C 15,5 C 20,9 km/h (4 Bft) 96,30 %
13.06.2016 13:05 18,8 C 74 % 1002,4 hPa 0,0 l/m 13,3 km/h (3 Bft) S-SW 192 0 min 0,000 mm 2,2 UV-I 275 W/m 14,1 C 16,3 C 19,3 km/h (3 Bft) 100,00 %
13.06.2016 13:06 18,7 C 74 % 1002,4 hPa 0,0 l/m 8,8 km/h (2 Bft) SW 214 0 min 0,000 mm 1,8 UV-I 232 W/m 14,0 C 17,7 C 14,5 km/h (3 Bft) 96,15 %
13.06.2016 13:07 18,7 C 73 % 1002,4 hPa 0,0 l/m 11,8 km/h (2 Bft) SW 226 0 min 0,000 mm 1,4 UV-I 184 W/m 13,8 C 16,6 C 16,1 km/h (3 Bft) 100,00 %
13.06.2016 13:08 18,6 C 74 % 1002,4 hPa 0,0 l/m 12,3 km/h (3 Bft) SW 225 0 min 0,000 mm 1,1 UV-I 147 W/m 13,9 C 16,3 C 14,5 km/h (3 Bft) 92,86 %
13.06.2016 13:09 18,5 C 74 % 1002,4 hPa 0,0 l/m 9,7 km/h (2 Bft) W-SW 240 0 min 0,000 mm 0,9 UV-I 133 W/m 13,8 C 17,1 C 12,9 km/h (3 Bft) 97,56 %
13.06.2016 13:10 18,4 C 76 % 1002,4 hPa 0,0 l/m 14,1 km/h (3 Bft) W-SW 251 0 min 0,000 mm 0,9 UV-I 131 W/m 14,1 C 15,6 C 24,1 km/h (4 Bft) 100,00 %
13.06.2016 13:11 18,4 C 76 % 1002,5 hPa 0,0 l/m 16,9 km/h (3 Bft) W-SW 245 0 min 0,000 mm 0,9 UV-I 133 W/m 14,1 C 14,8 C 22,5 km/h (4 Bft) 93,33 %
13.06.2016 13:12 18,3 C 78 % 1002,6 hPa 0,0 l/m 15,2 km/h (3 Bft) W-SW 248 0 min 0,000 mm 0,9 UV-I 134 W/m 14,4 C 15,1 C 22,5 km/h (4 Bft) 100,00 %
13.06.2016 13:13 18,2 C 79 % 1002,6 hPa 0,0 l/m 14,1 km/h (3 Bft) W-SW 255 0 min 0,000 mm 0,9 UV-I 131 W/m 14,5 C 15,3 C 22,5 km/h (4 Bft) 95,83 %
13.06.2016 13:14 18,1 C 79 % 1002,6 hPa 0,2 l/m 21,5 km/h (4 Bft) W-SW 242 0 min 0,000 mm 0,9 UV-I 128 W/m 14,4 C 13,4 C 29,0 km/h (5 Bft) 95,65 %
13.06.2016 13:15 17,8 C 81 % 1002,5 hPa 0,2 l/m 13,4 km/h (3 Bft) W 271 0 min 0,000 mm 0,9 UV-I 128 W/m 14,5 C 15,1 C 20,9 km/h (4 Bft) 79,17 %
13.06.2016 13:16 17,6 C 82 % 1002,6 hPa 0,2 l/m 10,3 km/h (2 Bft) SW 236 0 min 0,000 mm 0,9 UV-I 133 W/m 14,5 C 15,9 C 12,9 km/h (3 Bft) 78,26 %
13.06.2016 13:17 17,3 C 84 % 1002,6 hPa 0,2 l/m 10,0 km/h (2 Bft) N-NW 335 0 min 0,000 mm 1,0 UV-I 140 W/m 14,6 C 15,7 C 14,5 km/h (3 Bft) 100,00 %
13.06.2016 13:18 17,1 C 85 % 1002,6 hPa 0,2 l/m 12,7 km/h (3 Bft) W-SW 253 0 min 0,000 mm 1,2 UV-I 148 W/m 14,6 C 14,5 C 19,3 km/h (3 Bft) 96,88 %
13.06.2016 13:19 16,8 C 86 % 1002,6 hPa 0,2 l/m 13,4 km/h (3 Bft) W-SW 255 0 min 0,000 mm 1,2 UV-I 154 W/m 14,4 C 13,9 C 17,7 km/h (3 Bft) 96,30 %
13.06.2016 13:20 16,6 C 86 % 1002,6 hPa 0,2 l/m 16,2 km/h (3 Bft) W-SW 250 0 min 0,000 mm 1,2 UV-I 158 W/m 14,2 C 12,8 C 22,5 km/h (4 Bft) 94,12 %
13.06.2016 13:21 16,4 C 87 % 1002,5 hPa 0,0 l/m 12,1 km/h (2 Bft) SW 233 0 min 0,000 mm 1,2 UV-I 161 W/m 14,2 C 13,8 C 17,7 km/h (3 Bft) 100,00 %
13.06.2016 13:22 16,3 C 88 % 1002,5 hPa 0,4 l/m 6,7 km/h (2 Bft) W-SW 248 0 min 0,000 mm 1,2 UV-I 166 W/m 14,3 C 16,2 C 12,9 km/h (3 Bft) 95,00 %
13.06.2016 13:23 16,2 C 89 % 1002,5 hPa 0,4 l/m 5,5 km/h (1 Bft) W 267 0 min 0,000 mm 1,3 UV-I 172 W/m 14,4 C 16,2 C 11,3 km/h (2 Bft) 100,00 %
13.06.2016 13:24 16,1 C 89 % 1002,5 hPa 0,2 l/m 4,2 km/h (1 Bft) W-SW 252 0 min 0,000 mm 1,4 UV-I 182 W/m 14,3 C 16,1 C 6,4 km/h (2 Bft) 91,30 %
13.06.2016 13:25 16,1 C 89 % 1002,4 hPa 0,2 l/m 3,6 km/h (1 Bft) W-SW 247 0 min 0,000 mm 1,5 UV-I 199 W/m 14,3 C 16,1 C 6,4 km/h (2 Bft) 95,83 %
13.06.2016 13:26 16,0 C 89 % 1002,4 hPa 0,0 l/m 4,5 km/h (1 Bft) W-SW 248 0 min 0,000 mm 1,7 UV-I 222 W/m 14,2 C 16,0 C 6,4 km/h (2 Bft) 100,00 %
13.06.2016 13:27 15,9 C 89 % 1002,4 hPa 0,0 l/m 2,9 km/h (1 Bft) W-SW 257 0 min 0,000 mm 1,8 UV-I 242 W/m 14,1 C 15,9 C 4,8 km/h (1 Bft) 95,83 %
13.06.2016 13:28 16,0 C 91 % 1002,4 hPa 0,0 l/m 3,5 km/h (1 Bft) W-SW 253 0 min 0,000 mm 2,1 UV-I 264 W/m 14,5 C 16,0 C 4,8 km/h (1 Bft) 100,00 %
13.06.2016 13:29 16,0 C 91 % 1002,4 hPa 0,0 l/m 1,3 km/h (1 Bft) W-SW 253 0 min 0,000 mm 2,2 UV-I 292 W/m 14,5 C 16,0 C 3,2 km/h (1 Bft) 96,15 %
13.06.2016 13:30 16,1 C 92 % 1002,4 hPa 0,2 l/m 1,8 km/h (1 Bft) W-SW 253 0 min 0,000 mm 2,4 UV-I 320 W/m 14,8 C 16,1 C 3,2 km/h (1 Bft) 100,00 %
13.06.2016 13:31 16,1 C 91 % 1002,4 hPa 0,0 l/m 1,9 km/h (1 Bft) W-SW 253 0 min 0,000 mm 2,7 UV-I 353 W/m 14,6 C 16,1 C 3,2 km/h (1 Bft) 96,15 %
13.06.2016 13:32 16,1 C 90 % 1002,4 hPa 0,0 l/m 1,7 km/h (1 Bft) W-SW 253 0 min 0,000 mm 2,9 UV-I 382 W/m 14,5 C 16,1 C 3,2 km/h (1 Bft) 100,00 %
13.06.2016 13:33 16,2 C 92 % 1002,4 hPa 0,0 l/m 0,7 km/h (0 Bft) W-SW 253 0 min 0,000 mm 3,1 UV-I 402 W/m 14,9 C 16,2 C 1,6 km/h (1 Bft) 100,00 %
13.06.2016 13:34 16,3 C 91 % 1002,3 hPa 0,0 l/m 0,2 km/h (0 Bft) W-SW 253 0 min 0,000 mm 3,2 UV-I 422 W/m 14,8 C 16,3 C 1,6 km/h (1 Bft) 100,00 %
13.06.2016 13:35 16,3 C 91 % 1002,4 hPa 0,0 l/m 0,2 km/h (0 Bft) W-SW 253 0 min 0,000 mm 3,3 UV-I 437 W/m 14,8 C 16,3 C 1,6 km/h (1 Bft) 100,00 %
13.06.2016 13:36 16,4 C 91 % 1002,4 hPa 0,0 l/m 1,7 km/h (1 Bft) W-SW 253 0 min 0,000 mm 3,5 UV-I 453 W/m 14,9 C 16,4 C 3,2 km/h (1 Bft) 96,30 %
13.06.2016 13:37 16,6 C 90 % 1002,4 hPa 0,0 l/m 0,5 km/h (0 Bft) W-SW 253 1 min 0,000 mm 3,8 UV-I 518 W/m 15,0 C 16,6 C 1,6 km/h (1 Bft) 95,65 %
13.06.2016 13:38 16,8 C 91 % 1002,4 hPa 0,0 l/m 1,0 km/h (0 Bft) W-SW 253 1 min 0,000 mm 3,9 UV-I 535 W/m 15,3 C 16,8 C 3,2 km/h (1 Bft) 100,00 %
13.06.2016 13:39 16,9 C 91 % 1002,4 hPa 0,0 l/m 0,4 km/h (0 Bft) W-SW 253 1 min 0,000 mm 3,9 UV-I 517 W/m 15,4 C 16,9 C 1,6 km/h (1 Bft) 96,15 %
13.06.2016 13:40 17,1 C 90 % 1002,4 hPa 0,0 l/m 0,7 km/h (0 Bft) W-SW 253 1 min 0,000 mm 3,9 UV-I 512 W/m 15,4 C 17,1 C 1,6 km/h (1 Bft) 95,83 %
13.06.2016 13:41 17,2 C 90 % 1002,4 hPa 0,0 l/m 1,3 km/h (1 Bft) W-SW 253 1 min 0,000 mm 3,8 UV-I 504 W/m 15,5 C 17,2 C 3,2 km/h (1 Bft) 100,00 %
13.06.2016 13:42 17,3 C 89 % 1002,4 hPa 0,0 l/m 1,9 km/h (1 Bft) W 272 1 min 0,000 mm 3,8 UV-I 499 W/m 15,5 C 17,3 C 3,2 km/h (1 Bft) 100,00 %
13.06.2016 13:43 17,3 C 88 % 1002,4 hPa 0,0 l/m 2,3 km/h (1 Bft) W 273 1 min 0,000 mm 3,7 UV-I 489 W/m 15,3 C 17,3 C 3,2 km/h (1 Bft) 100,00 %
13.06.2016 13:44 17,4 C 88 % 1002,4 hPa 0,0 l/m 0,9 km/h (0 Bft) NW 309 0 min 0,000 mm 3,7 UV-I 477 W/m 15,4 C 17,4 C 3,2 km/h (1 Bft) 100,00 %
13.06.2016 13:45 17,4 C 88 % 1002,4 hPa 0,0 l/m 2,4 km/h (1 Bft) NW 309 0 min 0,000 mm 3,6 UV-I 469 W/m 15,4 C 17,4 C 3,2 km/h (1 Bft) 91,30 %
13.06.2016 13:46 17,5 C 88 % 1002,4 hPa 0,0 l/m 1,4 km/h (1 Bft) NW 309 0 min 0,000 mm 3,6 UV-I 454 W/m 15,5 C 17,5 C 3,2 km/h (1 Bft) 100,00 %
13.06.2016 13:47 17,6 C 90 % 1002,4 hPa 0,0 l/m 1,8 km/h (1 Bft) NW 309 0 min 0,000 mm 3,5 UV-I 435 W/m 15,9 C 17,6 C 3,2 km/h (1 Bft) 100,00 %
13.06.2016 13:48 17,6 C 88 % 1002,4 hPa 0,0 l/m 3,2 km/h (1 Bft) W-NW 302 0 min 0,000 mm 3,4 UV-I 420 W/m 15,6 C 17,6 C 4,8 km/h (1 Bft) 100,00 %
13.06.2016 13:49 17,6 C 87 % 1002,3 hPa 0,0 l/m 2,5 km/h (1 Bft) W-NW 284 0 min 0,000 mm 3,3 UV-I 406 W/m 15,4 C 17,6 C 6,4 km/h (2 Bft) 100,00 %
13.06.2016 13:50 17,6 C 88 % 1002,3 hPa 0,0 l/m 2,0 km/h (1 Bft) W 278 0 min 0,000 mm 3,3 UV-I 396 W/m 15,6 C 17,6 C 6,4 km/h (2 Bft) 96,15 %
13.06.2016 13:51 17,7 C 88 % 1002,3 hPa 0,0 l/m 0,6 km/h (0 Bft) NW 307 0 min 0,000 mm 3,2 UV-I 392 W/m 15,7 C 17,7 C 3,2 km/h (1 Bft) 100,00 %
13.06.2016 13:52 17,7 C 87 % 1002,3 hPa 0,0 l/m 1,2 km/h (1 Bft) NW 308 0 min 0,000 mm 3,2 UV-I 395 W/m 15,5 C 17,7 C 3,2 km/h (1 Bft) 100,00 %
13.06.2016 13:53 17,7 C 86 % 1002,2 hPa 0,0 l/m 1,5 km/h (1 Bft) NW 308 0 min 0,000 mm 3,3 UV-I 402 W/m 15,3 C 17,7 C 3,2 km/h (1 Bft) 100,00 %
13.06.2016 13:54 17,7 C 88 % 1002,2 hPa 0,0 l/m 2,1 km/h (1 Bft) W-NW 289 0 min 0,000 mm 3,3 UV-I 413 W/m 15,7 C 17,7 C 3,2 km/h (1 Bft) 100,00 %
13.06.2016 13:55 17,8 C 87 % 1002,2 hPa 0,0 l/m 1,0 km/h (0 Bft) W-NW 290 0 min 0,000 mm 3,5 UV-I 419 W/m 15,6 C 17,8 C 1,6 km/h (1 Bft) 100,00 %
13.06.2016 13:56 17,8 C 86 % 1002,2 hPa 0,0 l/m 3,0 km/h (1 Bft) W-NW 302 0 min 0,000 mm 3,1 UV-I 379 W/m 15,4 C 17,8 C 4,8 km/h (1 Bft) 100,00 %
13.06.2016 13:57 17,9 C 84 % 1002,2 hPa 0,0 l/m 1,7 km/h (1 Bft) W-NW 302 0 min 0,000 mm 2,9 UV-I 349 W/m 15,2 C 17,9 C 3,2 km/h (1 Bft) 100,00 %
13.06.2016 13:58 17,9 C 83 % 1002,2 hPa 0,0 l/m 3,6 km/h (1 Bft) W 268 0 min 0,000 mm 2,7 UV-I 319 W/m 15,0 C 17,9 C 6,4 km/h (2 Bft) 100,00 %
13.06.2016 13:59 17,9 C 84 % 1002,2 hPa 0,0 l/m 3,5 km/h (1 Bft) N-NW 344 0 min 0,000 mm 2,5 UV-I 295 W/m 15,2 C 17,9 C 6,4 km/h (2 Bft) 100,00 %
13.06.2016 14:00 17,9 C 84 % 1002,1 hPa 0,0 l/m 4,8 km/h (1 Bft) W-SW 257 0 min 0,178 mm 2,3 UV-I 270 W/m 15,2 C 17,9 C 6,4 km/h (2 Bft) 100,00 %
13.06.2016 14:01 17,9 C 84 % 1002,1 hPa 0,0 l/m 8,1 km/h (2 Bft) W-NW 285 0 min 0,000 mm 2,2 UV-I 259 W/m 15,2 C 17,1 C 11,3 km/h (2 Bft) 100,00 %
13.06.2016 14:02 17,9 C 84 % 1002,2 hPa 0,0 l/m 4,0 km/h (1 Bft) W 262 0 min 0,000 mm 2,1 UV-I 251 W/m 15,2 C 17,9 C 4,8 km/h (1 Bft) 100,00 %
13.06.2016 14:03 17,9 C 84 % 1002,2 hPa 0,0 l/m 4,5 km/h (1 Bft) W 271 0 min 0,000 mm 2,1 UV-I 239 W/m 15,2 C 17,9 C 4,8 km/h (1 Bft) 96,43 %
13.06.2016 14:04 17,8 C 85 % 1002,2 hPa 0,0 l/m 3,1 km/h (1 Bft) W 279 0 min 0,000 mm 2,0 UV-I 229 W/m 15,2 C 17,8 C 4,8 km/h (1 Bft) 100,00 %
13.06.2016 14:05 17,8 C 87 % 1002,1 hPa 0,0 l/m 3,4 km/h (1 Bft) W 262 0 min 0,000 mm 1,9 UV-I 220 W/m 15,6 C 17,8 C 6,4 km/h (2 Bft) 100,00 %
13.06.2016 14:06 17,8 C 88 % 1002,1 hPa 0,0 l/m 3,4 km/h (1 Bft) W-SW 237 0 min 0,000 mm 1,8 UV-I 214 W/m 15,8 C 17,8 C 6,4 km/h (2 Bft) 100,00 %
13.06.2016 14:07 17,7 C 87 % 1002,1 hPa 0,0 l/m 5,1 km/h (1 Bft) W 273 0 min 0,000 mm 1,7 UV-I 209 W/m 15,5 C 17,7 C 6,4 km/h (2 Bft) 100,00 %
13.06.2016 14:08 17,7 C 88 % 1002,0 hPa 0,2 l/m 3,4 km/h (1 Bft) W-SW 252 0 min 0,000 mm 1,7 UV-I 211 W/m 15,7 C 17,7 C 4,8 km/h (1 Bft) 96,30 %
13.06.2016 14:09 17,7 C 89 % 1002,0 hPa 0,0 l/m 2,8 km/h (1 Bft) SW 215 0 min 0,000 mm 1,8 UV-I 216 W/m 15,9 C 17,7 C 4,8 km/h (1 Bft) 100,00 %
13.06.2016 14:10 17,6 C 89 % 1002,0 hPa 0,0 l/m 6,2 km/h (2 Bft) W 261 0 min 0,000 mm 1,8 UV-I 220 W/m 15,8 C 17,6 C 12,9 km/h (3 Bft) 100,00 %
13.06.2016 14:11 17,6 C 88 % 1002,0 hPa 0,0 l/m 6,4 km/h (2 Bft) SW 235 0 min 0,000 mm 1,8 UV-I 220 W/m 15,6 C 17,6 C 9,7 km/h (2 Bft) 100,00 %
13.06.2016 14:12 17,5 C 88 % 1002,0 hPa 0,0 l/m 8,0 km/h (2 Bft) SW 231 0 min 0,000 mm 1,8 UV-I 218 W/m 15,5 C 16,7 C 11,3 km/h (2 Bft) 100,00 %
13.06.2016 14:13 17,5 C 88 % 1002,0 hPa 0,0 l/m 8,1 km/h (2 Bft) SW 216 0 min 0,000 mm 1,8 UV-I 213 W/m 15,5 C 16,7 C 9,7 km/h (2 Bft) 100,00 %
13.06.2016 14:14 17,4 C 89 % 1002,0 hPa 0,0 l/m 7,6 km/h (2 Bft) W-SW 248 0 min 0,000 mm 1,9 UV-I 209 W/m 15,6 C 16,8 C 9,7 km/h (2 Bft) 96,97 %
13.06.2016 14:15 17,5 C 89 % 1002,0 hPa 0,0 l/m 6,5 km/h (2 Bft) SW 225 0 min 0,000 mm 1,9 UV-I 206 W/m 15,7 C 17,5 C 11,3 km/h (2 Bft) 100,00 %
13.06.2016 14:16 17,5 C 88 % 1002,0 hPa 0,0 l/m 8,3 km/h (2 Bft) W-SW 257 0 min 0,000 mm 1,9 UV-I 203 W/m 15,5 C 16,6 C 12,9 km/h (3 Bft) 100,00 %
13.06.2016 14:17 17,5 C 88 % 1002,0 hPa 0,0 l/m 7,2 km/h (2 Bft) W-SW 247 0 min 0,000 mm 1,8 UV-I 201 W/m 15,5 C 17,1 C 11,3 km/h (2 Bft) 100,00 %
13.06.2016 14:18 17,4 C 88 % 1002,0 hPa 0,0 l/m 11,0 km/h (2 Bft) SW 234 0 min 0,000 mm 1,8 UV-I 199 W/m 15,4 C 15,4 C 16,1 km/h (3 Bft) 98,61 %
13.06.2016 14:19 17,4 C 87 % 1001,9 hPa 0,0 l/m 12,3 km/h (3 Bft) W 261 0 min 0,000 mm 1,8 UV-I 199 W/m 15,2 C 14,9 C 17,7 km/h (3 Bft) 100,00 %
13.06.2016 14:20 17,4 C 88 % 1001,9 hPa 0,0 l/m 7,1 km/h (2 Bft) W 263 0 min 0,000 mm 1,7 UV-I 201 W/m 15,4 C 17,1 C 11,3 km/h (2 Bft) 96,30 %
13.06.2016 14:21 17,3 C 87 % 1001,9 hPa 0,0 l/m 10,5 km/h (2 Bft) SW 224 0 min 0,000 mm 1,7 UV-I 207 W/m 15,1 C 15,5 C 14,5 km/h (3 Bft) 100,00 %
13.06.2016 14:22 17,3 C 87 % 1001,9 hPa 0,0 l/m 9,6 km/h (2 Bft) W-SW 237 0 min 0,000 mm 1,7 UV-I 212 W/m 15,1 C 15,8 C 12,9 km/h (3 Bft) 100,00 %
13.06.2016 14:23 17,2 C 87 % 1001,9 hPa 0,0 l/m 13,6 km/h (3 Bft) W-SW 247 0 min 0,000 mm 1,7 UV-I 218 W/m 15,0 C 14,3 C 17,7 km/h (3 Bft) 100,00 %
13.06.2016 14:24 17,2 C 88 % 1002,0 hPa 0,0 l/m 11,5 km/h (2 Bft) W 267 0 min 0,000 mm 1,7 UV-I 221 W/m 15,2 C 15,0 C 16,1 km/h (3 Bft) 95,83 %
13.06.2016 14:25 17,1 C 88 % 1002,0 hPa 0,0 l/m 9,0 km/h (2 Bft) W-SW 253 0 min 0,000 mm 1,7 UV-I 226 W/m 15,1 C 15,9 C 12,9 km/h (3 Bft) 100,00 %
13.06.2016 14:26 17,1 C 88 % 1002,0 hPa 0,0 l/m 11,5 km/h (2 Bft) SW 229 0 min 0,000 mm 1,7 UV-I 229 W/m 15,1 C 14,9 C 17,7 km/h (3 Bft) 100,00 %
13.06.2016 14:27 17,1 C 89 % 1002,0 hPa 0,0 l/m 15,2 km/h (3 Bft) W-SW 246 0 min 0,000 mm 1,7 UV-I 228 W/m 15,3 C 13,7 C 19,3 km/h (3 Bft) 100,00 %
13.06.2016 14:28 17,0 C 88 % 1002,0 hPa 0,0 l/m 14,5 km/h (3 Bft) W-NW 284 0 min 0,000 mm 1,6 UV-I 225 W/m 15,0 C 13,8 C 20,9 km/h (4 Bft) 100,00 %
13.06.2016 14:29 16,9 C 88 % 1002,0 hPa 0,0 l/m 16,3 km/h (3 Bft) W-SW 238 0 min 0,000 mm 1,6 UV-I 220 W/m 14,9 C 13,1 C 19,3 km/h (3 Bft) 100,00 %
13.06.2016 14:30 16,9 C 89 % 1002,0 hPa 0,2 l/m 12,5 km/h (3 Bft) W 271 0 min 0,000 mm 1,6 UV-I 222 W/m 15,1 C 14,3 C 16,1 km/h (3 Bft) 100,00 %
13.06.2016 14:31 16,8 C 88 % 1002,0 hPa 0,0 l/m 8,7 km/h (2 Bft) W 277 0 min 0,000 mm 1,6 UV-I 230 W/m 14,8 C 15,7 C 12,9 km/h (3 Bft) 100,00 %
13.06.2016 14:32 16,8 C 88 % 1002,0 hPa 0,0 l/m 5,3 km/h (1 Bft) W 274 0 min 0,000 mm 1,7 UV-I 248 W/m 14,8 C 16,8 C 9,7 km/h (2 Bft) 100,00 %
13.06.2016 14:33 16,8 C 89 % 1002,0 hPa 0,0 l/m 4,2 km/h (1 Bft) W-NW 298 0 min 0,000 mm 2,0 UV-I 258 W/m 15,0 C 16,8 C 9,7 km/h (2 Bft) 100,00 %
13.06.2016 14:34 16,8 C 90 % 1002,0 hPa 0,0 l/m 4,7 km/h (1 Bft) W 273 0 min 0,000 mm 2,8 UV-I 258 W/m 15,1 C 16,8 C 9,7 km/h (2 Bft) 100,00 %
13.06.2016 14:35 16,8 C 90 % 1002,0 hPa 0,0 l/m 5,6 km/h (1 Bft) W 276 0 min 0,000 mm 3,2 UV-I 447 W/m 15,1 C 16,8 C 9,7 km/h (2 Bft) 100,00 %
13.06.2016 14:36 16,9 C 89 % 1002,0 hPa 0,0 l/m 8,4 km/h (2 Bft) W-SW 243 1 min 0,000 mm 4,0 UV-I 512 W/m 15,1 C 15,9 C 12,9 km/h (3 Bft) 100,00 %
13.06.2016 14:37 17,1 C 89 % 1002,1 hPa 0,0 l/m 5,4 km/h (1 Bft) W-SW 254 1 min 0,000 mm 4,4 UV-I 953 W/m 15,3 C 17,1 C 9,7 km/h (2 Bft) 100,00 %
13.06.2016 14:38 17,3 C 90 % 1002,0 hPa 0,0 l/m 3,9 km/h (1 Bft) W 269 1 min 0,000 mm 3,4 UV-I 953 W/m 15,6 C 17,3 C 6,4 km/h (2 Bft) 100,00 %
13.06.2016 14:39 17,4 C 91 % 1002,0 hPa 0,0 l/m 2,7 km/h (1 Bft) N 5 1 min 0,000 mm 2,8 UV-I 634 W/m 15,9 C 17,4 C 4,8 km/h (1 Bft) 100,00 %
13.06.2016 14:40 17,4 C 91 % 1002,0 hPa 0,0 l/m 2,1 km/h (1 Bft) W-NW 291 0 min 0,000 mm 2,5 UV-I 374 W/m 15,9 C 17,4 C 4,8 km/h (1 Bft) 100,00 %
13.06.2016 14:41 17,4 C 90 % 1001,9 hPa 0,0 l/m 3,5 km/h (1 Bft) W 277 0 min 0,000 mm 2,4 UV-I 325 W/m 15,7 C 17,4 C 8,0 km/h (2 Bft) 100,00 %
13.06.2016 14:42 17,4 C 90 % 1001,9 hPa 0,0 l/m 2,0 km/h (1 Bft) W 267 0 min 0,000 mm 2,3 UV-I 311 W/m 15,7 C 17,4 C 4,8 km/h (1 Bft) 100,00 %
13.06.2016 14:43 17,5 C 89 % 1001,9 hPa 0,0 l/m 0,9 km/h (0 Bft) NW 308 0 min 0,000 mm 2,3 UV-I 308 W/m 15,7 C 17,5 C 3,2 km/h (1 Bft) 100,00 %
13.06.2016 14:44 17,4 C 90 % 1001,9 hPa 0,0 l/m 3,1 km/h (1 Bft) NW 311 0 min 0,000 mm 2,3 UV-I 304 W/m 15,7 C 17,4 C 4,8 km/h (1 Bft) 100,00 %
13.06.2016 14:45 17,4 C 89 % 1001,8 hPa 0,0 l/m 3,1 km/h (1 Bft) W-NW 297 0 min 0,000 mm 2,3 UV-I 295 W/m 15,6 C 17,4 C 4,8 km/h (1 Bft) 100,00 %
13.06.2016 14:46 17,4 C 89 % 1001,8 hPa 0,0 l/m 4,0 km/h (1 Bft) N-NW 331 0 min 0,000 mm 2,3 UV-I 283 W/m 15,6 C 17,4 C 8,0 km/h (2 Bft) 100,00 %
13.06.2016 14:47 17,4 C 91 % 1001,8 hPa 0,0 l/m 1,8 km/h (1 Bft) NW 308 0 min 0,000 mm 2,1 UV-I 270 W/m 15,9 C 17,4 C 3,2 km/h (1 Bft) 100,00 %
13.06.2016 14:48 17,4 C 90 % 1001,8 hPa 0,0 l/m 4,2 km/h (1 Bft) W 265 0 min 0,000 mm 2,1 UV-I 256 W/m 15,7 C 17,4 C 6,4 km/h (2 Bft) 98,66 %
13.06.2016 14:49 17,4 C 88 % 1001,8 hPa 0,0 l/m 3,5 km/h (1 Bft) W 275 0 min 0,000 mm 2,0 UV-I 245 W/m 15,4 C 17,4 C 4,8 km/h (1 Bft) 97,37 %
13.06.2016 14:50 17,3 C 89 % 1001,8 hPa 0,0 l/m 2,5 km/h (1 Bft) W-NW 290 0 min 0,000 mm 1,9 UV-I 236 W/m 15,5 C 17,3 C 4,8 km/h (1 Bft) 100,00 %
13.06.2016 14:51 17,3 C 89 % 1001,8 hPa 0,0 l/m 0,7 km/h (0 Bft) W-NW 290 0 min 0,000 mm 1,8 UV-I 232 W/m 15,5 C 17,3 C 1,6 km/h (1 Bft) 100,00 %
13.06.2016 14:52 17,3 C 90 % 1001,8 hPa 0,0 l/m 1,9 km/h (1 Bft) W 263 0 min 0,000 mm 1,8 UV-I 226 W/m 15,6 C 17,3 C 3,2 km/h (1 Bft) 100,00 %
13.06.2016 14:53 17,3 C 90 % 1001,8 hPa 0,0 l/m 4,0 km/h (1 Bft) W-SW 257 0 min 0,000 mm 1,7 UV-I 220 W/m 15,6 C 17,3 C 4,8 km/h (1 Bft) 100,00 %
13.06.2016 14:54 17,3 C 90 % 1001,8 hPa 0,0 l/m 3,1 km/h (1 Bft) S-SW 193 0 min 0,000 mm 1,6 UV-I 213 W/m 15,6 C 17,3 C 6,4 km/h (2 Bft) 100,00 %
13.06.2016 14:55 17,3 C 91 % 1001,8 hPa 0,0 l/m 8,4 km/h (2 Bft) SW 230 0 min 0,000 mm 1,6 UV-I 209 W/m 15,8 C 16,3 C 11,3 km/h (2 Bft) 95,65 %
13.06.2016 14:56 17,3 C 87 % 1001,8 hPa 0,0 l/m 7,8 km/h (2 Bft) W-SW 252 0 min 0,000 mm 1,5 UV-I 204 W/m 15,1 C 16,6 C 11,3 km/h (2 Bft) 100,00 %
13.06.2016 14:57 17,3 C 85 % 1001,7 hPa 0,0 l/m 6,7 km/h (2 Bft) W 267 0 min 0,000 mm 1,4 UV-I 200 W/m 14,8 C 17,2 C 11,3 km/h (2 Bft) 100,00 %
13.06.2016 14:58 17,3 C 86 % 1001,8 hPa 0,0 l/m 8,0 km/h (2 Bft) SW 219 0 min 0,000 mm 1,4 UV-I 197 W/m 14,9 C 16,5 C 11,3 km/h (2 Bft) 100,00 %
13.06.2016 14:59 17,2 C 86 % 1001,8 hPa 0,0 l/m 5,6 km/h (1 Bft) SW 229 0 min 0,000 mm 1,4 UV-I 195 W/m 14,8 C 17,2 C 8,0 km/h (2 Bft) 96,15 %
13.06.2016 15:00 17,2 C 85 % 1001,8 hPa 0,0 l/m 6,3 km/h (2 Bft) SW 229 0 min 0,152 mm 1,4 UV-I 196 W/m 14,7 C 17,2 C 12,9 km/h (3 Bft) 95,83 %
13.06.2016 15:02 17,1 C 83 % 1001,8 hPa 0,0 l/m 10,5 km/h (2 Bft) SW 236 0 min 0,000 mm 1,4 UV-I 199 W/m 14,2 C 15,2 C 14,5 km/h (3 Bft) 97,73 %
13.06.2016 15:03 17,0 C 84 % 1001,7 hPa 0,0 l/m 6,5 km/h (2 Bft) W-SW 243 0 min 0,000 mm 1,4 UV-I 209 W/m 14,3 C 17,0 C 8,0 km/h (2 Bft) 100,00 %
13.06.2016 15:04 16,9 C 86 % 1001,7 hPa 0,0 l/m 3,9 km/h (1 Bft) W-SW 237 0 min 0,000 mm 1,5 UV-I 219 W/m 14,5 C 16,9 C 4,8 km/h (1 Bft) 95,83 %
13.06.2016 15:05 16,8 C 86 % 1001,7 hPa 0,0 l/m 3,4 km/h (1 Bft) SW 234 0 min 0,000 mm 1,6 UV-I 231 W/m 14,4 C 16,8 C 4,8 km/h (1 Bft) 100,00 %
13.06.2016 15:06 16,8 C 87 % 1001,7 hPa 0,0 l/m 4,7 km/h (1 Bft) SW 219 0 min 0,000 mm 1,6 UV-I 241 W/m 14,6 C 16,8 C 6,4 km/h (2 Bft) 95,83 %
13.06.2016 15:07 16,8 C 87 % 1001,7 hPa 0,0 l/m 4,6 km/h (1 Bft) W-SW 246 0 min 0,000 mm 1,7 UV-I 255 W/m 14,6 C 16,8 C 6,4 km/h (2 Bft) 100,00 %
13.06.2016 15:08 16,8 C 87 % 1001,7 hPa 0,0 l/m 4,4 km/h (1 Bft) W-SW 250 0 min 0,000 mm 1,8 UV-I 272 W/m 14,6 C 16,8 C 4,8 km/h (1 Bft) 95,65 %
13.06.2016 15:09 16,8 C 86 % 1001,7 hPa 0,0 l/m 3,3 km/h (1 Bft) W-SW 250 0 min 0,000 mm 2,1 UV-I 304 W/m 14,4 C 16,8 C 4,8 km/h (1 Bft) 95,83 %
13.06.2016 15:10 16,8 C 86 % 1001,7 hPa 0,0 l/m 2,4 km/h (1 Bft) W-SW 251 0 min 0,000 mm 2,3 UV-I 341 W/m 14,4 C 16,8 C 3,2 km/h (1 Bft) 100,00 %
13.06.2016 15:11 16,8 C 85 % 1001,7 hPa 0,0 l/m 6,7 km/h (2 Bft) W-SW 254 1 min 0,000 mm 2,8 UV-I 450 W/m 14,3 C 16,7 C 11,3 km/h (2 Bft) 100,00 %
13.06.2016 15:12 16,8 C 86 % 1001,6 hPa 0,0 l/m 5,5 km/h (1 Bft) W-NW 284 1 min 0,000 mm 2,9 UV-I 480 W/m 14,4 C 16,8 C 6,4 km/h (2 Bft) 96,15 %
13.06.2016 15:13 16,8 C 85 % 1001,6 hPa 0,0 l/m 4,9 km/h (1 Bft) W 260 0 min 0,000 mm 2,7 UV-I 423 W/m 14,3 C 16,8 C 6,4 km/h (2 Bft) 96,30 %
13.06.2016 15:14 16,9 C 88 % 1001,6 hPa 0,0 l/m 4,6 km/h (1 Bft) W-SW 240 0 min 0,000 mm 3,1 UV-I 436 W/m 14,9 C 16,9 C 8,0 km/h (2 Bft) 100,00 %
13.06.2016 15:15 17,0 C 86 % 1001,6 hPa 0,0 l/m 6,9 km/h (2 Bft) W-SW 244 0 min 0,000 mm 3,9 UV-I 436 W/m 14,6 C 16,8 C 9,7 km/h (2 Bft) 91,67 %
13.06.2016 15:16 17,1 C 86 % 1001,6 hPa 0,0 l/m 6,4 km/h (2 Bft) W-SW 248 0 min 0,000 mm 3,6 UV-I 436 W/m 14,7 C 17,1 C 8,0 km/h (2 Bft) 96,15 %
13.06.2016 15:17 17,2 C 86 % 1001,6 hPa 0,0 l/m 3,5 km/h (1 Bft) W 276 0 min 0,000 mm 3,1 UV-I 430 W/m 14,8 C 17,2 C 6,4 km/h (2 Bft) 100,00 %
13.06.2016 15:18 17,3 C 85 % 1001,6 hPa 0,0 l/m 4,1 km/h (1 Bft) W 277 0 min 0,000 mm 2,9 UV-I 398 W/m 14,8 C 17,3 C 6,4 km/h (2 Bft) 95,65 %
13.06.2016 15:19 17,3 C 86 % 1001,6 hPa 0,0 l/m 2,3 km/h (1 Bft) W 277 0 min 0,000 mm 2,9 UV-I 385 W/m 14,9 C 17,3 C 3,2 km/h (1 Bft) 100,00 %
13.06.2016 15:20 17,4 C 87 % 1001,6 hPa 0,0 l/m 2,1 km/h (1 Bft) W 277 0 min 0,000 mm 3,0 UV-I 388 W/m 15,2 C 17,4 C 3,2 km/h (1 Bft) 95,65 %
13.06.2016 15:21 17,4 C 86 % 1001,6 hPa 0,0 l/m 2,2 km/h (1 Bft) W 276 0 min 0,000 mm 3,1 UV-I 406 W/m 15,0 C 17,4 C 4,8 km/h (1 Bft) 100,00 %
13.06.2016 15:22 17,5 C 86 % 1001,6 hPa 0,0 l/m 4,3 km/h (1 Bft) W-SW 254 0 min 0,000 mm 3,1 UV-I 430 W/m 15,1 C 17,5 C 6,4 km/h (2 Bft) 95,65 %
13.06.2016 15:23 17,5 C 84 % 1001,6 hPa 0,0 l/m 5,3 km/h (1 Bft) W 272 1 min 0,000 mm 3,1 UV-I 440 W/m 14,8 C 17,5 C 6,4 km/h (2 Bft) 95,83 %
13.06.2016 15:24 17,5 C 84 % 1001,6 hPa 0,0 l/m 3,6 km/h (1 Bft) W 270 1 min 0,000 mm 3,4 UV-I 480 W/m 14,8 C 17,5 C 6,4 km/h (2 Bft) 100,00 %
13.06.2016 15:25 17,6 C 84 % 1001,6 hPa 0,0 l/m 4,0 km/h (1 Bft) W 262 1 min 0,000 mm 3,9 UV-I 552 W/m 14,9 C 17,6 C 6,4 km/h (2 Bft) 100,00 %
13.06.2016 15:26 17,6 C 83 % 1001,6 hPa 0,0 l/m 5,0 km/h (1 Bft) SW 236 1 min 0,000 mm 3,9 UV-I 624 W/m 14,7 C 17,6 C 6,4 km/h (2 Bft) 98,62 %
13.06.2016 15:27 17,7 C 87 % 1001,6 hPa 0,0 l/m 5,3 km/h (1 Bft) W-SW 252 1 min 0,000 mm 4,3 UV-I 617 W/m 15,5 C 17,7 C 8,0 km/h (2 Bft) 95,74 %
13.06.2016 15:28 17,9 C 87 % 1001,5 hPa 0,0 l/m 4,3 km/h (1 Bft) W-SW 252 1 min 0,000 mm 4,4 UV-I 808 W/m 15,7 C 17,9 C 4,8 km/h (1 Bft) 100,00 %
13.06.2016 15:29 18,0 C 83 % 1001,5 hPa 0,0 l/m 5,4 km/h (1 Bft) SW 233 1 min 0,000 mm 4,3 UV-I 789 W/m 15,1 C 18,0 C 9,7 km/h (2 Bft) 95,65 %
13.06.2016 15:30 18,1 C 82 % 1001,5 hPa 0,0 l/m 6,1 km/h (2 Bft) W-SW 240 1 min 0,000 mm 4,4 UV-I 803 W/m 15,0 C 18,1 C 8,0 km/h (2 Bft) 100,00 %
13.06.2016 15:31 18,1 C 83 % 1001,5 hPa 0,0 l/m 6,4 km/h (2 Bft) W-NW 291 1 min 0,000 mm 4,5 UV-I 834 W/m 15,2 C 18,1 C 9,7 km/h (2 Bft) 100,00 %
13.06.2016 15:32 18,2 C 83 % 1001,5 hPa 0,0 l/m 4,1 km/h (1 Bft) N-NW 327 1 min 0,000 mm 4,5 UV-I 785 W/m 15,3 C 18,2 C 6,4 km/h (2 Bft) 100,00 %
13.06.2016 15:33 18,3 C 85 % 1001,5 hPa 0,0 l/m 4,7 km/h (1 Bft) NW 312 1 min 0,000 mm 4,5 UV-I 818 W/m 15,7 C 18,3 C 6,4 km/h (2 Bft) 100,00 %
13.06.2016 15:34 18,4 C 82 % 1001,4 hPa 0,0 l/m 7,4 km/h (2 Bft) W-SW 257 1 min 0,000 mm 4,5 UV-I 854 W/m 15,3 C 17,9 C 12,9 km/h (3 Bft) 100,00 %
13.06.2016 15:35 18,6 C 84 % 1001,4 hPa 0,0 l/m 3,8 km/h (1 Bft) SW 228 1 min 0,000 mm 4,6 UV-I 877 W/m 15,8 C 18,6 C 4,8 km/h (1 Bft) 100,00 %
13.06.2016 15:36 18,6 C 80 % 1001,4 hPa 0,0 l/m 4,3 km/h (1 Bft) SW 220 1 min 0,000 mm 4,7 UV-I 877 W/m 15,1 C 18,6 C 6,4 km/h (2 Bft) 96,30 %
13.06.2016 15:37 18,6 C 81 % 1001,4 hPa 0,0 l/m 6,9 km/h (2 Bft) SW 233 1 min 0,000 mm 4,6 UV-I 885 W/m 15,3 C 18,4 C 9,7 km/h (2 Bft) 100,00 %
13.06.2016 15:38 18,7 C 79 % 1001,4 hPa 0,0 l/m 5,8 km/h (2 Bft) S-SW 203 1 min 0,000 mm 4,7 UV-I 897 W/m 15,0 C 18,7 C 9,7 km/h (2 Bft) 100,00 %
13.06.2016 15:39 18,7 C 79 % 1001,4 hPa 0,0 l/m 5,7 km/h (1 Bft) S-SW 198 1 min 0,000 mm 4,6 UV-I 898 W/m 15,0 C 18,7 C 8,0 km/h (2 Bft) 100,00 %
13.06.2016 15:40 18,8 C 83 % 1001,3 hPa 0,0 l/m 5,2 km/h (1 Bft) W 265 1 min 0,000 mm 4,6 UV-I 895 W/m 15,8 C 18,8 C 11,3 km/h (2 Bft) 100,00 %
13.06.2016 15:41 18,9 C 81 % 1001,3 hPa 0,0 l/m 7,2 km/h (2 Bft) W-NW 296 1 min 0,000 mm 4,6 UV-I 897 W/m 15,6 C 18,5 C 11,3 km/h (2 Bft) 100,00 %
13.06.2016 15:42 19,0 C 80 % 1001,4 hPa 0,0 l/m 3,7 km/h (1 Bft) SW 215 1 min 0,000 mm 4,6 UV-I 903 W/m 15,5 C 19,0 C 6,4 km/h (2 Bft) 100,00 %
13.06.2016 15:43 19,2 C 82 % 1001,3 hPa 0,0 l/m 5,4 km/h (1 Bft) SW 219 1 min 0,000 mm 4,5 UV-I 906 W/m 16,0 C 19,2 C 9,7 km/h (2 Bft) 100,00 %
13.06.2016 15:44 19,2 C 78 % 1001,3 hPa 0,0 l/m 1,4 km/h (1 Bft) SW 219 1 min 0,000 mm 3,6 UV-I 907 W/m 15,3 C 19,2 C 3,2 km/h (1 Bft) 100,00 %
13.06.2016 15:45 19,2 C 80 % 1001,4 hPa 0,0 l/m 1,9 km/h (1 Bft) SW 219 1 min 0,000 mm 3,2 UV-I 907 W/m 15,7 C 19,2 C 3,2 km/h (1 Bft) 100,00 %
13.06.2016 15:46 19,2 C 80 % 1001,4 hPa 0,0 l/m 1,7 km/h (1 Bft) NW 304 1 min 0,000 mm 3,6 UV-I 907 W/m 15,7 C 19,2 C 3,2 km/h (1 Bft) 96,55 %
13.06.2016 15:47 19,2 C 79 % 1001,4 hPa 0,0 l/m 5,6 km/h (1 Bft) NW 312 1 min 0,000 mm 4,0 UV-I 907 W/m 15,5 C 19,2 C 14,5 km/h (3 Bft) 96,15 %
13.06.2016 15:48 19,2 C 79 % 1001,4 hPa 0,0 l/m 3,7 km/h (1 Bft) W-NW 287 1 min 0,000 mm 2,4 UV-I 647 W/m 15,5 C 19,2 C 6,4 km/h (2 Bft) 100,00 %
13.06.2016 15:49 19,1 C 81 % 1001,4 hPa 0,0 l/m 5,4 km/h (1 Bft) W-NW 294 0 min 0,000 mm 2,2 UV-I 208 W/m 15,8 C 19,1 C 8,0 km/h (2 Bft) 98,63 %
13.06.2016 15:50 19,0 C 80 % 1001,4 hPa 0,0 l/m 6,3 km/h (2 Bft) SW 225 0 min 0,000 mm 2,1 UV-I 202 W/m 15,5 C 19,0 C 9,7 km/h (2 Bft) 97,56 %
13.06.2016 15:51 18,9 C 79 % 1001,4 hPa 0,0 l/m 2,8 km/h (1 Bft) W-NW 297 0 min 0,000 mm 2,0 UV-I 206 W/m 15,2 C 18,9 C 4,8 km/h (1 Bft) 100,00 %
13.06.2016 15:52 18,7 C 78 % 1001,4 hPa 0,0 l/m 6,1 km/h (2 Bft) W 261 0 min 0,000 mm 1,9 UV-I 211 W/m 14,8 C 18,7 C 11,3 km/h (2 Bft) 96,55 %
13.06.2016 15:53 18,6 C 79 % 1001,4 hPa 0,0 l/m 4,4 km/h (1 Bft) W-SW 250 0 min 0,000 mm 1,9 UV-I 211 W/m 14,9 C 18,6 C 6,4 km/h (2 Bft) 100,00 %
13.06.2016 15:54 18,5 C 81 % 1001,4 hPa 0,0 l/m 4,9 km/h (1 Bft) W 273 0 min 0,000 mm 1,8 UV-I 203 W/m 15,2 C 18,5 C 11,3 km/h (2 Bft) 90,91 %
13.06.2016 15:55 18,4 C 81 % 1001,4 hPa 0,0 l/m 8,4 km/h (2 Bft) W 271 0 min 0,000 mm 1,6 UV-I 190 W/m 15,1 C 17,5 C 11,3 km/h (2 Bft) 100,00 %
13.06.2016 15:56 18,4 C 79 % 1001,4 hPa 0,0 l/m 3,6 km/h (1 Bft) W 279 0 min 0,000 mm 1,4 UV-I 174 W/m 14,7 C 18,4 C 6,4 km/h (2 Bft) 100,00 %
13.06.2016 15:57 18,3 C 82 % 1001,4 hPa 0,0 l/m 6,2 km/h (2 Bft) SW 228 0 min 0,000 mm 1,3 UV-I 156 W/m 15,2 C 18,3 C 8,0 km/h (2 Bft) 100,00 %
13.06.2016 15:58 18,3 C 82 % 1001,4 hPa 0,0 l/m 4,7 km/h (1 Bft) W-NW 296 0 min 0,000 mm 1,2 UV-I 137 W/m 15,2 C 18,3 C 6,4 km/h (2 Bft) 100,00 %
13.06.2016 15:59 18,3 C 81 % 1001,4 hPa 0,0 l/m 3,6 km/h (1 Bft) W-SW 251 0 min 0,000 mm 1,1 UV-I 123 W/m 15,0 C 18,3 C 6,4 km/h (2 Bft) 100,00 %
13.06.2016 16:00 18,3 C 80 % 1001,4 hPa 0,0 l/m 3,9 km/h (1 Bft) W 278 0 min 0,280 mm 1,0 UV-I 112 W/m 14,8 C 18,3 C 4,8 km/h (1 Bft) 100,00 %
13.06.2016 16:02 18,2 C 83 % 1001,4 hPa 0,0 l/m 5,1 km/h (1 Bft) W 268 0 min 0,000 mm 0,9 UV-I 104 W/m 15,3 C 18,2 C 8,0 km/h (2 Bft) 100,00 %
13.06.2016 16:03 18,2 C 84 % 1001,4 hPa 0,0 l/m 4,2 km/h (1 Bft) W-SW 250 0 min 0,000 mm 0,7 UV-I 98 W/m 15,4 C 18,2 C 6,4 km/h (2 Bft) 100,00 %
13.06.2016 16:04 18,1 C 84 % 1001,4 hPa 0,0 l/m 5,6 km/h (1 Bft) W 271 0 min 0,000 mm 0,7 UV-I 98 W/m 15,4 C 18,1 C 8,0 km/h (2 Bft) 100,00 %
13.06.2016 16:05 18,0 C 83 % 1001,5 hPa 0,0 l/m 4,1 km/h (1 Bft) NW 317 0 min 0,000 mm 0,7 UV-I 98 W/m 15,1 C 18,0 C 11,3 km/h (2 Bft) 96,15 %
13.06.2016 16:06 17,9 C 83 % 1001,4 hPa 0,2 l/m 6,9 km/h (2 Bft) W 261 0 min 0,000 mm 0,7 UV-I 99 W/m 15,0 C 17,7 C 11,3 km/h (2 Bft) 100,00 %
13.06.2016 16:07 17,8 C 82 % 1001,4 hPa 0,0 l/m 3,4 km/h (1 Bft) W-NW 291 0 min 0,000 mm 0,7 UV-I 104 W/m 14,7 C 17,8 C 6,4 km/h (2 Bft) 96,15 %
13.06.2016 16:08 17,7 C 81 % 1001,4 hPa 0,0 l/m 7,1 km/h (2 Bft) W 273 0 min 0,000 mm 0,7 UV-I 110 W/m 14,4 C 17,4 C 12,9 km/h (3 Bft) 87,50 %
13.06.2016 16:09 17,7 C 82 % 1001,3 hPa 0,0 l/m 5,2 km/h (1 Bft) N-NW 327 0 min 0,000 mm 0,8 UV-I 114 W/m 14,6 C 17,7 C 6,4 km/h (2 Bft) 95,65 %
13.06.2016 16:10 17,6 C 83 % 1001,3 hPa 0,0 l/m 3,0 km/h (1 Bft) W 271 0 min 0,000 mm 0,8 UV-I 118 W/m 14,7 C 17,6 C 4,8 km/h (1 Bft) 85,19 %
13.06.2016 16:11 17,5 C 84 % 1001,4 hPa 0,0 l/m 3,1 km/h (1 Bft) W-SW 239 0 min 0,000 mm 0,8 UV-I 119 W/m 14,8 C 17,5 C 4,8 km/h (1 Bft) 95,65 %
13.06.2016 16:12 17,5 C 84 % 1001,4 hPa 0,0 l/m 3,8 km/h (1 Bft) W-SW 249 0 min 0,000 mm 0,8 UV-I 120 W/m 14,8 C 17,5 C 4,8 km/h (1 Bft) 92,59 %
13.06.2016 16:13 17,4 C 84 % 1001,3 hPa 0,0 l/m 3,5 km/h (1 Bft) W-SW 242 0 min 0,000 mm 0,8 UV-I 120 W/m 14,7 C 17,4 C 4,8 km/h (1 Bft) 78,57 %
13.06.2016 16:14 17,4 C 84 % 1001,3 hPa 0,0 l/m 3,9 km/h (1 Bft) W-SW 244 0 min 0,000 mm 0,8 UV-I 120 W/m 14,7 C 17,4 C 6,4 km/h (2 Bft) 95,83 %
13.06.2016 16:15 17,4 C 84 % 1001,3 hPa 0,0 l/m 3,5 km/h (1 Bft) W-SW 247 0 min 0,000 mm 0,8 UV-I 120 W/m 14,7 C 17,4 C 4,8 km/h (1 Bft) 100,00 %
13.06.2016 16:16 17,4 C 85 % 1001,3 hPa 0,0 l/m 3,5 km/h (1 Bft) W-SW 248 0 min 0,000 mm 0,8 UV-I 120 W/m 14,8 C 17,4 C 4,8 km/h (1 Bft) 100,00 %
13.06.2016 16:17 17,4 C 85 % 1001,2 hPa 0,0 l/m 3,6 km/h (1 Bft) W-SW 246 0 min 0,000 mm 0,8 UV-I 119 W/m 14,8 C 17,4 C 4,8 km/h (1 Bft) 100,00 %
13.06.2016 16:18 17,4 C 85 % 1001,2 hPa 0,0 l/m 2,7 km/h (1 Bft) W-SW 247 0 min 0,000 mm 0,8 UV-I 118 W/m 14,8 C 17,4 C 3,2 km/h (1 Bft) 100,00 %
13.06.2016 16:19 17,4 C 86 % 1001,3 hPa 0,0 l/m 3,1 km/h (1 Bft) W-SW 247 0 min 0,000 mm 0,8 UV-I 118 W/m 15,0 C 17,4 C 4,8 km/h (1 Bft) 98,57 %
13.06.2016 16:20 17,4 C 86 % 1001,3 hPa 0,0 l/m 3,2 km/h (1 Bft) W-SW 246 0 min 0,000 mm 0,8 UV-I 118 W/m 15,0 C 17,4 C 4,8 km/h (1 Bft) 100,00 %
13.06.2016 16:21 17,4 C 86 % 1001,3 hPa 0,0 l/m 4,0 km/h (1 Bft) W-SW 249 0 min 0,000 mm 0,8 UV-I 116 W/m 15,0 C 17,4 C 6,4 km/h (2 Bft) 95,65 %
13.06.2016 16:22 17,4 C 86 % 1001,3 hPa 0,0 l/m 3,8 km/h (1 Bft) W-SW 247 0 min 0,000 mm 0,7 UV-I 116 W/m 15,0 C 17,4 C 4,8 km/h (1 Bft) 100,00 %
13.06.2016 16:23 17,4 C 85 % 1001,3 hPa 0,0 l/m 2,7 km/h (1 Bft) W-SW 246 0 min 0,000 mm 0,7 UV-I 116 W/m 14,8 C 17,4 C 4,8 km/h (1 Bft) 96,15 %
13.06.2016 16:24 17,4 C 86 % 1001,3 hPa 0,0 l/m 2,4 km/h (1 Bft) W-SW 244 0 min 0,000 mm 0,7 UV-I 116 W/m 15,0 C 17,4 C 3,2 km/h (1 Bft) 100,00 %
13.06.2016 16:25 17,3 C 85 % 1001,3 hPa 0,0 l/m 3,3 km/h (1 Bft) SW 235 0 min 0,000 mm 0,7 UV-I 115 W/m 14,8 C 17,3 C 4,8 km/h (1 Bft) 100,00 %
13.06.2016 16:26 17,3 C 85 % 1001,3 hPa 0,0 l/m 3,2 km/h (1 Bft) SW 234 0 min 0,000 mm 0,7 UV-I 112 W/m 14,8 C 17,3 C 4,8 km/h (1 Bft) 100,00 %
13.06.2016 16:27 17,3 C 85 % 1001,3 hPa 0,0 l/m 3,3 km/h (1 Bft) SW 234 0 min 0,000 mm 0,6 UV-I 109 W/m 14,8 C 17,3 C 4,8 km/h (1 Bft) 100,00 %
13.06.2016 16:28 17,3 C 86 % 1001,3 hPa 0,0 l/m 2,7 km/h (1 Bft) SW 234 0 min 0,000 mm 0,6 UV-I 112 W/m 14,9 C 17,3 C 3,2 km/h (1 Bft) 100,00 %
13.06.2016 16:29 17,3 C 85 % 1001,3 hPa 0,0 l/m 2,6 km/h (1 Bft) SW 232 0 min 0,000 mm 0,6 UV-I 114 W/m 14,8 C 17,3 C 4,8 km/h (1 Bft) 100,00 %
13.06.2016 16:30 17,3 C 85 % 1001,3 hPa 0,0 l/m 4,7 km/h (1 Bft) SW 231 0 min 0,000 mm 0,6 UV-I 110 W/m 14,8 C 17,3 C 6,4 km/h (2 Bft) 92,31 %
13.06.2016 16:31 17,3 C 85 % 1001,2 hPa 0,0 l/m 3,8 km/h (1 Bft) SW 225 0 min 0,000 mm 0,6 UV-I 107 W/m 14,8 C 17,3 C 4,8 km/h (1 Bft) 100,00 %
13.06.2016 16:32 17,3 C 85 % 1001,2 hPa 0,0 l/m 2,7 km/h (1 Bft) SW 225 0 min 0,000 mm 0,6 UV-I 105 W/m 14,8 C 17,3 C 3,2 km/h (1 Bft) 100,00 %
13.06.2016 16:33 17,3 C 86 % 1001,2 hPa 0,0 l/m 2,7 km/h (1 Bft) SW 225 0 min 0,000 mm 0,6 UV-I 102 W/m 14,9 C 17,3 C 4,8 km/h (1 Bft) 100,00 %
13.06.2016 16:34 17,3 C 87 % 1001,2 hPa 0,0 l/m 2,2 km/h (1 Bft) SW 225 0 min 0,000 mm 0,5 UV-I 99 W/m 15,1 C 17,3 C 4,8 km/h (1 Bft) 100,00 %
13.06.2016 16:35 17,3 C 87 % 1001,3 hPa 0,0 l/m 2,8 km/h (1 Bft) SW 225 0 min 0,000 mm 0,5 UV-I 98 W/m 15,1 C 17,3 C 3,2 km/h (1 Bft) 96,30 %
13.06.2016 16:36 17,3 C 88 % 1001,2 hPa 0,0 l/m 2,1 km/h (1 Bft) SW 225 0 min 0,000 mm 0,5 UV-I 96 W/m 15,3 C 17,3 C 3,2 km/h (1 Bft) 100,00 %
13.06.2016 16:37 17,3 C 87 % 1001,2 hPa 0,0 l/m 2,7 km/h (1 Bft) SW 225 0 min 0,000 mm 0,5 UV-I 95 W/m 15,1 C 17,3 C 3,2 km/h (1 Bft) 100,00 %
13.06.2016 16:38 17,3 C 87 % 1001,2 hPa 0,0 l/m 2,5 km/h (1 Bft) SW 225 0 min 0,000 mm 0,2 UV-I 93 W/m 15,1 C 17,3 C 4,8 km/h (1 Bft) 100,00 %
13.06.2016 16:39 17,3 C 87 % 1001,2 hPa 0,0 l/m 3,8 km/h (1 Bft) SW 221 0 min 0,000 mm 0,0 UV-I 93 W/m 15,1 C 17,3 C 4,8 km/h (1 Bft) 100,00 %
13.06.2016 16:40 17,3 C 87 % 1001,2 hPa 0,0 l/m 3,5 km/h (1 Bft) S-SW 213 0 min 0,000 mm 0,0 UV-I 95 W/m 15,1 C 17,3 C 4,8 km/h (1 Bft) 91,30 %
13.06.2016 16:41 17,3 C 88 % 1001,2 hPa 0,0 l/m 1,2 km/h (1 Bft) S-SW 211 0 min 0,000 mm 0,0 UV-I 96 W/m 15,3 C 17,3 C 3,2 km/h (1 Bft) 100,00 %
13.06.2016 16:42 17,3 C 86 % 1001,2 hPa 0,0 l/m 3,2 km/h (1 Bft) S-SW 211 0 min 0,000 mm 0,0 UV-I 99 W/m 14,9 C 17,3 C 4,8 km/h (1 Bft) 78,26 %
13.06.2016 16:43 17,3 C 87 % 1001,1 hPa 0,0 l/m 2,5 km/h (1 Bft) S-SW 211 0 min 0,000 mm 0,0 UV-I 103 W/m 15,1 C 17,3 C 4,8 km/h (1 Bft) 95,83 %
13.06.2016 16:44 17,3 C 86 % 1001,0 hPa 0,0 l/m 2,0 km/h (1 Bft) S-SW 205 0 min 0,000 mm 0,0 UV-I 107 W/m 14,9 C 17,3 C 3,2 km/h (1 Bft) 100,00 %
13.06.2016 16:45 17,3 C 87 % 1001,0 hPa 0,0 l/m 2,1 km/h (1 Bft) S-SW 205 0 min 0,000 mm 0,4 UV-I 112 W/m 15,1 C 17,3 C 3,2 km/h (1 Bft) 100,00 %
13.06.2016 16:46 17,3 C 86 % 1001,0 hPa 0,0 l/m 1,6 km/h (1 Bft) S-SW 205 0 min 0,000 mm 0,5 UV-I 115 W/m 14,9 C 17,3 C 3,2 km/h (1 Bft) 100,00 %
13.06.2016 16:47 17,3 C 87 % 1001,0 hPa 0,0 l/m 1,4 km/h (1 Bft) SW 218 0 min 0,000 mm 0,5 UV-I 121 W/m 15,1 C 17,3 C 4,8 km/h (1 Bft) 96,55 %
13.06.2016 16:48 17,3 C 86 % 1001,0 hPa 0,0 l/m 2,8 km/h (1 Bft) SW 234 0 min 0,000 mm 0,5 UV-I 127 W/m 14,9 C 17,3 C 4,8 km/h (1 Bft) 100,00 %
13.06.2016 16:49 17,3 C 86 % 1001,0 hPa 0,0 l/m 4,0 km/h (1 Bft) S-SW 213 0 min 0,000 mm 0,5 UV-I 131 W/m 14,9 C 17,3 C 4,8 km/h (1 Bft) 100,00 %
13.06.2016 16:50 17,4 C 86 % 1001,0 hPa 0,0 l/m 2,8 km/h (1 Bft) S-SW 208 0 min 0,000 mm 0,6 UV-I 137 W/m 15,0 C 17,4 C 4,8 km/h (1 Bft) 100,00 %
13.06.2016 16:51 17,4 C 86 % 1001,1 hPa 0,0 l/m 5,5 km/h (1 Bft) S 187 0 min 0,000 mm 0,6 UV-I 145 W/m 15,0 C 17,4 C 6,4 km/h (2 Bft) 100,00 %
13.06.2016 16:52 17,4 C 85 % 1001,0 hPa 0,0 l/m 6,0 km/h (2 Bft) S-SW 200 0 min 0,000 mm 0,6 UV-I 154 W/m 14,8 C 17,4 C 6,4 km/h (2 Bft) 100,00 %
13.06.2016 16:53 17,4 C 85 % 1001,1 hPa 0,0 l/m 5,8 km/h (2 Bft) S-SW 198 0 min 0,000 mm 0,7 UV-I 166 W/m 14,8 C 17,4 C 8,0 km/h (2 Bft) 95,65 %
13.06.2016 16:54 17,4 C 86 % 1001,0 hPa 0,0 l/m 6,8 km/h (2 Bft) S-SW 194 0 min 0,000 mm 0,7 UV-I 180 W/m 15,0 C 17,2 C 8,0 km/h (2 Bft) 100,00 %
13.06.2016 16:55 17,4 C 86 % 1001,0 hPa 0,0 l/m 6,8 km/h (2 Bft) S-SW 196 0 min 0,000 mm 0,8 UV-I 194 W/m 15,0 C 17,2 C 8,0 km/h (2 Bft) 100,00 %
13.06.2016 16:56 17,4 C 86 % 1001,0 hPa 0,0 l/m 5,7 km/h (1 Bft) S-SW 194 0 min 0,000 mm 0,8 UV-I 210 W/m 15,0 C 17,4 C 8,0 km/h (2 Bft) 96,67 %
13.06.2016 16:57 17,4 C 86 % 1001,0 hPa 0,0 l/m 7,2 km/h (2 Bft) S-SW 205 0 min 0,000 mm 0,9 UV-I 237 W/m 15,0 C 17,0 C 9,7 km/h (2 Bft) 92,31 %
13.06.2016 16:58 17,5 C 85 % 1001,0 hPa 0,0 l/m 6,3 km/h (2 Bft) SW 214 0 min 0,000 mm 1,0 UV-I 266 W/m 14,9 C 17,5 C 8,0 km/h (2 Bft) 100,00 %
13.06.2016 16:59 17,6 C 84 % 1001,0 hPa 0,0 l/m 5,6 km/h (1 Bft) S-SW 209 0 min 0,000 mm 1,0 UV-I 282 W/m 14,9 C 17,6 C 6,4 km/h (2 Bft) 96,15 %
13.06.2016 17:00 17,6 C 85 % 1001,0 hPa 0,0 l/m 4,0 km/h (1 Bft) SW 227 0 min 0,076 mm 1,1 UV-I 302 W/m 15,0 C 17,6 C 6,4 km/h (2 Bft) 100,00 %
13.06.2016 17:01 17,6 C 85 % 1000,9 hPa 0,0 l/m 4,5 km/h (1 Bft) SW 215 0 min 0,000 mm 1,1 UV-I 315 W/m 15,0 C 17,6 C 6,4 km/h (2 Bft) 95,65 %
13.06.2016 17:02 17,7 C 85 % 1000,9 hPa 0,0 l/m 4,0 km/h (1 Bft) SW 227 1 min 0,000 mm 1,2 UV-I 334 W/m 15,1 C 17,7 C 4,8 km/h (1 Bft) 95,83 %
13.06.2016 17:03 17,7 C 85 % 1000,9 hPa 0,0 l/m 3,8 km/h (1 Bft) S 186 1 min 0,000 mm 1,2 UV-I 357 W/m 15,1 C 17,7 C 6,4 km/h (2 Bft) 100,00 %
13.06.2016 17:04 17,8 C 83 % 1000,8 hPa 0,0 l/m 3,9 km/h (1 Bft) S-SW 207 1 min 0,000 mm 1,3 UV-I 367 W/m 14,9 C 17,8 C 6,4 km/h (2 Bft) 95,83 %
13.06.2016 17:05 17,8 C 85 % 1000,8 hPa 0,0 l/m 1,7 km/h (1 Bft) S-SW 205 1 min 0,000 mm 1,3 UV-I 362 W/m 15,2 C 17,8 C 3,2 km/h (1 Bft) 100,00 %
13.06.2016 17:06 17,9 C 85 % 1000,8 hPa 0,0 l/m 3,3 km/h (1 Bft) SW 217 1 min 0,000 mm 1,3 UV-I 363 W/m 15,3 C 17,9 C 4,8 km/h (1 Bft) 96,15 %
13.06.2016 17:07 17,9 C 82 % 1000,8 hPa 0,0 l/m 3,9 km/h (1 Bft) SW 226 1 min 0,000 mm 1,4 UV-I 397 W/m 14,8 C 17,9 C 6,4 km/h (2 Bft) 100,00 %
13.06.2016 17:08 18,0 C 81 % 1000,8 hPa 0,0 l/m 3,8 km/h (1 Bft) SW 226 1 min 0,000 mm 1,5 UV-I 441 W/m 14,7 C 18,0 C 4,8 km/h (1 Bft) 92,31 %
13.06.2016 17:09 18,1 C 82 % 1000,8 hPa 0,0 l/m 4,2 km/h (1 Bft) SW 226 1 min 0,000 mm 1,5 UV-I 466 W/m 15,0 C 18,1 C 6,4 km/h (2 Bft) 95,83 %
13.06.2016 17:10 18,2 C 82 % 1000,8 hPa 0,0 l/m 5,2 km/h (1 Bft) SW 234 1 min 0,000 mm 1,6 UV-I 482 W/m 15,1 C 18,2 C 6,4 km/h (2 Bft) 92,31 %
13.06.2016 17:11 18,3 C 84 % 1000,8 hPa 0,0 l/m 3,4 km/h (1 Bft) SW 234 1 min 0,000 mm 1,7 UV-I 515 W/m 15,5 C 18,3 C 4,8 km/h (1 Bft) 94,44 %
13.06.2016 17:12 18,3 C 83 % 1000,7 hPa 0,0 l/m 1,9 km/h (1 Bft) S 177 1 min 0,000 mm 1,8 UV-I 543 W/m 15,4 C 18,3 C 3,2 km/h (1 Bft) 100,00 %
13.06.2016 17:15 18,4 C 79 % 1000,6 hPa 0,0 l/m 3,2 km/h (1 Bft) S 180 3 min 0,000 mm 1,9 UV-I 573 W/m 14,7 C 18,4 C 9,7 km/h (2 Bft) 100,00 %
13.06.2016 17:20 18,7 C 78 % 1000,6 hPa 0,0 l/m 4,8 km/h (1 Bft) S-SO 157 5 min 0,000 mm 1,6 UV-I 411 W/m 14,8 C 18,7 C 9,7 km/h (2 Bft) 100,00 %
13.06.2016 17:21 18,7 C 76 % 1000,5 hPa 0,0 l/m 4,0 km/h (1 Bft) S-SW 192 1 min 0,000 mm 1,8 UV-I 463 W/m 14,4 C 18,7 C 4,8 km/h (1 Bft) 96,88 %
13.06.2016 17:22 18,7 C 76 % 1000,6 hPa 0,0 l/m 6,8 km/h (2 Bft) SW 221 1 min 0,000 mm 1,5 UV-I 329 W/m 14,4 C 18,5 C 8,0 km/h (2 Bft) 97,56 %
13.06.2016 17:23 18,7 C 77 % 1000,6 hPa 0,0 l/m 6,6 km/h (2 Bft) W-SW 248 0 min 0,000 mm 1,5 UV-I 299 W/m 14,6 C 18,6 C 8,0 km/h (2 Bft) 98,49 %
13.06.2016 17:24 18,7 C 77 % 1000,6 hPa 0,0 l/m 2,5 km/h (1 Bft) W-SW 248 0 min 0,000 mm 1,4 UV-I 290 W/m 14,6 C 18,7 C 4,8 km/h (1 Bft) 95,35 %
13.06.2016 17:25 18,7 C 77 % 1000,6 hPa 0,0 l/m 1,9 km/h (1 Bft) W-SW 248 0 min 0,000 mm 1,4 UV-I 282 W/m 14,6 C 18,7 C 4,8 km/h (1 Bft) 100,00 %
13.06.2016 17:26 18,7 C 76 % 1000,6 hPa 0,0 l/m 1,5 km/h (1 Bft) S 188 0 min 0,000 mm 1,4 UV-I 271 W/m 14,4 C 18,7 C 3,2 km/h (1 Bft) 95,83 %
13.06.2016 17:27 18,7 C 77 % 1000,6 hPa 0,0 l/m 3,8 km/h (1 Bft) S-SW 192 0 min 0,000 mm 1,3 UV-I 265 W/m 14,6 C 18,7 C 4,8 km/h (1 Bft) 95,65 %
13.06.2016 17:28 18,7 C 74 % 1000,6 hPa 0,0 l/m 2,5 km/h (1 Bft) S-SW 192 0 min 0,000 mm 1,3 UV-I 257 W/m 14,0 C 18,7 C 4,8 km/h (1 Bft) 100,00 %
13.06.2016 17:29 18,6 C 74 % 1000,6 hPa 0,0 l/m 2,2 km/h (1 Bft) S-SW 208 0 min 0,000 mm 1,3 UV-I 249 W/m 13,9 C 18,6 C 3,2 km/h (1 Bft) 96,15 %
13.06.2016 17:30 18,6 C 75 % 1000,6 hPa 0,0 l/m 4,4 km/h (1 Bft) SW 229 0 min 0,000 mm 1,2 UV-I 242 W/m 14,1 C 18,6 C 6,4 km/h (2 Bft) 95,83 %
13.06.2016 17:31 18,6 C 76 % 1000,5 hPa 0,0 l/m 2,0 km/h (1 Bft) SW 229 0 min 0,000 mm 1,1 UV-I 239 W/m 14,3 C 18,6 C 3,2 km/h (1 Bft) 94,44 %
13.06.2016 17:32 18,6 C 77 % 1000,5 hPa 0,0 l/m 5,0 km/h (1 Bft) SW 233 0 min 0,000 mm 1,1 UV-I 235 W/m 14,5 C 18,6 C 6,4 km/h (2 Bft) 100,00 %
13.06.2016 17:33 18,7 C 77 % 1000,5 hPa 0,0 l/m 4,2 km/h (1 Bft) W-SW 247 0 min 0,000 mm 1,0 UV-I 227 W/m 14,6 C 18,7 C 4,8 km/h (1 Bft) 96,30 %
13.06.2016 17:34 18,7 C 78 % 1000,6 hPa 0,0 l/m 3,4 km/h (1 Bft) W-SW 244 0 min 0,000 mm 1,0 UV-I 220 W/m 14,8 C 18,7 C 4,8 km/h (1 Bft) 100,00 %
13.06.2016 17:35 18,7 C 78 % 1000,5 hPa 0,0 l/m 4,2 km/h (1 Bft) W-SW 237 0 min 0,000 mm 0,9 UV-I 212 W/m 14,8 C 18,7 C 8,0 km/h (2 Bft) 100,00 %
13.06.2016 17:36 18,7 C 78 % 1000,5 hPa 0,0 l/m 4,7 km/h (1 Bft) W-SW 238 0 min 0,000 mm 0,9 UV-I 206 W/m 14,8 C 18,7 C 6,4 km/h (2 Bft) 100,00 %
13.06.2016 17:37 18,6 C 78 % 1000,6 hPa 0,0 l/m 3,3 km/h (1 Bft) SW 236 0 min 0,000 mm 0,8 UV-I 195 W/m 14,7 C 18,6 C 4,8 km/h (1 Bft) 100,00 %
13.06.2016 17:38 18,7 C 80 % 1000,6 hPa 0,0 l/m 4,7 km/h (1 Bft) W 266 0 min 0,000 mm 0,8 UV-I 182 W/m 15,2 C 18,7 C 6,4 km/h (2 Bft) 96,15 %
13.06.2016 17:39 18,7 C 80 % 1000,6 hPa 0,0 l/m 4,9 km/h (1 Bft) W 260 0 min 0,000 mm 0,7 UV-I 166 W/m 15,2 C 18,7 C 6,4 km/h (2 Bft) 100,00 %
13.06.2016 17:40 18,7 C 80 % 1000,6 hPa 0,0 l/m 5,3 km/h (1 Bft) SW 233 0 min 0,000 mm 0,7 UV-I 152 W/m 15,2 C 18,7 C 8,0 km/h (2 Bft) 100,00 %
13.06.2016 17:41 18,6 C 80 % 1000,6 hPa 0,0 l/m 4,5 km/h (1 Bft) W-SW 238 0 min 0,000 mm 0,6 UV-I 134 W/m 15,1 C 18,6 C 6,4 km/h (2 Bft) 100,00 %
13.06.2016 17:42 18,6 C 79 % 1000,7 hPa 0,0 l/m 5,9 km/h (2 Bft) SW 232 0 min 0,000 mm 0,6 UV-I 121 W/m 14,9 C 18,6 C 8,0 km/h (2 Bft) 96,15 %
13.06.2016 17:43 18,6 C 80 % 1000,7 hPa 0,0 l/m 7,2 km/h (2 Bft) SW 225 0 min 0,000 mm 0,5 UV-I 109 W/m 15,1 C 18,2 C 9,7 km/h (2 Bft) 100,00 %
13.06.2016 17:44 18,6 C 78 % 1000,7 hPa 0,0 l/m 6,9 km/h (2 Bft) SW 224 0 min 0,000 mm 0,5 UV-I 96 W/m 14,7 C 18,4 C 9,7 km/h (2 Bft) 100,00 %
13.06.2016 17:45 18,6 C 80 % 1000,7 hPa 0,0 l/m 7,5 km/h (2 Bft) W-SW 240 0 min 0,000 mm 0,0 UV-I 87 W/m 15,1 C 18,1 C 11,3 km/h (2 Bft) 100,00 %
13.06.2016 17:46 18,5 C 79 % 1000,8 hPa 0,0 l/m 6,4 km/h (2 Bft) W-SW 248 0 min 0,000 mm 0,0 UV-I 75 W/m 14,8 C 18,5 C 8,0 km/h (2 Bft) 100,00 %
13.06.2016 17:47 18,5 C 78 % 1000,8 hPa 0,0 l/m 6,5 km/h (2 Bft) W-SW 237 0 min 0,000 mm 0,0 UV-I 65 W/m 14,6 C 18,5 C 9,7 km/h (2 Bft) 100,00 %
13.06.2016 17:48 18,4 C 78 % 1000,8 hPa 0,0 l/m 7,1 km/h (2 Bft) SW 223 0 min 0,000 mm 0,0 UV-I 57 W/m 14,5 C 18,1 C 11,3 km/h (2 Bft) 100,00 %
13.06.2016 17:49 18,4 C 78 % 1000,8 hPa 0,0 l/m 9,7 km/h (2 Bft) SW 227 0 min 0,000 mm 0,0 UV-I 49 W/m 14,5 C 17,0 C 14,5 km/h (3 Bft) 100,00 %
13.06.2016 17:50 18,4 C 79 % 1000,8 hPa 0,0 l/m 8,1 km/h (2 Bft) SW 227 0 min 0,000 mm 0,0 UV-I 47 W/m 14,7 C 17,6 C 12,9 km/h (3 Bft) 100,00 %
13.06.2016 17:51 18,3 C 80 % 1000,8 hPa 0,0 l/m 6,6 km/h (2 Bft) SW 235 0 min 0,000 mm 0,0 UV-I 45 W/m 14,8 C 18,2 C 9,7 km/h (2 Bft) 100,00 %
13.06.2016 17:52 18,3 C 81 % 1000,9 hPa 0,0 l/m 5,9 km/h (2 Bft) S 181 0 min 0,000 mm 0,0 UV-I 43 W/m 15,0 C 18,3 C 8,0 km/h (2 Bft) 100,00 %
13.06.2016 17:53 18,3 C 81 % 1000,9 hPa 0,0 l/m 6,8 km/h (2 Bft) S-SW 197 0 min 0,000 mm 0,0 UV-I 41 W/m 15,0 C 18,1 C 8,0 km/h (2 Bft) 100,00 %
13.06.2016 17:54 18,2 C 81 % 1000,9 hPa 0,0 l/m 6,1 km/h (2 Bft) SW 230 0 min 0,000 mm 0,0 UV-I 39 W/m 14,9 C 18,2 C 8,0 km/h (2 Bft) 100,00 %
13.06.2016 17:55 18,2 C 82 % 1001,0 hPa 0,0 l/m 6,8 km/h (2 Bft) SW 235 0 min 0,000 mm 0,0 UV-I 37 W/m 15,1 C 18,0 C 14,5 km/h (3 Bft) 100,00 %
13.06.2016 17:56 18,1 C 82 % 1000,9 hPa 0,2 l/m 11,3 km/h (2 Bft) S-SW 199 0 min 0,000 mm 0,0 UV-I 34 W/m 15,0 C 16,1 C 14,5 km/h (3 Bft) 100,00 %
13.06.2016 17:57 18,0 C 81 % 1001,0 hPa 0,0 l/m 13,4 km/h (3 Bft) SW 225 0 min 0,000 mm 0,0 UV-I 32 W/m 14,7 C 15,3 C 19,3 km/h (3 Bft) 100,00 %
13.06.2016 17:58 17,9 C 82 % 1001,0 hPa 0,2 l/m 14,4 km/h (3 Bft) S-SW 213 0 min 0,000 mm 0,0 UV-I 29 W/m 14,8 C 14,9 C 22,5 km/h (4 Bft) 95,83 %
13.06.2016 17:59 17,8 C 82 % 1001,0 hPa 0,2 l/m 12,0 km/h (2 Bft) S-SW 209 0 min 0,000 mm 0,0 UV-I 27 W/m 14,7 C 15,5 C 17,7 km/h (3 Bft) 95,65 %
13.06.2016 18:00 17,7 C 83 % 1001,0 hPa 0,2 l/m 14,3 km/h (3 Bft) S-SW 207 0 min 0,000 mm 0,0 UV-I 25 W/m 14,8 C 14,7 C 22,5 km/h (4 Bft) 100,00 %
13.06.2016 18:02 17,4 C 84 % 1001,0 hPa 0,6 l/m 18,2 km/h (3 Bft) S-SW 196 0 min 0,152 mm 0,0 UV-I 23 W/m 14,7 C 13,3 C 25,7 km/h (4 Bft) 98,21 %
13.06.2016 18:03 17,2 C 85 % 1001,0 hPa 0,6 l/m 16,7 km/h (3 Bft) S-SW 194 0 min 0,000 mm 0,0 UV-I 21 W/m 14,7 C 13,4 C 24,1 km/h (4 Bft) 91,67 %
13.06.2016 18:04 17,1 C 86 % 1001,0 hPa 0,6 l/m 15,9 km/h (3 Bft) S-SO 155 0 min 0,000 mm 0,0 UV-I 22 W/m 14,7 C 13,5 C 20,9 km/h (4 Bft) 96,88 %
13.06.2016 18:05 16,9 C 86 % 1001,0 hPa 0,4 l/m 16,8 km/h (3 Bft) S-SW 198 0 min 0,000 mm 0,0 UV-I 24 W/m 14,5 C 13,0 C 30,6 km/h (5 Bft) 92,31 %
13.06.2016 18:06 16,8 C 87 % 1001,1 hPa 1,2 l/m 13,1 km/h (3 Bft) S 191 0 min 0,000 mm 0,0 UV-I 27 W/m 14,6 C 14,0 C 17,7 km/h (3 Bft) 91,67 %
13.06.2016 18:07 16,7 C 88 % 1001,2 hPa 1,6 l/m 14,6 km/h (3 Bft) SW 219 0 min 0,000 mm 0,0 UV-I 32 W/m 14,7 C 13,4 C 16,1 km/h (3 Bft) 91,43 %
13.06.2016 18:08 16,5 C 88 % 1001,1 hPa 0,4 l/m 7,1 km/h (2 Bft) S-SW 196 0 min 0,000 mm 0,0 UV-I 52 W/m 14,5 C 16,1 C 12,9 km/h (3 Bft) 100,00 %
13.06.2016 18:09 16,3 C 88 % 1001,1 hPa 0,6 l/m 6,4 km/h (2 Bft) S-SW 205 0 min 0,000 mm 0,0 UV-I 69 W/m 14,3 C 16,3 C 8,0 km/h (2 Bft) 100,00 %
13.06.2016 18:10 16,2 C 89 % 1001,1 hPa 0,0 l/m 7,8 km/h (2 Bft) S-SW 194 0 min 0,000 mm 0,0 UV-I 90 W/m 14,4 C 15,5 C 8,0 km/h (2 Bft) 100,00 %
13.06.2016 18:11 16,1 C 90 % 1001,0 hPa 0,0 l/m 7,6 km/h (2 Bft) S-SO 165 0 min 0,000 mm 0,0 UV-I 107 W/m 14,5 C 15,5 C 11,3 km/h (2 Bft) 100,00 %
13.06.2016 18:12 16,0 C 90 % 1001,0 hPa 0,0 l/m 5,5 km/h (1 Bft) S 171 0 min 0,000 mm 0,0 UV-I 119 W/m 14,4 C 16,0 C 8,0 km/h (2 Bft) 100,00 %
13.06.2016 18:13 16,0 C 91 % 1001,0 hPa 0,0 l/m 7,5 km/h (2 Bft) S-SW 195 0 min 0,000 mm 0,0 UV-I 128 W/m 14,5 C 15,4 C 11,3 km/h (2 Bft) 100,00 %
13.06.2016 18:14 16,0 C 91 % 1001,0 hPa 0,0 l/m 9,6 km/h (2 Bft) S-SW 209 0 min 0,000 mm 0,0 UV-I 138 W/m 14,5 C 14,4 C 12,9 km/h (3 Bft) 100,00 %
13.06.2016 18:15 16,1 C 91 % 1000,9 hPa 0,0 l/m 7,2 km/h (2 Bft) S-SO 161 0 min 0,000 mm 0,0 UV-I 158 W/m 14,6 C 15,7 C 9,7 km/h (2 Bft) 100,00 %
13.06.2016 18:16 16,1 C 91 % 1000,9 hPa 0,0 l/m 7,3 km/h (2 Bft) S 181 0 min 0,000 mm 0,0 UV-I 176 W/m 14,6 C 15,6 C 12,9 km/h (3 Bft) 100,00 %
13.06.2016 18:17 16,1 C 91 % 1000,9 hPa 0,0 l/m 7,7 km/h (2 Bft) S-SW 210 0 min 0,000 mm 0,0 UV-I 217 W/m 14,6 C 15,4 C 12,9 km/h (3 Bft) 100,00 %
13.06.2016 18:18 16,1 C 90 % 1000,9 hPa 0,0 l/m 9,1 km/h (2 Bft) S-SW 192 0 min 0,000 mm 0,0 UV-I 164 W/m 14,5 C 14,7 C 14,5 km/h (3 Bft) 89,66 %
13.06.2016 18:19 16,1 C 89 % 1000,9 hPa 0,0 l/m 8,4 km/h (2 Bft) S 186 0 min 0,000 mm 0,0 UV-I 160 W/m 14,3 C 15,1 C 12,9 km/h (3 Bft) 100,00 %
13.06.2016 18:20 16,1 C 90 % 1000,9 hPa 0,0 l/m 9,7 km/h (2 Bft) S-SW 204 0 min 0,000 mm 0,0 UV-I 161 W/m 14,5 C 14,5 C 11,3 km/h (2 Bft) 92,31 %
13.06.2016 18:21 16,2 C 90 % 1000,9 hPa 0,0 l/m 10,7 km/h (2 Bft) S 190 0 min 0,000 mm 0,2 UV-I 166 W/m 14,6 C 14,2 C 16,1 km/h (3 Bft) 88,89 %
13.06.2016 18:22 16,2 C 90 % 1000,9 hPa 0,0 l/m 9,3 km/h (2 Bft) SW 214 0 min 0,000 mm 0,5 UV-I 171 W/m 14,6 C 14,7 C 12,9 km/h (3 Bft) 92,31 %
13.06.2016 18:23 16,2 C 90 % 1000,9 hPa 0,0 l/m 9,0 km/h (2 Bft) SO 140 0 min 0,000 mm 0,5 UV-I 175 W/m 14,6 C 14,9 C 12,9 km/h (3 Bft) 100,00 %
13.06.2016 18:24 16,2 C 90 % 1000,9 hPa 0,0 l/m 8,2 km/h (2 Bft) SW 223 0 min 0,000 mm 0,5 UV-I 181 W/m 14,6 C 15,3 C 11,3 km/h (2 Bft) 96,15 %
13.06.2016 18:25 16,2 C 90 % 1000,9 hPa 0,0 l/m 5,5 km/h (1 Bft) SO 144 0 min 0,000 mm 0,5 UV-I 185 W/m 14,6 C 16,2 C 8,0 km/h (2 Bft) 100,00 %
13.06.2016 18:26 16,2 C 90 % 1000,9 hPa 0,0 l/m 6,2 km/h (2 Bft) S-SW 204 0 min 0,000 mm 0,5 UV-I 185 W/m 14,6 C 16,2 C 8,0 km/h (2 Bft) 100,00 %
13.06.2016 18:27 16,2 C 90 % 1000,9 hPa 0,0 l/m 7,2 km/h (2 Bft) SW 219 0 min 0,000 mm 0,5 UV-I 184 W/m 14,6 C 15,8 C 9,7 km/h (2 Bft) 100,00 %
13.06.2016 18:28 16,2 C 90 % 1000,8 hPa 0,0 l/m 6,4 km/h (2 Bft) S-SW 197 0 min 0,000 mm 0,5 UV-I 182 W/m 14,6 C 16,2 C 9,7 km/h (2 Bft) 100,00 %
13.06.2016 18:29 16,2 C 91 % 1000,9 hPa 0,0 l/m 7,7 km/h (2 Bft) S-SW 211 0 min 0,000 mm 0,5 UV-I 179 W/m 14,7 C 15,5 C 11,3 km/h (2 Bft) 95,65 %
13.06.2016 18:30 16,2 C 90 % 1000,9 hPa 0,0 l/m 9,6 km/h (2 Bft) SW 221 0 min 0,000 mm 0,5 UV-I 181 W/m 14,6 C 14,6 C 11,3 km/h (2 Bft) 100,00 %
13.06.2016 18:31 16,2 C 90 % 1000,9 hPa 0,0 l/m 9,0 km/h (2 Bft) S-SW 200 0 min 0,000 mm 0,5 UV-I 191 W/m 14,6 C 14,9 C 11,3 km/h (2 Bft) 100,00 %
13.06.2016 18:32 16,2 C 89 % 1001,0 hPa 0,0 l/m 6,3 km/h (2 Bft) S-SW 202 0 min 0,000 mm 0,5 UV-I 203 W/m 14,4 C 16,2 C 8,0 km/h (2 Bft) 100,00 %
13.06.2016 18:33 16,2 C 90 % 1001,0 hPa 0,0 l/m 7,5 km/h (2 Bft) S-SW 199 1 min 0,000 mm 0,5 UV-I 218 W/m 14,6 C 15,6 C 11,3 km/h (2 Bft) 100,00 %
13.06.2016 18:34 16,2 C 91 % 1001,0 hPa 0,0 l/m 6,9 km/h (2 Bft) S-SW 197 1 min 0,000 mm 0,5 UV-I 288 W/m 14,7 C 15,9 C 9,7 km/h (2 Bft) 100,00 %
13.06.2016 18:35 16,2 C 91 % 1001,0 hPa 0,0 l/m 7,0 km/h (2 Bft) S 181 1 min 0,000 mm 0,6 UV-I 398 W/m 14,7 C 15,9 C 9,7 km/h (2 Bft) 100,00 %
13.06.2016 18:36 16,3 C 91 % 1001,0 hPa 0,0 l/m 6,8 km/h (2 Bft) SW 217 1 min 0,000 mm 0,6 UV-I 405 W/m 14,8 C 16,1 C 8,0 km/h (2 Bft) 93,33 %
13.06.2016 18:37 16,3 C 90 % 1001,0 hPa 0,0 l/m 7,5 km/h (2 Bft) S 187 1 min 0,000 mm 0,6 UV-I 334 W/m 14,7 C 15,7 C 11,3 km/h (2 Bft) 96,15 %
13.06.2016 18:38 16,4 C 91 % 1001,0 hPa 0,0 l/m 9,5 km/h (2 Bft) S 189 1 min 0,000 mm 0,6 UV-I 309 W/m 14,9 C 14,9 C 12,9 km/h (3 Bft) 100,00 %
13.06.2016 18:39 16,4 C 90 % 1001,0 hPa 0,0 l/m 13,0 km/h (3 Bft) SW 219 1 min 0,000 mm 0,6 UV-I 238 W/m 14,8 C 13,5 C 17,7 km/h (3 Bft) 100,00 %
13.06.2016 18:40 16,5 C 89 % 1001,0 hPa 0,0 l/m 10,0 km/h (2 Bft) S-SW 196 1 min 0,000 mm 0,6 UV-I 222 W/m 14,7 C 14,8 C 12,9 km/h (3 Bft) 92,11 %
13.06.2016 18:41 16,6 C 90 % 1001,0 hPa 0,0 l/m 11,2 km/h (2 Bft) S 175 1 min 0,000 mm 0,6 UV-I 231 W/m 15,0 C 14,4 C 14,5 km/h (3 Bft) 78,57 %
13.06.2016 18:42 16,6 C 89 % 1001,0 hPa 0,0 l/m 9,6 km/h (2 Bft) S 178 1 min 0,000 mm 0,6 UV-I 253 W/m 14,8 C 15,1 C 12,9 km/h (3 Bft) 100,00 %
13.06.2016 18:43 16,6 C 88 % 1001,0 hPa 0,0 l/m 10,0 km/h (2 Bft) S 184 1 min 0,000 mm 0,6 UV-I 259 W/m 14,6 C 14,9 C 14,5 km/h (3 Bft) 100,00 %
13.06.2016 18:44 16,7 C 89 % 1001,0 hPa 0,0 l/m 7,2 km/h (2 Bft) S 185 1 min 0,000 mm 0,6 UV-I 300 W/m 14,9 C 16,3 C 9,7 km/h (2 Bft) 100,00 %
13.06.2016 18:45 16,7 C 89 % 1001,0 hPa 0,0 l/m 5,7 km/h (1 Bft) S-SW 205 1 min 0,000 mm 0,6 UV-I 297 W/m 14,9 C 16,7 C 8,0 km/h (2 Bft) 91,30 %
13.06.2016 18:46 16,7 C 89 % 1001,1 hPa 0,0 l/m 12,3 km/h (3 Bft) S 185 1 min 0,000 mm 0,5 UV-I 264 W/m 14,9 C 14,1 C 16,1 km/h (3 Bft) 96,30 %
13.06.2016 18:47 16,8 C 88 % 1001,0 hPa 0,0 l/m 9,7 km/h (2 Bft) S 185 1 min 0,000 mm 0,5 UV-I 190 W/m 14,8 C 15,2 C 12,9 km/h (3 Bft) 100,00 %
13.06.2016 18:48 16,8 C 88 % 1001,0 hPa 0,0 l/m 10,3 km/h (2 Bft) S 187 0 min 0,000 mm 0,5 UV-I 179 W/m 14,8 C 15,0 C 16,1 km/h (3 Bft) 100,00 %
13.06.2016 18:49 16,8 C 87 % 1001,0 hPa 0,0 l/m 8,5 km/h (2 Bft) SW 217 0 min 0,000 mm 0,5 UV-I 178 W/m 14,6 C 15,8 C 12,9 km/h (3 Bft) 100,00 %
13.06.2016 18:50 16,8 C 88 % 1001,0 hPa 0,0 l/m 10,1 km/h (2 Bft) S 176 1 min 0,000 mm 0,5 UV-I 228 W/m 14,8 C 15,1 C 14,5 km/h (3 Bft) 96,55 %
13.06.2016 18:51 16,9 C 88 % 1001,0 hPa 0,0 l/m 8,9 km/h (2 Bft) SW 215 1 min 0,000 mm 0,5 UV-I 292 W/m 14,9 C 15,7 C 14,5 km/h (3 Bft) 100,00 %
13.06.2016 18:52 16,9 C 89 % 1001,0 hPa 0,0 l/m 7,5 km/h (2 Bft) S-SW 202 1 min 0,000 mm 0,5 UV-I 302 W/m 15,1 C 16,3 C 9,7 km/h (2 Bft) 100,00 %
13.06.2016 18:53 17,0 C 89 % 1001,0 hPa 0,0 l/m 9,9 km/h (2 Bft) S 180 1 min 0,000 mm 0,5 UV-I 297 W/m 15,2 C 15,4 C 12,9 km/h (3 Bft) 100,00 %
13.06.2016 18:54 17,1 C 88 % 1001,0 hPa 0,0 l/m 7,8 km/h (2 Bft) S-SO 166 1 min 0,000 mm 0,5 UV-I 292 W/m 15,1 C 16,4 C 11,3 km/h (2 Bft) 100,00 %
13.06.2016 18:55 17,1 C 88 % 1000,9 hPa 0,0 l/m 8,3 km/h (2 Bft) S-SW 194 1 min 0,000 mm 0,5 UV-I 291 W/m 15,1 C 16,2 C 16,1 km/h (3 Bft) 100,00 %
13.06.2016 18:56 17,2 C 88 % 1001,0 hPa 0,0 l/m 10,2 km/h (2 Bft) SO 146 1 min 0,000 mm 0,5 UV-I 294 W/m 15,2 C 15,5 C 14,5 km/h (3 Bft) 100,00 %
13.06.2016 18:57 17,2 C 87 % 1000,9 hPa 0,0 l/m 8,6 km/h (2 Bft) SW 232 1 min 0,000 mm 0,5 UV-I 294 W/m 15,0 C 16,1 C 14,5 km/h (3 Bft) 96,30 %
13.06.2016 18:58 17,3 C 88 % 1000,9 hPa 0,0 l/m 7,6 km/h (2 Bft) SO 139 1 min 0,000 mm 0,5 UV-I 283 W/m 15,3 C 16,7 C 11,3 km/h (2 Bft) 92,86 %
13.06.2016 18:59 17,3 C 87 % 1000,9 hPa 0,0 l/m 4,6 km/h (1 Bft) SW 217 1 min 0,000 mm 0,2 UV-I 217 W/m 15,1 C 17,3 C 8,0 km/h (2 Bft) 96,30 %
13.06.2016 19:00 17,3 C 87 % 1000,9 hPa 0,0 l/m 7,5 km/h (2 Bft) W-SW 238 0 min 0,000 mm 0,0 UV-I 122 W/m 15,1 C 16,8 C 11,3 km/h (2 Bft) 100,00 %
13.06.2016 19:02 17,3 C 86 % 1000,9 hPa 0,0 l/m 9,3 km/h (2 Bft) S-SW 196 0 min 0,127 mm 0,0 UV-I 109 W/m 14,9 C 15,9 C 14,5 km/h (3 Bft) 97,37 %
13.06.2016 19:03 17,3 C 85 % 1000,9 hPa 0,0 l/m 7,3 km/h (2 Bft) S 170 0 min 0,000 mm 0,0 UV-I 103 W/m 14,8 C 16,9 C 12,9 km/h (3 Bft) 95,83 %
13.06.2016 19:04 17,2 C 86 % 1001,0 hPa 0,0 l/m 11,7 km/h (2 Bft) SW 229 0 min 0,000 mm 0,0 UV-I 100 W/m 14,8 C 14,9 C 14,5 km/h (3 Bft) 96,15 %
13.06.2016 19:05 17,2 C 86 % 1000,9 hPa 0,0 l/m 10,5 km/h (2 Bft) SW 221 0 min 0,000 mm 0,0 UV-I 98 W/m 14,8 C 15,4 C 16,1 km/h (3 Bft) 96,30 %
13.06.2016 19:06 17,1 C 85 % 1000,9 hPa 0,0 l/m 9,7 km/h (2 Bft) S-SW 197 0 min 0,000 mm 0,0 UV-I 96 W/m 14,6 C 15,6 C 16,1 km/h (3 Bft) 96,15 %
13.06.2016 19:07 17,1 C 86 % 1000,9 hPa 0,0 l/m 10,0 km/h (2 Bft) SW 229 0 min 0,000 mm 0,0 UV-I 92 W/m 14,7 C 15,4 C 14,5 km/h (3 Bft) 100,00 %
13.06.2016 19:08 17,0 C 86 % 1000,9 hPa 0,0 l/m 11,6 km/h (2 Bft) S 190 0 min 0,000 mm 0,0 UV-I 90 W/m 14,6 C 14,7 C 14,5 km/h (3 Bft) 91,30 %
13.06.2016 19:09 16,9 C 86 % 1000,9 hPa 0,0 l/m 11,8 km/h (2 Bft) S-SW 195 0 min 0,000 mm 0,0 UV-I 87 W/m 14,5 C 14,5 C 17,7 km/h (3 Bft) 91,67 %
13.06.2016 19:10 16,9 C 86 % 1001,0 hPa 0,0 l/m 11,5 km/h (2 Bft) S-SW 199 0 min 0,000 mm 0,0 UV-I 84 W/m 14,5 C 14,6 C 16,1 km/h (3 Bft) 95,65 %
13.06.2016 19:11 16,9 C 86 % 1001,0 hPa 0,0 l/m 13,0 km/h (3 Bft) SW 229 0 min 0,000 mm 0,0 UV-I 81 W/m 14,5 C 14,1 C 17,7 km/h (3 Bft) 95,83 %
13.06.2016 19:12 16,9 C 86 % 1001,0 hPa 0,0 l/m 8,4 km/h (2 Bft) SW 229 0 min 0,000 mm 0,0 UV-I 78 W/m 14,5 C 15,9 C 14,5 km/h (3 Bft) 100,00 %
13.06.2016 19:13 16,8 C 86 % 1001,0 hPa 0,0 l/m 12,7 km/h (3 Bft) S 190 0 min 0,000 mm 0,0 UV-I 75 W/m 14,4 C 14,1 C 17,7 km/h (3 Bft) 95,65 %
13.06.2016 19:14 16,8 C 86 % 1001,0 hPa 0,0 l/m 11,4 km/h (2 Bft) S 189 0 min 0,000 mm 0,0 UV-I 73 W/m 14,4 C 14,6 C 17,7 km/h (3 Bft) 100,00 %
13.06.2016 19:15 16,8 C 86 % 1000,9 hPa 0,0 l/m 8,8 km/h (2 Bft) S-SW 200 0 min 0,000 mm 0,0 UV-I 72 W/m 14,4 C 15,6 C 14,5 km/h (3 Bft) 91,30 %
13.06.2016 19:16 16,8 C 87 % 1000,9 hPa 0,0 l/m 9,6 km/h (2 Bft) S-SW 209 0 min 0,000 mm 0,0 UV-I 70 W/m 14,6 C 15,3 C 16,1 km/h (3 Bft) 100,00 %
13.06.2016 19:17 16,8 C 86 % 1001,0 hPa 0,0 l/m 13,6 km/h (3 Bft) S-SW 200 0 min 0,000 mm 0,0 UV-I 69 W/m 14,4 C 13,8 C 19,3 km/h (3 Bft) 96,15 %
13.06.2016 19:18 16,7 C 87 % 1001,0 hPa 0,0 l/m 12,3 km/h (3 Bft) S-SW 213 0 min 0,000 mm 0,0 UV-I 66 W/m 14,5 C 14,1 C 17,7 km/h (3 Bft) 100,00 %
13.06.2016 19:19 16,7 C 87 % 1001,0 hPa 0,0 l/m 9,8 km/h (2 Bft) S-SW 198 0 min 0,000 mm 0,0 UV-I 64 W/m 14,5 C 15,1 C 20,9 km/h (4 Bft) 92,86 %
13.06.2016 19:20 16,7 C 87 % 1001,0 hPa 0,0 l/m 7,0 km/h (2 Bft) S 180 0 min 0,000 mm 0,0 UV-I 62 W/m 14,5 C 16,4 C 9,7 km/h (2 Bft) 96,30 %
13.06.2016 19:21 16,7 C 87 % 1001,1 hPa 0,0 l/m 7,6 km/h (2 Bft) S-SW 200 0 min 0,000 mm 0,0 UV-I 60 W/m 14,5 C 16,1 C 12,9 km/h (3 Bft) 92,31 %
13.06.2016 19:22 16,7 C 87 % 1001,1 hPa 0,0 l/m 11,3 km/h (2 Bft) SW 222 0 min 0,000 mm 0,0 UV-I 58 W/m 14,5 C 14,5 C 17,7 km/h (3 Bft) 95,83 %
13.06.2016 19:23 16,7 C 87 % 1001,0 hPa 0,0 l/m 12,2 km/h (2 Bft) S-SW 198 0 min 0,000 mm 0,0 UV-I 56 W/m 14,5 C 14,2 C 17,7 km/h (3 Bft) 100,00 %
13.06.2016 19:24 16,6 C 88 % 1001,0 hPa 0,0 l/m 12,1 km/h (2 Bft) W-SW 243 0 min 0,000 mm 0,0 UV-I 56 W/m 14,6 C 14,1 C 16,1 km/h (3 Bft) 95,83 %
13.06.2016 19:25 16,6 C 88 % 1001,0 hPa 0,0 l/m 10,7 km/h (2 Bft) S-SW 213 0 min 0,000 mm 0,0 UV-I 55 W/m 14,6 C 14,6 C 17,7 km/h (3 Bft) 100,00 %
13.06.2016 19:26 16,6 C 88 % 1001,0 hPa 0,0 l/m 9,5 km/h (2 Bft) S-SW 195 0 min 0,000 mm 0,0 UV-I 53 W/m 14,6 C 15,1 C 12,9 km/h (3 Bft) 95,65 %
13.06.2016 19:27 16,6 C 88 % 1001,1 hPa 0,0 l/m 8,9 km/h (2 Bft) S 190 0 min 0,000 mm 0,0 UV-I 53 W/m 14,6 C 15,4 C 12,9 km/h (3 Bft) 100,00 %
13.06.2016 19:28 16,6 C 88 % 1001,1 hPa 0,0 l/m 12,0 km/h (2 Bft) S 175 0 min 0,000 mm 0,0 UV-I 51 W/m 14,6 C 14,1 C 16,1 km/h (3 Bft) 91,30 %
13.06.2016 19:29 16,5 C 88 % 1001,0 hPa 0,0 l/m 10,2 km/h (2 Bft) S-SW 209 0 min 0,000 mm 0,0 UV-I 51 W/m 14,5 C 14,7 C 16,1 km/h (3 Bft) 96,88 %
13.06.2016 19:30 16,5 C 88 % 1001,1 hPa 0,0 l/m 10,7 km/h (2 Bft) S 175 0 min 0,000 mm 0,0 UV-I 49 W/m 14,5 C 14,5 C 14,5 km/h (3 Bft) 100,00 %
13.06.2016 19:31 16,5 C 88 % 1001,0 hPa 0,0 l/m 11,8 km/h (2 Bft) S-SW 193 0 min 0,000 mm 0,0 UV-I 47 W/m 14,5 C 14,1 C 14,5 km/h (3 Bft) 100,00 %
13.06.2016 19:32 16,5 C 88 % 1001,0 hPa 0,0 l/m 11,0 km/h (2 Bft) SW 227 0 min 0,000 mm 0,0 UV-I 46 W/m 14,5 C 14,4 C 17,7 km/h (3 Bft) 97,73 %
13.06.2016 19:33 16,4 C 88 % 1001,0 hPa 0,0 l/m 15,9 km/h (3 Bft) S 184 0 min 0,000 mm 0,0 UV-I 46 W/m 14,4 C 12,6 C 22,5 km/h (4 Bft) 100,00 %
13.06.2016 19:34 16,4 C 88 % 1001,0 hPa 0,0 l/m 9,6 km/h (2 Bft) S-SW 197 0 min 0,000 mm 0,0 UV-I 46 W/m 14,4 C 14,8 C 14,5 km/h (3 Bft) 96,55 %
13.06.2016 19:35 16,4 C 88 % 1001,0 hPa 0,0 l/m 12,4 km/h (3 Bft) S-SW 199 0 min 0,000 mm 0,0 UV-I 46 W/m 14,4 C 13,7 C 20,9 km/h (4 Bft) 100,00 %
13.06.2016 19:36 16,4 C 88 % 1001,0 hPa 0,0 l/m 11,9 km/h (2 Bft) S-SW 195 0 min 0,000 mm 0,0 UV-I 46 W/m 14,4 C 13,9 C 17,7 km/h (3 Bft) 100,00 %
13.06.2016 19:37 16,4 C 88 % 1001,0 hPa 0,0 l/m 13,3 km/h (3 Bft) SW 216 0 min 0,000 mm 0,0 UV-I 46 W/m 14,4 C 13,4 C 19,3 km/h (3 Bft) 100,00 %
13.06.2016 19:38 16,3 C 88 % 1001,0 hPa 0,0 l/m 13,2 km/h (3 Bft) S 190 0 min 0,000 mm 0,0 UV-I 50 W/m 14,3 C 13,3 C 17,7 km/h (3 Bft) 96,15 %
13.06.2016 19:39 16,3 C 87 % 1001,0 hPa 0,0 l/m 12,2 km/h (2 Bft) S-SW 195 0 min 0,000 mm 0,0 UV-I 94 W/m 14,1 C 13,7 C 19,3 km/h (3 Bft) 100,00 %
13.06.2016 19:40 16,3 C 87 % 1001,0 hPa 0,0 l/m 12,6 km/h (3 Bft) S 186 1 min 0,000 mm 0,0 UV-I 132 W/m 14,1 C 13,6 C 16,1 km/h (3 Bft) 100,00 %
13.06.2016 19:41 16,3 C 87 % 1001,0 hPa 0,0 l/m 13,9 km/h (3 Bft) S 180 1 min 0,000 mm 0,0 UV-I 113 W/m 14,1 C 13,1 C 20,9 km/h (4 Bft) 100,00 %
13.06.2016 19:42 16,3 C 87 % 1001,0 hPa 0,0 l/m 12,0 km/h (2 Bft) SW 225 0 min 0,000 mm 0,0 UV-I 71 W/m 14,1 C 13,8 C 17,7 km/h (3 Bft) 100,00 %
13.06.2016 19:43 16,3 C 87 % 1001,0 hPa 0,0 l/m 9,9 km/h (2 Bft) S 186 0 min 0,000 mm 0,0 UV-I 63 W/m 14,1 C 14,6 C 12,9 km/h (3 Bft) 100,00 %
13.06.2016 19:44 16,3 C 87 % 1001,0 hPa 0,0 l/m 9,7 km/h (2 Bft) SW 215 0 min 0,000 mm 0,0 UV-I 53 W/m 14,1 C 14,7 C 16,1 km/h (3 Bft) 100,00 %
13.06.2016 19:45 16,3 C 87 % 1001,0 hPa 0,0 l/m 10,8 km/h (2 Bft) SW 234 0 min 0,000 mm 0,0 UV-I 53 W/m 14,1 C 14,2 C 17,7 km/h (3 Bft) 100,00 %
13.06.2016 19:46 16,3 C 87 % 1001,0 hPa 0,0 l/m 10,1 km/h (2 Bft) SW 225 0 min 0,000 mm 0,0 UV-I 49 W/m 14,1 C 14,5 C 14,5 km/h (3 Bft) 100,00 %
13.06.2016 19:47 16,3 C 87 % 1001,0 hPa 0,0 l/m 9,5 km/h (2 Bft) S-SW 210 0 min 0,000 mm 0,0 UV-I 47 W/m 14,1 C 14,8 C 16,1 km/h (3 Bft) 100,00 %
13.06.2016 19:48 16,3 C 87 % 1001,0 hPa 0,0 l/m 9,7 km/h (2 Bft) S-SW 209 0 min 0,000 mm 0,0 UV-I 46 W/m 14,1 C 14,7 C 12,9 km/h (3 Bft) 100,00 %
13.06.2016 19:49 16,3 C 87 % 1001,0 hPa 0,0 l/m 12,4 km/h (3 Bft) SW 215 0 min 0,000 mm 0,0 UV-I 45 W/m 14,1 C 13,6 C 16,1 km/h (3 Bft) 100,00 %
13.06.2016 19:50 16,2 C 87 % 1001,0 hPa 0,0 l/m 10,8 km/h (2 Bft) S-SW 207 0 min 0,000 mm 0,0 UV-I 43 W/m 14,0 C 14,1 C 14,5 km/h (3 Bft) 100,00 %
13.06.2016 19:51 16,2 C 87 % 1001,0 hPa 0,0 l/m 12,3 km/h (3 Bft) S-SO 156 0 min 0,000 mm 0,0 UV-I 40 W/m 14,0 C 13,5 C 22,5 km/h (4 Bft) 100,00 %
13.06.2016 19:52 16,2 C 87 % 1001,0 hPa 0,0 l/m 10,7 km/h (2 Bft) W-SW 237 0 min 0,000 mm 0,0 UV-I 40 W/m 14,0 C 14,2 C 14,5 km/h (3 Bft) 100,00 %
13.06.2016 19:53 16,2 C 87 % 1001,0 hPa 0,0 l/m 12,2 km/h (2 Bft) S-SW 202 0 min 0,000 mm 0,0 UV-I 39 W/m 14,0 C 13,6 C 17,7 km/h (3 Bft) 100,00 %
13.06.2016 19:54 16,1 C 87 % 1001,0 hPa 0,0 l/m 9,7 km/h (2 Bft) SW 217 0 min 0,000 mm 0,0 UV-I 39 W/m 13,9 C 14,5 C 14,5 km/h (3 Bft) 100,00 %
13.06.2016 19:55 16,1 C 86 % 1001,0 hPa 0,0 l/m 10,3 km/h (2 Bft) S-SW 199 0 min 0,000 mm 0,0 UV-I 39 W/m 13,8 C 14,2 C 17,7 km/h (3 Bft) 100,00 %
13.06.2016 19:56 16,1 C 87 % 1001,0 hPa 0,0 l/m 10,6 km/h (2 Bft) S 180 0 min 0,000 mm 0,0 UV-I 36 W/m 13,9 C 14,1 C 14,5 km/h (3 Bft) 100,00 %
13.06.2016 19:57 16,1 C 87 % 1001,1 hPa 0,0 l/m 10,4 km/h (2 Bft) S-SW 205 0 min 0,000 mm 0,0 UV-I 35 W/m 13,9 C 14,2 C 12,9 km/h (3 Bft) 94,12 %
13.06.2016 19:58 16,1 C 87 % 1001,1 hPa 0,0 l/m 8,5 km/h (2 Bft) S-SW 195 0 min 0,000 mm 0,0 UV-I 33 W/m 13,9 C 15,0 C 16,1 km/h (3 Bft) 96,30 %
13.06.2016 19:59 16,1 C 86 % 1001,2 hPa 0,0 l/m 8,8 km/h (2 Bft) SW 229 0 min 0,000 mm 0,0 UV-I 33 W/m 13,8 C 14,9 C 12,9 km/h (3 Bft) 100,00 %
13.06.2016 20:00 16,1 C 86 % 1001,1 hPa 0,0 l/m 9,5 km/h (2 Bft) SW 234 0 min 0,000 mm 0,0 UV-I 35 W/m 13,8 C 14,6 C 14,5 km/h (3 Bft) 100,00 %
13.06.2016 20:02 16,0 C 86 % 1001,2 hPa 0,0 l/m 10,3 km/h (2 Bft) SW 217 0 min 0,051 mm 0,0 UV-I 33 W/m 13,7 C 14,1 C 14,5 km/h (3 Bft) 100,00 %
13.06.2016 20:03 16,0 C 87 % 1001,2 hPa 0,0 l/m 11,4 km/h (2 Bft) S-SW 202 0 min 0,000 mm 0,0 UV-I 32 W/m 13,8 C 13,7 C 14,5 km/h (3 Bft) 100,00 %
13.06.2016 20:04 16,0 C 87 % 1001,2 hPa 0,0 l/m 14,2 km/h (3 Bft) SW 225 0 min 0,000 mm 0,0 UV-I 32 W/m 13,8 C 12,7 C 16,1 km/h (3 Bft) 100,00 %
13.06.2016 20:05 16,0 C 87 % 1001,2 hPa 0,0 l/m 11,5 km/h (2 Bft) S-SW 208 0 min 0,000 mm 0,0 UV-I 32 W/m 13,8 C 13,6 C 14,5 km/h (3 Bft) 100,00 %
13.06.2016 20:06 16,0 C 87 % 1001,2 hPa 0,0 l/m 8,9 km/h (2 Bft) SW 223 0 min 0,000 mm 0,0 UV-I 31 W/m 13,8 C 14,7 C 12,9 km/h (3 Bft) 100,00 %
13.06.2016 20:07 15,9 C 86 % 1001,2 hPa 0,0 l/m 9,1 km/h (2 Bft) SW 228 0 min 0,000 mm 0,0 UV-I 30 W/m 13,6 C 14,5 C 12,9 km/h (3 Bft) 100,00 %
13.06.2016 20:08 15,9 C 87 % 1001,3 hPa 0,0 l/m 11,6 km/h (2 Bft) S-SW 207 0 min 0,000 mm 0,0 UV-I 29 W/m 13,7 C 13,5 C 17,7 km/h (3 Bft) 97,56 %
13.06.2016 20:09 15,9 C 87 % 1001,3 hPa 0,0 l/m 9,5 km/h (2 Bft) SW 232 0 min 0,000 mm 0,0 UV-I 28 W/m 13,7 C 14,3 C 12,9 km/h (3 Bft) 95,83 %
13.06.2016 20:10 15,9 C 87 % 1001,3 hPa 0,0 l/m 10,9 km/h (2 Bft) SW 215 0 min 0,000 mm 0,0 UV-I 26 W/m 13,7 C 13,7 C 17,7 km/h (3 Bft) 98,39 %
13.06.2016 20:11 15,9 C 87 % 1001,3 hPa 0,0 l/m 8,1 km/h (2 Bft) SW 219 0 min 0,000 mm 0,0 UV-I 26 W/m 13,7 C 15,0 C 11,3 km/h (2 Bft) 100,00 %
13.06.2016 20:12 15,8 C 87 % 1001,3 hPa 0,0 l/m 9,2 km/h (2 Bft) W-SW 240 0 min 0,000 mm 0,0 UV-I 24 W/m 13,6 C 14,4 C 14,5 km/h (3 Bft) 100,00 %
13.06.2016 20:13 15,8 C 88 % 1001,3 hPa 0,0 l/m 9,8 km/h (2 Bft) SW 224 0 min 0,000 mm 0,0 UV-I 22 W/m 13,8 C 14,1 C 12,9 km/h (3 Bft) 100,00 %
13.06.2016 20:14 15,8 C 87 % 1001,3 hPa 0,0 l/m 10,2 km/h (2 Bft) SW 220 0 min 0,000 mm 0,0 UV-I 21 W/m 13,6 C 13,9 C 14,5 km/h (3 Bft) 100,00 %
13.06.2016 20:15 15,7 C 88 % 1001,3 hPa 0,0 l/m 7,3 km/h (2 Bft) SW 223 0 min 0,000 mm 0,0 UV-I 19 W/m 13,7 C 15,2 C 9,7 km/h (2 Bft) 92,59 %
13.06.2016 20:16 15,7 C 88 % 1001,4 hPa 0,0 l/m 7,8 km/h (2 Bft) S-SW 196 0 min 0,000 mm 0,0 UV-I 19 W/m 13,7 C 14,9 C 11,3 km/h (2 Bft) 100,00 %
13.06.2016 20:17 15,7 C 88 % 1001,3 hPa 0,0 l/m 8,4 km/h (2 Bft) S-SW 207 0 min 0,000 mm 0,0 UV-I 19 W/m 13,7 C 14,6 C 12,9 km/h (3 Bft) 100,00 %
13.06.2016 20:18 15,6 C 88 % 1001,3 hPa 0,0 l/m 9,0 km/h (2 Bft) S-SW 200 0 min 0,000 mm 0,0 UV-I 18 W/m 13,6 C 14,2 C 12,9 km/h (3 Bft) 100,00 %
13.06.2016 20:19 15,6 C 88 % 1001,3 hPa 0,0 l/m 9,3 km/h (2 Bft) SW 216 0 min 0,000 mm 0,0 UV-I 18 W/m 13,6 C 14,1 C 12,9 km/h (3 Bft) 100,00 %
13.06.2016 20:20 15,6 C 88 % 1001,3 hPa 0,0 l/m 11,3 km/h (2 Bft) S-SW 208 0 min 0,000 mm 0,0 UV-I 16 W/m 13,6 C 13,2 C 16,1 km/h (3 Bft) 100,00 %
13.06.2016 20:21 15,6 C 88 % 1001,4 hPa 0,0 l/m 10,3 km/h (2 Bft) S-SO 161 0 min 0,000 mm 0,0 UV-I 16 W/m 13,6 C 13,7 C 14,5 km/h (3 Bft) 100,00 %
13.06.2016 20:22 15,6 C 88 % 1001,4 hPa 0,0 l/m 11,8 km/h (2 Bft) SW 229 0 min 0,000 mm 0,0 UV-I 16 W/m 13,6 C 13,0 C 14,5 km/h (3 Bft) 100,00 %
13.06.2016 20:23 15,6 C 87 % 1001,4 hPa 0,0 l/m 7,1 km/h (2 Bft) S 178 0 min 0,000 mm 0,0 UV-I 14 W/m 13,4 C 15,2 C 14,5 km/h (3 Bft) 100,00 %
13.06.2016 20:24 15,6 C 88 % 1001,4 hPa 0,0 l/m 11,6 km/h (2 Bft) S-SW 210 0 min 0,000 mm 0,0 UV-I 14 W/m 13,6 C 13,1 C 16,1 km/h (3 Bft) 100,00 %
13.06.2016 20:25 15,6 C 87 % 1001,5 hPa 0,0 l/m 11,8 km/h (2 Bft) SW 216 0 min 0,000 mm 0,0 UV-I 14 W/m 13,4 C 13,0 C 16,1 km/h (3 Bft) 100,00 %
13.06.2016 20:26 15,6 C 87 % 1001,5 hPa 0,0 l/m 7,4 km/h (2 Bft) W-SW 244 0 min 0,000 mm 0,0 UV-I 12 W/m 13,4 C 15,1 C 11,3 km/h (2 Bft) 95,83 %
13.06.2016 20:27 15,6 C 87 % 1001,4 hPa 0,0 l/m 11,0 km/h (2 Bft) S-SW 194 0 min 0,000 mm 0,0 UV-I 12 W/m 13,4 C 13,4 C 14,5 km/h (3 Bft) 100,00 %
13.06.2016 20:28 15,5 C 87 % 1001,4 hPa 0,0 l/m 9,6 km/h (2 Bft) SW 221 0 min 0,000 mm 0,0 UV-I 12 W/m 13,3 C 13,8 C 14,5 km/h (3 Bft) 100,00 %
13.06.2016 20:29 15,5 C 87 % 1001,5 hPa 0,0 l/m 13,0 km/h (3 Bft) SW 215 0 min 0,000 mm 0,0 UV-I 12 W/m 13,3 C 12,5 C 16,1 km/h (3 Bft) 100,00 %
13.06.2016 20:30 15,5 C 87 % 1001,5 hPa 0,0 l/m 8,8 km/h (2 Bft) S-SO 163 0 min 0,000 mm 0,0 UV-I 11 W/m 13,3 C 14,2 C 14,5 km/h (3 Bft) 100,00 %
13.06.2016 20:31 15,5 C 87 % 1001,5 hPa 0,0 l/m 8,5 km/h (2 Bft) SW 216 0 min 0,000 mm 0,0 UV-I 11 W/m 13,3 C 14,4 C 11,3 km/h (2 Bft) 100,00 %
13.06.2016 20:32 15,5 C 87 % 1001,5 hPa 0,0 l/m 7,2 km/h (2 Bft) S-SW 202 0 min 0,000 mm 0,0 UV-I 10 W/m 13,3 C 15,1 C 9,7 km/h (2 Bft) 100,00 %
13.06.2016 20:33 15,5 C 87 % 1001,5 hPa 0,0 l/m 6,9 km/h (2 Bft) W-SW 250 0 min 0,000 mm 0,0 UV-I 9 W/m 13,3 C 15,2 C 11,3 km/h (2 Bft) 100,00 %
13.06.2016 20:34 15,5 C 87 % 1001,5 hPa 0,0 l/m 7,5 km/h (2 Bft) S-SW 200 0 min 0,000 mm 0,0 UV-I 9 W/m 13,3 C 14,9 C 12,9 km/h (3 Bft) 100,00 %
13.06.2016 20:35 15,4 C 87 % 1001,5 hPa 0,0 l/m 5,8 km/h (2 Bft) SW 234 0 min 0,000 mm 0,0 UV-I 8 W/m 13,2 C 15,4 C 8,0 km/h (2 Bft) 100,00 %
13.06.2016 20:36 15,4 C 88 % 1001,5 hPa 0,0 l/m 8,1 km/h (2 Bft) W-SW 237 0 min 0,000 mm 0,0 UV-I 7 W/m 13,4 C 14,5 C 12,9 km/h (3 Bft) 100,00 %
13.06.2016 20:37 15,4 C 88 % 1001,5 hPa 0,0 l/m 6,4 km/h (2 Bft) W-SW 238 0 min 0,000 mm 0,0 UV-I 7 W/m 13,4 C 15,4 C 12,9 km/h (3 Bft) 100,00 %
13.06.2016 20:38 15,4 C 88 % 1001,6 hPa 0,0 l/m 8,1 km/h (2 Bft) SW 224 0 min 0,000 mm 0,0 UV-I 7 W/m 13,4 C 14,5 C 12,9 km/h (3 Bft) 100,00 %
13.06.2016 20:39 15,4 C 88 % 1001,5 hPa 0,0 l/m 10,0 km/h (2 Bft) SW 221 0 min 0,000 mm 0,0 UV-I 7 W/m 13,4 C 13,6 C 12,9 km/h (3 Bft) 96,15 %
13.06.2016 20:40 15,3 C 88 % 1001,5 hPa 0,0 l/m 5,8 km/h (2 Bft) W-SW 257 0 min 0,000 mm 0,0 UV-I 6 W/m 13,3 C 15,3 C 12,9 km/h (3 Bft) 100,00 %
13.06.2016 20:41 15,3 C 88 % 1001,5 hPa 0,0 l/m 6,8 km/h (2 Bft) S-SW 193 0 min 0,000 mm 0,0 UV-I 5 W/m 13,3 C 15,1 C 11,3 km/h (2 Bft) 100,00 %
13.06.2016 20:42 15,3 C 88 % 1001,5 hPa 0,0 l/m 8,0 km/h (2 Bft) SW 226 0 min 0,000 mm 0,0 UV-I 5 W/m 13,3 C 14,4 C 9,7 km/h (2 Bft) 100,00 %
13.06.2016 20:43 15,3 C 88 % 1001,5 hPa 0,0 l/m 10,5 km/h (2 Bft) W-SW 238 0 min 0,000 mm 0,0 UV-I 5 W/m 13,3 C 13,2 C 16,1 km/h (3 Bft) 100,00 %
13.06.2016 20:44 15,3 C 88 % 1001,5 hPa 0,0 l/m 12,1 km/h (2 Bft) S-SW 206 0 min 0,000 mm 0,0 UV-I 5 W/m 13,3 C 12,6 C 16,1 km/h (3 Bft) 100,00 %
13.06.2016 20:45 15,3 C 88 % 1001,5 hPa 0,0 l/m 13,1 km/h (3 Bft) W-SW 252 0 min 0,000 mm 0,0 UV-I 5 W/m 13,3 C 12,2 C 17,7 km/h (3 Bft) 100,00 %
13.06.2016 20:46 15,3 C 88 % 1001,5 hPa 0,0 l/m 10,1 km/h (2 Bft) SW 236 0 min 0,000 mm 0,0 UV-I 3 W/m 13,3 C 13,4 C 16,1 km/h (3 Bft) 100,00 %
13.06.2016 20:47 15,3 C 88 % 1001,5 hPa 0,0 l/m 10,7 km/h (2 Bft) SW 215 0 min 0,000 mm 0,0 UV-I 0 W/m 13,3 C 13,1 C 12,9 km/h (3 Bft) 100,00 %
13.06.2016 20:48 15,3 C 88 % 1001,5 hPa 0,0 l/m 12,4 km/h (3 Bft) W-SW 248 0 min 0,000 mm 0,0 UV-I 0 W/m 13,3 C 12,5 C 17,7 km/h (3 Bft) 100,00 %
13.06.2016 20:49 15,3 C 88 % 1001,6 hPa 0,0 l/m 13,1 km/h (3 Bft) SW 227 0 min 0,000 mm 0,0 UV-I 0 W/m 13,3 C 12,2 C 17,7 km/h (3 Bft) 100,00 %
13.06.2016 20:50 15,3 C 88 % 1001,6 hPa 0,0 l/m 13,6 km/h (3 Bft) SW 229 0 min 0,000 mm 0,0 UV-I 0 W/m 13,3 C 12,0 C 17,7 km/h (3 Bft) 100,00 %
13.06.2016 20:51 15,3 C 88 % 1001,5 hPa 0,0 l/m 10,9 km/h (2 Bft) S-SW 192 0 min 0,000 mm 0,0 UV-I 0 W/m 13,3 C 13,1 C 16,1 km/h (3 Bft) 100,00 %
13.06.2016 20:52 15,3 C 88 % 1001,5 hPa 0,0 l/m 11,3 km/h (2 Bft) SW 229 0 min 0,000 mm 0,0 UV-I 0 W/m 13,3 C 12,9 C 14,5 km/h (3 Bft) 95,65 %
13.06.2016 20:53 15,3 C 88 % 1001,5 hPa 0,0 l/m 12,3 km/h (3 Bft) SW 236 0 min 0,000 mm 0,0 UV-I 0 W/m 13,3 C 12,5 C 16,1 km/h (3 Bft) 100,00 %
13.06.2016 20:54 15,3 C 89 % 1001,5 hPa 0,0 l/m 9,3 km/h (2 Bft) W-SW 240 0 min 0,000 mm 0,0 UV-I 0 W/m 13,5 C 13,8 C 16,1 km/h (3 Bft) 100,00 %
13.06.2016 20:55 15,3 C 89 % 1001,7 hPa 0,0 l/m 11,9 km/h (2 Bft) S 182 0 min 0,000 mm 0,0 UV-I 0 W/m 13,5 C 12,7 C 16,1 km/h (3 Bft) 100,00 %
13.06.2016 20:56 15,3 C 89 % 1001,6 hPa 0,0 l/m 11,7 km/h (2 Bft) S 182 0 min 0,000 mm 0,0 UV-I 0 W/m 13,5 C 12,7 C 17,7 km/h (3 Bft) 100,00 %
13.06.2016 20:57 15,3 C 89 % 1001,6 hPa 0,0 l/m 16,3 km/h (3 Bft) SW 230 0 min 0,000 mm 0,0 UV-I 0 W/m 13,5 C 11,1 C 25,7 km/h (4 Bft) 100,00 %
13.06.2016 20:58 15,3 C 89 % 1001,7 hPa 0,0 l/m 14,4 km/h (3 Bft) SW 223 0 min 0,000 mm 0,0 UV-I 0 W/m 13,5 C 11,8 C 19,3 km/h (3 Bft) 100,00 %
13.06.2016 20:59 15,3 C 90 % 1001,6 hPa 0,0 l/m 11,9 km/h (2 Bft) W-SW 242 0 min 0,000 mm 0,0 UV-I 0 W/m 13,7 C 12,7 C 17,7 km/h (3 Bft) 100,00 %
13.06.2016 21:00 15,2 C 90 % 1001,6 hPa 0,2 l/m 10,3 km/h (2 Bft) W-SW 248 0 min 0,000 mm 0,0 UV-I 0 W/m 13,6 C 13,2 C 17,7 km/h (3 Bft) 100,00 %
13.06.2016 21:02 15,2 C 90 % 1001,5 hPa 0,0 l/m 11,5 km/h (2 Bft) S-SW 197 0 min 0,026 mm 0,0 UV-I 0 W/m 13,6 C 12,7 C 22,5 km/h (4 Bft) 97,62 %
13.06.2016 21:03 15,2 C 90 % 1001,5 hPa 0,0 l/m 12,0 km/h (2 Bft) SW 223 0 min 0,000 mm 0,0 UV-I 0 W/m 13,6 C 12,5 C 19,3 km/h (3 Bft) 91,30 %
13.06.2016 21:04 15,2 C 91 % 1001,5 hPa 0,0 l/m 11,2 km/h (2 Bft) W-SW 248 0 min 0,000 mm 0,0 UV-I 0 W/m 13,7 C 12,8 C 19,3 km/h (3 Bft) 100,00 %
13.06.2016 21:05 15,2 C 91 % 1001,5 hPa 0,0 l/m 11,4 km/h (2 Bft) S-SW 204 0 min 0,000 mm 0,0 UV-I 0 W/m 13,7 C 12,7 C 16,1 km/h (3 Bft) 97,37 %
13.06.2016 21:06 15,2 C 91 % 1001,5 hPa 0,0 l/m 14,6 km/h (3 Bft) W-SW 246 0 min 0,000 mm 0,0 UV-I 0 W/m 13,7 C 11,6 C 22,5 km/h (4 Bft) 91,67 %
13.06.2016 21:07 15,1 C 91 % 1001,5 hPa 0,0 l/m 13,4 km/h (3 Bft) SW 219 0 min 0,000 mm 0,0 UV-I 0 W/m 13,6 C 11,9 C 19,3 km/h (3 Bft) 100,00 %
13.06.2016 21:08 15,1 C 91 % 1001,5 hPa 0,0 l/m 13,0 km/h (3 Bft) S-SW 211 0 min 0,000 mm 0,0 UV-I 0 W/m 13,6 C 12,0 C 19,3 km/h (3 Bft) 96,30 %
13.06.2016 21:09 15,1 C 91 % 1001,6 hPa 0,0 l/m 16,1 km/h (3 Bft) SW 227 0 min 0,000 mm 0,0 UV-I 0 W/m 13,6 C 11,0 C 22,5 km/h (4 Bft) 96,88 %
13.06.2016 21:10 15,1 C 92 % 1001,5 hPa 0,0 l/m 10,8 km/h (2 Bft) SW 219 0 min 0,000 mm 0,0 UV-I 0 W/m 13,8 C 12,9 C 16,1 km/h (3 Bft) 91,67 %
13.06.2016 21:11 15,1 C 92 % 1001,6 hPa 0,0 l/m 13,1 km/h (3 Bft) W-SW 249 0 min 0,000 mm 0,0 UV-I 0 W/m 13,8 C 12,0 C 17,7 km/h (3 Bft) 100,00 %
13.06.2016 21:12 15,1 C 92 % 1001,6 hPa 0,0 l/m 10,1 km/h (2 Bft) W-SW 241 0 min 0,000 mm 0,0 UV-I 0 W/m 13,8 C 13,2 C 19,3 km/h (3 Bft) 96,30 %
13.06.2016 21:13 15,0 C 92 % 1001,6 hPa 0,0 l/m 15,5 km/h (3 Bft) W-SW 242 0 min 0,000 mm 0,0 UV-I 0 W/m 13,7 C 11,0 C 20,9 km/h (4 Bft) 96,15 %
13.06.2016 21:14 15,0 C 92 % 1001,6 hPa 0,0 l/m 8,8 km/h (2 Bft) S-SW 213 0 min 0,000 mm 0,0 UV-I 0 W/m 13,7 C 13,7 C 16,1 km/h (3 Bft) 100,00 %
13.06.2016 21:15 15,0 C 93 % 1001,7 hPa 0,0 l/m 12,9 km/h (3 Bft) SW 218 0 min 0,000 mm 0,0 UV-I 0 W/m 13,9 C 11,9 C 16,1 km/h (3 Bft) 96,15 %
13.06.2016 21:16 15,0 C 92 % 1001,7 hPa 0,0 l/m 9,3 km/h (2 Bft) SW 222 0 min 0,000 mm 0,0 UV-I 0 W/m 13,7 C 13,4 C 17,7 km/h (3 Bft) 98,43 %
13.06.2016 21:17 14,9 C 93 % 1001,7 hPa 0,0 l/m 12,7 km/h (3 Bft) SW 223 0 min 0,000 mm 0,0 UV-I 0 W/m 13,8 C 11,9 C 19,3 km/h (3 Bft) 97,87 %
13.06.2016 21:18 14,9 C 93 % 1001,8 hPa 0,0 l/m 9,7 km/h (2 Bft) SW 225 0 min 0,000 mm 0,0 UV-I 0 W/m 13,8 C 13,1 C 12,9 km/h (3 Bft) 100,00 %
13.06.2016 21:19 14,9 C 93 % 1001,8 hPa 0,0 l/m 11,7 km/h (2 Bft) SW 225 0 min 0,000 mm 0,0 UV-I 0 W/m 13,8 C 12,3 C 14,5 km/h (3 Bft) 95,65 %
13.06.2016 21:20 14,9 C 93 % 1001,8 hPa 0,0 l/m 10,6 km/h (2 Bft) SW 233 0 min 0,000 mm 0,0 UV-I 0 W/m 13,8 C 12,7 C 16,1 km/h (3 Bft) 96,30 %
13.06.2016 21:21 14,9 C 93 % 1001,9 hPa 0,0 l/m 10,9 km/h (2 Bft) SW 225 0 min 0,000 mm 0,0 UV-I 0 W/m 13,8 C 12,6 C 14,5 km/h (3 Bft) 91,67 %
13.06.2016 21:22 14,9 C 93 % 1001,9 hPa 0,0 l/m 11,5 km/h (2 Bft) W 265 0 min 0,000 mm 0,0 UV-I 0 W/m 13,8 C 12,4 C 14,5 km/h (3 Bft) 96,88 %
13.06.2016 21:23 14,9 C 93 % 1001,9 hPa 0,0 l/m 14,1 km/h (3 Bft) W-SW 248 0 min 0,000 mm 0,0 UV-I 0 W/m 13,8 C 11,4 C 17,7 km/h (3 Bft) 100,00 %
13.06.2016 21:24 14,9 C 93 % 1002,0 hPa 0,0 l/m 10,0 km/h (2 Bft) W-SW 244 0 min 0,000 mm 0,0 UV-I 0 W/m 13,8 C 13,0 C 17,7 km/h (3 Bft) 93,10 %
13.06.2016 21:25 14,9 C 93 % 1002,1 hPa 0,0 l/m 7,9 km/h (2 Bft) W-SW 253 0 min 0,000 mm 0,0 UV-I 0 W/m 13,8 C 14,1 C 12,9 km/h (3 Bft) 100,00 %
13.06.2016 21:26 14,9 C 93 % 1002,1 hPa 0,0 l/m 8,5 km/h (2 Bft) W-SW 257 0 min 0,000 mm 0,0 UV-I 0 W/m 13,8 C 13,7 C 12,9 km/h (3 Bft) 95,65 %
13.06.2016 21:27 14,9 C 93 % 1002,1 hPa 0,0 l/m 5,1 km/h (1 Bft) W 268 0 min 0,000 mm 0,0 UV-I 0 W/m 13,8 C 14,9 C 9,7 km/h (2 Bft) 96,30 %
13.06.2016 21:28 14,9 C 93 % 1002,2 hPa 0,0 l/m 8,1 km/h (2 Bft) W 260 0 min 0,000 mm 0,0 UV-I 0 W/m 13,8 C 13,9 C 11,3 km/h (2 Bft) 95,65 %
13.06.2016 21:29 14,8 C 93 % 1002,2 hPa 0,0 l/m 6,2 km/h (2 Bft) W 270 0 min 0,000 mm 0,0 UV-I 0 W/m 13,7 C 14,8 C 9,7 km/h (2 Bft) 100,00 %
13.06.2016 21:30 14,8 C 94 % 1002,2 hPa 0,2 l/m 6,6 km/h (2 Bft) W 261 0 min 0,000 mm 0,0 UV-I 0 W/m 13,8 C 14,7 C 11,3 km/h (2 Bft) 96,15 %
13.06.2016 21:31 14,8 C 94 % 1002,2 hPa 0,0 l/m 8,0 km/h (2 Bft) W-SW 250 0 min 0,000 mm 0,0 UV-I 0 W/m 13,8 C 13,9 C 12,9 km/h (3 Bft) 92,59 %
13.06.2016 21:32 14,8 C 94 % 1002,3 hPa 0,0 l/m 4,7 km/h (1 Bft) W 272 0 min 0,000 mm 0,0 UV-I 0 W/m 13,8 C 14,8 C 6,4 km/h (2 Bft) 100,00 %
13.06.2016 21:33 14,8 C 94 % 1002,3 hPa 0,0 l/m 4,7 km/h (1 Bft) W-SW 252 0 min 0,000 mm 0,0 UV-I 0 W/m 13,8 C 14,8 C 6,4 km/h (2 Bft) 100,00 %
13.06.2016 21:34 14,8 C 94 % 1002,3 hPa 0,0 l/m 5,1 km/h (1 Bft) W 264 0 min 0,000 mm 0,0 UV-I 0 W/m 13,8 C 14,8 C 11,3 km/h (2 Bft) 100,00 %
13.06.2016 21:35 14,8 C 94 % 1002,3 hPa 0,0 l/m 5,4 km/h (1 Bft) W 274 0 min 0,000 mm 0,0 UV-I 0 W/m 13,8 C 14,8 C 9,7 km/h (2 Bft) 95,83 %
13.06.2016 21:36 14,8 C 94 % 1002,3 hPa 0,0 l/m 5,0 km/h (1 Bft) W 259 0 min 0,000 mm 0,0 UV-I 0 W/m 13,8 C 14,8 C 6,4 km/h (2 Bft) 100,00 %
13.06.2016 21:37 14,7 C 94 % 1002,3 hPa 0,0 l/m 5,2 km/h (1 Bft) W-SW 247 0 min 0,000 mm 0,0 UV-I 0 W/m 13,7 C 14,7 C 6,4 km/h (2 Bft) 100,00 %
13.06.2016 21:38 14,7 C 94 % 1002,3 hPa 0,0 l/m 4,6 km/h (1 Bft) W-SW 248 0 min 0,000 mm 0,0 UV-I 0 W/m 13,7 C 14,7 C 6,4 km/h (2 Bft) 100,00 %
13.06.2016 21:39 14,7 C 94 % 1002,3 hPa 0,2 l/m 6,1 km/h (2 Bft) W-SW 254 0 min 0,000 mm 0,0 UV-I 0 W/m 13,7 C 14,7 C 6,4 km/h (2 Bft) 100,00 %
13.06.2016 21:40 14,7 C 94 % 1002,3 hPa 0,0 l/m 4,1 km/h (1 Bft) W 271 0 min 0,000 mm 0,0 UV-I 0 W/m 13,7 C 14,7 C 6,4 km/h (2 Bft) 100,00 %
13.06.2016 21:41 14,7 C 94 % 1002,3 hPa 0,0 l/m 6,1 km/h (2 Bft) SW 234 0 min 0,000 mm 0,0 UV-I 0 W/m 13,7 C 14,7 C 9,7 km/h (2 Bft) 100,00 %
13.06.2016 21:42 14,7 C 94 % 1002,3 hPa 0,0 l/m 6,0 km/h (2 Bft) W-SW 246 0 min 0,000 mm 0,0 UV-I 0 W/m 13,7 C 14,7 C 8,0 km/h (2 Bft) 100,00 %
13.06.2016 21:43 14,7 C 94 % 1002,3 hPa 0,0 l/m 6,4 km/h (2 Bft) SW 225 0 min 0,000 mm 0,0 UV-I 0 W/m 13,7 C 14,7 C 8,0 km/h (2 Bft) 98,41 %
13.06.2016 21:44 14,7 C 95 % 1002,3 hPa 0,0 l/m 8,6 km/h (2 Bft) W-SW 237 0 min 0,000 mm 0,0 UV-I 0 W/m 13,9 C 13,5 C 11,3 km/h (2 Bft) 97,62 %
13.06.2016 21:45 14,7 C 95 % 1002,3 hPa 0,0 l/m 6,5 km/h (2 Bft) S-SW 207 0 min 0,000 mm 0,0 UV-I 0 W/m 13,9 C 14,7 C 8,0 km/h (2 Bft) 100,00 %
13.06.2016 21:46 14,7 C 95 % 1002,2 hPa 0,0 l/m 7,8 km/h (2 Bft) SW 233 0 min 0,000 mm 0,0 UV-I 0 W/m 13,9 C 13,9 C 11,3 km/h (2 Bft) 100,00 %
13.06.2016 21:47 14,7 C 95 % 1002,2 hPa 0,0 l/m 8,2 km/h (2 Bft) S-SW 205 0 min 0,000 mm 0,0 UV-I 0 W/m 13,9 C 13,7 C 11,3 km/h (2 Bft) 100,00 %
13.06.2016 21:48 14,7 C 95 % 1002,2 hPa 0,0 l/m 7,6 km/h (2 Bft) W-SW 241 0 min 0,000 mm 0,0 UV-I 0 W/m 13,9 C 14,0 C 11,3 km/h (2 Bft) 100,00 %
13.06.2016 21:49 14,6 C 95 % 1002,2 hPa 0,0 l/m 8,4 km/h (2 Bft) S 188 0 min 0,000 mm 0,0 UV-I 0 W/m 13,8 C 13,5 C 12,9 km/h (3 Bft) 100,00 %
13.06.2016 21:50 14,7 C 95 % 1002,2 hPa 0,0 l/m 7,9 km/h (2 Bft) SW 232 0 min 0,000 mm 0,0 UV-I 0 W/m 13,9 C 13,8 C 11,3 km/h (2 Bft) 100,00 %
13.06.2016 21:51 14,6 C 95 % 1002,2 hPa 0,2 l/m 7,6 km/h (2 Bft) SW 233 0 min 0,000 mm 0,0 UV-I 0 W/m 13,8 C 13,9 C 9,7 km/h (2 Bft) 100,00 %
13.06.2016 21:52 14,6 C 95 % 1002,2 hPa 0,0 l/m 9,6 km/h (2 Bft) S-SW 207 0 min 0,000 mm 0,0 UV-I 0 W/m 13,8 C 12,9 C 12,9 km/h (3 Bft) 100,00 %
13.06.2016 21:53 14,6 C 95 % 1002,1 hPa 0,0 l/m 9,1 km/h (2 Bft) S-SW 209 0 min 0,000 mm 0,0 UV-I 0 W/m 13,8 C 13,1 C 12,9 km/h (3 Bft) 100,00 %
13.06.2016 21:54 14,6 C 95 % 1002,2 hPa 0,0 l/m 9,3 km/h (2 Bft) SW 215 0 min 0,000 mm 0,0 UV-I 0 W/m 13,8 C 13,0 C 14,5 km/h (3 Bft) 100,00 %
13.06.2016 21:55 14,7 C 95 % 1002,1 hPa 0,0 l/m 10,2 km/h (2 Bft) S-SW 192 0 min 0,000 mm 0,0 UV-I 0 W/m 13,9 C 12,7 C 12,9 km/h (3 Bft) 96,55 %
13.06.2016 21:56 14,6 C 94 % 1002,1 hPa 0,0 l/m 6,6 km/h (2 Bft) S-SW 201 0 min 0,000 mm 0,0 UV-I 0 W/m 13,6 C 14,5 C 9,7 km/h (2 Bft) 100,00 %
13.06.2016 21:57 14,7 C 94 % 1002,1 hPa 0,0 l/m 8,0 km/h (2 Bft) SW 218 0 min 0,000 mm 0,0 UV-I 0 W/m 13,7 C 13,8 C 11,3 km/h (2 Bft) 100,00 %
13.06.2016 21:58 14,6 C 94 % 1002,1 hPa 0,0 l/m 8,3 km/h (2 Bft) S-SW 194 0 min 0,000 mm 0,0 UV-I 0 W/m 13,6 C 13,5 C 11,3 km/h (2 Bft) 100,00 %
13.06.2016 21:59 14,6 C 94 % 1002,1 hPa 0,0 l/m 10,2 km/h (2 Bft) S-SO 161 0 min 0,000 mm 0,0 UV-I 0 W/m 13,6 C 12,6 C 12,9 km/h (3 Bft) 100,00 %
13.06.2016 22:00 14,7 C 94 % 1002,0 hPa 0,0 l/m 8,4 km/h (2 Bft) S-SW 194 0 min 0,000 mm 0,0 UV-I 0 W/m 13,7 C 13,6 C 11,3 km/h (2 Bft) 100,00 %
13.06.2016 22:02 14,7 C 94 % 1002,0 hPa 0,0 l/m 7,9 km/h (2 Bft) S-SW 207 0 min 0,000 mm 0,0 UV-I 0 W/m 13,7 C 13,8 C 11,3 km/h (2 Bft) 100,00 %
13.06.2016 22:03 14,7 C 94 % 1002,0 hPa 0,0 l/m 5,8 km/h (2 Bft) S-SW 199 0 min 0,000 mm 0,0 UV-I 0 W/m 13,7 C 14,7 C 8,0 km/h (2 Bft) 100,00 %
13.06.2016 22:04 14,6 C 94 % 1002,0 hPa 0,0 l/m 7,0 km/h (2 Bft) SW 221 0 min 0,000 mm 0,0 UV-I 0 W/m 13,6 C 14,3 C 11,3 km/h (2 Bft) 100,00 %
13.06.2016 22:05 14,6 C 94 % 1002,0 hPa 0,0 l/m 8,9 km/h (2 Bft) SW 215 0 min 0,000 mm 0,0 UV-I 0 W/m 13,6 C 13,2 C 11,3 km/h (2 Bft) 100,00 %
13.06.2016 22:06 14,6 C 94 % 1002,0 hPa 0,0 l/m 6,8 km/h (2 Bft) W-SW 242 0 min 0,000 mm 0,0 UV-I 0 W/m 13,6 C 14,4 C 11,3 km/h (2 Bft) 100,00 %
13.06.2016 22:07 14,6 C 94 % 1002,0 hPa 0,0 l/m 8,3 km/h (2 Bft) S-SW 209 0 min 0,000 mm 0,0 UV-I 0 W/m 13,6 C 13,5 C 11,3 km/h (2 Bft) 100,00 %
13.06.2016 22:08 14,6 C 94 % 1002,0 hPa 0,0 l/m 9,7 km/h (2 Bft) SW 217 0 min 0,000 mm 0,0 UV-I 0 W/m 13,6 C 12,8 C 12,9 km/h (3 Bft) 100,00 %
13.06.2016 22:09 14,6 C 94 % 1002,0 hPa 0,0 l/m 7,4 km/h (2 Bft) S-SW 211 0 min 0,000 mm 0,0 UV-I 0 W/m 13,6 C 14,0 C 11,3 km/h (2 Bft) 93,94 %
13.06.2016 22:10 14,6 C 94 % 1002,1 hPa 0,0 l/m 8,8 km/h (2 Bft) W-SW 240 0 min 0,000 mm 0,0 UV-I 0 W/m 13,6 C 13,3 C 11,3 km/h (2 Bft) 100,00 %
13.06.2016 22:11 14,6 C 94 % 1002,0 hPa 0,0 l/m 8,9 km/h (2 Bft) W-SW 242 0 min 0,000 mm 0,0 UV-I 0 W/m 13,6 C 13,2 C 12,9 km/h (3 Bft) 100,00 %
13.06.2016 22:12 14,6 C 94 % 1002,0 hPa 0,0 l/m 7,0 km/h (2 Bft) W-SW 250 0 min 0,000 mm 0,0 UV-I 0 W/m 13,6 C 14,3 C 12,9 km/h (3 Bft) 100,00 %
13.06.2016 22:13 14,6 C 94 % 1002,1 hPa 0,0 l/m 7,9 km/h (2 Bft) S-SW 205 0 min 0,000 mm 0,0 UV-I 0 W/m 13,6 C 13,7 C 12,9 km/h (3 Bft) 100,00 %
13.06.2016 22:14 14,6 C 94 % 1002,0 hPa 0,2 l/m 7,3 km/h (2 Bft) S-SW 198 0 min 0,000 mm 0,0 UV-I 0 W/m 13,6 C 14,1 C 11,3 km/h (2 Bft) 100,00 %
13.06.2016 22:15 14,6 C 94 % 1002,0 hPa 0,0 l/m 12,0 km/h (2 Bft) SW 231 0 min 0,000 mm 0,0 UV-I 0 W/m 13,6 C 11,8 C 14,5 km/h (3 Bft) 100,00 %
13.06.2016 22:16 14,6 C 93 % 1002,0 hPa 0,0 l/m 9,4 km/h (2 Bft) S-SW 209 0 min 0,000 mm 0,0 UV-I 0 W/m 13,5 C 13,0 C 11,3 km/h (2 Bft) 100,00 %
13.06.2016 22:17 14,6 C 93 % 1002,0 hPa 0,0 l/m 10,9 km/h (2 Bft) SW 231 0 min 0,000 mm 0,0 UV-I 0 W/m 13,5 C 12,3 C 14,5 km/h (3 Bft) 100,00 %
13.06.2016 22:18 14,6 C 93 % 1002,0 hPa 0,0 l/m 8,2 km/h (2 Bft) W-SW 247 0 min 0,000 mm 0,0 UV-I 0 W/m 13,5 C 13,6 C 11,3 km/h (2 Bft) 100,00 %
13.06.2016 22:19 14,6 C 93 % 1001,9 hPa 0,0 l/m 8,5 km/h (2 Bft) S-SW 206 0 min 0,000 mm 0,0 UV-I 0 W/m 13,5 C 13,4 C 11,3 km/h (2 Bft) 100,00 %
13.06.2016 22:20 14,5 C 93 % 1001,9 hPa 0,0 l/m 7,6 km/h (2 Bft) S-SO 161 0 min 0,000 mm 0,0 UV-I 0 W/m 13,4 C 13,8 C 11,3 km/h (2 Bft) 100,00 %
13.06.2016 22:21 14,5 C 93 % 1001,9 hPa 0,0 l/m 9,7 km/h (2 Bft) S 184 0 min 0,000 mm 0,0 UV-I 0 W/m 13,4 C 12,7 C 14,5 km/h (3 Bft) 100,00 %
13.06.2016 22:22 14,5 C 93 % 1001,9 hPa 0,0 l/m 10,5 km/h (2 Bft) S-SW 195 0 min 0,000 mm 0,0 UV-I 0 W/m 13,4 C 12,3 C 14,5 km/h (3 Bft) 100,00 %
13.06.2016 22:23 14,5 C 93 % 1001,9 hPa 0,0 l/m 10,5 km/h (2 Bft) SW 215 0 min 0,000 mm 0,0 UV-I 0 W/m 13,4 C 12,3 C 14,5 km/h (3 Bft) 100,00 %
13.06.2016 22:24 14,5 C 93 % 1001,9 hPa 0,0 l/m 9,3 km/h (2 Bft) S-SW 192 0 min 0,000 mm 0,0 UV-I 0 W/m 13,4 C 12,9 C 11,3 km/h (2 Bft) 100,00 %
13.06.2016 22:25 14,4 C 93 % 1001,9 hPa 0,0 l/m 6,4 km/h (2 Bft) S-SW 192 0 min 0,000 mm 0,0 UV-I 0 W/m 13,3 C 14,4 C 8,0 km/h (2 Bft) 100,00 %
13.06.2016 22:26 14,4 C 93 % 1001,9 hPa 0,0 l/m 9,1 km/h (2 Bft) SW 217 0 min 0,000 mm 0,0 UV-I 0 W/m 13,3 C 12,9 C 12,9 km/h (3 Bft) 100,00 %
13.06.2016 22:27 14,4 C 93 % 1001,8 hPa 0,0 l/m 9,4 km/h (2 Bft) S-SW 206 0 min 0,000 mm 0,0 UV-I 0 W/m 13,3 C 12,7 C 11,3 km/h (2 Bft) 100,00 %
13.06.2016 22:28 14,4 C 93 % 1001,9 hPa 0,0 l/m 8,0 km/h (2 Bft) S 184 0 min 0,000 mm 0,0 UV-I 0 W/m 13,3 C 13,5 C 12,9 km/h (3 Bft) 100,00 %
13.06.2016 22:29 14,4 C 93 % 1001,9 hPa 0,0 l/m 8,4 km/h (2 Bft) S-SW 213 0 min 0,000 mm 0,0 UV-I 0 W/m 13,3 C 13,3 C 11,3 km/h (2 Bft) 92,31 %
13.06.2016 22:30 14,4 C 93 % 1001,8 hPa 0,0 l/m 6,7 km/h (2 Bft) SW 216 0 min 0,000 mm 0,0 UV-I 0 W/m 13,3 C 14,2 C 11,3 km/h (2 Bft) 100,00 %
13.06.2016 22:31 14,4 C 93 % 1001,9 hPa 0,0 l/m 8,8 km/h (2 Bft) S-SW 192 0 min 0,000 mm 0,0 UV-I 0 W/m 13,3 C 13,0 C 12,9 km/h (3 Bft) 100,00 %
13.06.2016 22:32 14,4 C 93 % 1001,9 hPa 0,0 l/m 7,9 km/h (2 Bft) S 184 0 min 0,000 mm 0,0 UV-I 0 W/m 13,3 C 13,5 C 11,3 km/h (2 Bft) 100,00 %
13.06.2016 22:33 14,4 C 93 % 1001,9 hPa 0,0 l/m 7,3 km/h (2 Bft) S-SW 195 0 min 0,000 mm 0,0 UV-I 0 W/m 13,3 C 13,9 C 9,7 km/h (2 Bft) 96,15 %
13.06.2016 22:34 14,4 C 93 % 1001,8 hPa 0,0 l/m 7,4 km/h (2 Bft) S-SW 199 0 min 0,000 mm 0,0 UV-I 0 W/m 13,3 C 13,8 C 9,7 km/h (2 Bft) 100,00 %
13.06.2016 22:35 14,3 C 93 % 1001,9 hPa 0,0 l/m 7,7 km/h (2 Bft) S-SW 192 0 min 0,000 mm 0,0 UV-I 0 W/m 13,2 C 13,5 C 9,7 km/h (2 Bft) 100,00 %
13.06.2016 22:36 14,3 C 93 % 1001,9 hPa 0,0 l/m 7,6 km/h (2 Bft) SW 215 0 min 0,000 mm 0,0 UV-I 0 W/m 13,2 C 13,6 C 11,3 km/h (2 Bft) 100,00 %
13.06.2016 22:37 14,3 C 93 % 1001,9 hPa 0,0 l/m 7,1 km/h (2 Bft) S-SW 195 0 min 0,000 mm 0,0 UV-I 0 W/m 13,2 C 13,9 C 9,7 km/h (2 Bft) 100,00 %
13.06.2016 22:38 14,3 C 93 % 1001,8 hPa 0,0 l/m 7,3 km/h (2 Bft) S 183 0 min 0,000 mm 0,0 UV-I 0 W/m 13,2 C 13,8 C 11,3 km/h (2 Bft) 100,00 %
13.06.2016 22:39 14,3 C 93 % 1001,8 hPa 0,0 l/m 6,1 km/h (2 Bft) SW 227 0 min 0,000 mm 0,0 UV-I 0 W/m 13,2 C 14,3 C 8,0 km/h (2 Bft) 100,00 %
13.06.2016 22:40 14,3 C 93 % 1001,8 hPa 0,0 l/m 7,0 km/h (2 Bft) SW 215 0 min 0,000 mm 0,0 UV-I 0 W/m 13,2 C 13,9 C 9,7 km/h (2 Bft) 96,30 %
13.06.2016 22:41 14,3 C 93 % 1001,8 hPa 0,0 l/m 5,6 km/h (1 Bft) SW 214 0 min 0,000 mm 0,0 UV-I 0 W/m 13,2 C 14,3 C 9,7 km/h (2 Bft) 100,00 %
13.06.2016 22:42 14,3 C 93 % 1001,8 hPa 0,0 l/m 5,0 km/h (1 Bft) S-SW 194 0 min 0,000 mm 0,0 UV-I 0 W/m 13,2 C 14,3 C 6,4 km/h (2 Bft) 100,00 %
13.06.2016 22:43 14,3 C 93 % 1001,8 hPa 0,0 l/m 6,4 km/h (2 Bft) S-SW 204 0 min 0,000 mm 0,0 UV-I 0 W/m 13,2 C 14,3 C 11,3 km/h (2 Bft) 100,00 %
13.06.2016 22:44 14,3 C 93 % 1001,8 hPa 0,0 l/m 4,8 km/h (1 Bft) SW 221 0 min 0,000 mm 0,0 UV-I 0 W/m 13,2 C 14,3 C 6,4 km/h (2 Bft) 100,00 %
13.06.2016 22:45 14,3 C 93 % 1001,8 hPa 0,0 l/m 4,4 km/h (1 Bft) SW 229 0 min 0,000 mm 0,0 UV-I 0 W/m 13,2 C 14,3 C 6,4 km/h (2 Bft) 100,00 %
13.06.2016 22:46 14,3 C 93 % 1001,8 hPa 0,0 l/m 4,6 km/h (1 Bft) S-SW 204 0 min 0,000 mm 0,0 UV-I 0 W/m 13,2 C 14,3 C 6,4 km/h (2 Bft) 100,00 %
13.06.2016 22:47 14,3 C 93 % 1001,8 hPa 0,0 l/m 7,7 km/h (2 Bft) SW 217 0 min 0,000 mm 0,0 UV-I 0 W/m 13,2 C 13,5 C 12,9 km/h (3 Bft) 100,00 %
13.06.2016 22:48 14,3 C 93 % 1001,9 hPa 0,0 l/m 7,5 km/h (2 Bft) S-SW 207 0 min 0,000 mm 0,0 UV-I 0 W/m 13,2 C 13,7 C 11,3 km/h (2 Bft) 96,15 %
13.06.2016 22:49 14,3 C 93 % 1001,9 hPa 0,0 l/m 6,6 km/h (2 Bft) S-SW 196 0 min 0,000 mm 0,0 UV-I 0 W/m 13,2 C 14,2 C 9,7 km/h (2 Bft) 100,00 %
13.06.2016 22:50 14,3 C 93 % 1001,9 hPa 0,0 l/m 9,1 km/h (2 Bft) SO 141 0 min 0,000 mm 0,0 UV-I 0 W/m 13,2 C 12,8 C 12,9 km/h (3 Bft) 100,00 %
13.06.2016 22:51 14,3 C 93 % 1001,9 hPa 0,0 l/m 6,7 km/h (2 Bft) S-SW 201 0 min 0,000 mm 0,0 UV-I 0 W/m 13,2 C 14,1 C 9,7 km/h (2 Bft) 100,00 %
13.06.2016 22:52 14,3 C 93 % 1001,9 hPa 0,0 l/m 8,4 km/h (2 Bft) S-SW 204 0 min 0,000 mm 0,0 UV-I 0 W/m 13,2 C 13,1 C 9,7 km/h (2 Bft) 92,86 %
13.06.2016 22:53 14,3 C 93 % 1001,9 hPa 0,0 l/m 8,6 km/h (2 Bft) S-SW 193 0 min 0,000 mm 0,0 UV-I 0 W/m 13,2 C 13,0 C 12,9 km/h (3 Bft) 100,00 %
13.06.2016 22:54 14,3 C 93 % 1001,8 hPa 0,0 l/m 6,3 km/h (2 Bft) S-SW 198 0 min 0,000 mm 0,0 UV-I 0 W/m 13,2 C 14,3 C 8,0 km/h (2 Bft) 100,00 %
13.06.2016 22:55 14,3 C 93 % 1001,8 hPa 0,0 l/m 5,4 km/h (1 Bft) S-SW 209 0 min 0,000 mm 0,0 UV-I 0 W/m 13,2 C 14,3 C 8,0 km/h (2 Bft) 100,00 %
13.06.2016 22:56 14,3 C 93 % 1001,9 hPa 0,0 l/m 6,2 km/h (2 Bft) SW 223 0 min 0,000 mm 0,0 UV-I 0 W/m 13,2 C 14,3 C 8,0 km/h (2 Bft) 100,00 %
13.06.2016 22:57 14,3 C 93 % 1001,8 hPa 0,0 l/m 4,0 km/h (1 Bft) S 181 0 min 0,000 mm 0,0 UV-I 0 W/m 13,2 C 14,3 C 8,0 km/h (2 Bft) 96,30 %
13.06.2016 22:58 14,3 C 93 % 1001,8 hPa 0,0 l/m 4,9 km/h (1 Bft) S-SW 198 0 min 0,000 mm 0,0 UV-I 0 W/m 13,2 C 14,3 C 8,0 km/h (2 Bft) 96,15 %
13.06.2016 22:59 14,3 C 93 % 1001,9 hPa 0,0 l/m 7,1 km/h (2 Bft) S 173 0 min 0,000 mm 0,0 UV-I 0 W/m 13,2 C 13,9 C 11,3 km/h (2 Bft) 100,00 %
13.06.2016 23:00 14,2 C 93 % 1001,9 hPa 0,0 l/m 7,1 km/h (2 Bft) S-SW 207 0 min 0,000 mm 0,0 UV-I 0 W/m 13,1 C 13,8 C 9,7 km/h (2 Bft) 100,00 %
13.06.2016 23:01 14,2 C 93 % 1001,9 hPa 0,0 l/m 5,8 km/h (2 Bft) S-SW 208 0 min 0,000 mm 0,0 UV-I 0 W/m 13,1 C 14,2 C 9,7 km/h (2 Bft) 96,55 %
13.06.2016 23:02 14,2 C 93 % 1001,9 hPa 0,0 l/m 7,4 km/h (2 Bft) S-SW 207 0 min 0,000 mm 0,0 UV-I 0 W/m 13,1 C 13,6 C 9,7 km/h (2 Bft) 100,00 %
13.06.2016 23:03 14,2 C 93 % 1001,9 hPa 0,0 l/m 6,3 km/h (2 Bft) S-SW 209 0 min 0,000 mm 0,0 UV-I 0 W/m 13,1 C 14,2 C 11,3 km/h (2 Bft) 96,15 %
13.06.2016 23:04 14,2 C 93 % 1001,9 hPa 0,0 l/m 9,7 km/h (2 Bft) SW 227 0 min 0,000 mm 0,0 UV-I 0 W/m 13,1 C 12,4 C 14,5 km/h (3 Bft) 100,00 %
13.06.2016 23:05 14,2 C 93 % 1001,9 hPa 0,0 l/m 7,5 km/h (2 Bft) S-SW 202 0 min 0,000 mm 0,0 UV-I 0 W/m 13,1 C 13,5 C 12,9 km/h (3 Bft) 91,30 %
13.06.2016 23:06 14,2 C 93 % 1001,9 hPa 0,0 l/m 7,8 km/h (2 Bft) S-SW 211 0 min 0,000 mm 0,0 UV-I 0 W/m 13,1 C 13,4 C 9,7 km/h (2 Bft) 100,00 %
13.06.2016 23:07 14,2 C 93 % 1001,9 hPa 0,0 l/m 9,1 km/h (2 Bft) SW 219 0 min 0,000 mm 0,0 UV-I 0 W/m 13,1 C 12,7 C 12,9 km/h (3 Bft) 96,15 %
13.06.2016 23:08 14,2 C 93 % 1001,9 hPa 0,0 l/m 7,4 km/h (2 Bft) SW 221 0 min 0,000 mm 0,0 UV-I 0 W/m 13,1 C 13,6 C 11,3 km/h (2 Bft) 95,83 %
13.06.2016 23:09 14,2 C 93 % 1001,9 hPa 0,0 l/m 8,4 km/h (2 Bft) S-SW 202 0 min 0,000 mm 0,0 UV-I 0 W/m 13,1 C 13,0 C 11,3 km/h (2 Bft) 100,00 %
13.06.2016 23:10 14,2 C 93 % 1001,9 hPa 0,0 l/m 9,5 km/h (2 Bft) S 169 0 min 0,000 mm 0,0 UV-I 0 W/m 13,1 C 12,5 C 11,3 km/h (2 Bft) 91,67 %
13.06.2016 23:11 14,2 C 93 % 1001,9 hPa 0,0 l/m 6,5 km/h (2 Bft) SW 227 0 min 0,000 mm 0,0 UV-I 0 W/m 13,1 C 14,2 C 9,7 km/h (2 Bft) 100,00 %
13.06.2016 23:12 14,2 C 93 % 1001,9 hPa 0,0 l/m 7,7 km/h (2 Bft) SW 221 0 min 0,000 mm 0,0 UV-I 0 W/m 13,1 C 13,4 C 12,9 km/h (3 Bft) 91,67 %
13.06.2016 23:13 14,2 C 93 % 1001,9 hPa 0,0 l/m 8,1 km/h (2 Bft) SW 218 0 min 0,000 mm 0,0 UV-I 0 W/m 13,1 C 13,2 C 11,3 km/h (2 Bft) 97,56 %
13.06.2016 23:14 14,2 C 93 % 1001,9 hPa 0,0 l/m 8,8 km/h (2 Bft) S 186 0 min 0,000 mm 0,0 UV-I 0 W/m 13,1 C 12,8 C 14,5 km/h (3 Bft) 100,00 %
13.06.2016 23:15 14,2 C 93 % 1001,9 hPa 0,0 l/m 9,1 km/h (2 Bft) S-SO 166 0 min 0,000 mm 0,0 UV-I 0 W/m 13,1 C 12,7 C 12,9 km/h (3 Bft) 100,00 %
13.06.2016 23:16 14,2 C 93 % 1001,9 hPa 0,0 l/m 7,9 km/h (2 Bft) S 178 0 min 0,000 mm 0,0 UV-I 0 W/m 13,1 C 13,3 C 11,3 km/h (2 Bft) 95,83 %
13.06.2016 23:17 14,2 C 93 % 1001,9 hPa 0,0 l/m 8,9 km/h (2 Bft) S-SW 194 0 min 0,000 mm 0,0 UV-I 0 W/m 13,1 C 12,8 C 11,3 km/h (2 Bft) 95,65 %
13.06.2016 23:18 14,1 C 93 % 1001,9 hPa 0,0 l/m 9,5 km/h (2 Bft) S-SO 167 0 min 0,000 mm 0,0 UV-I 0 W/m 13,0 C 12,4 C 14,5 km/h (3 Bft) 100,00 %
13.06.2016 23:19 14,1 C 93 % 1001,9 hPa 0,0 l/m 8,1 km/h (2 Bft) S 175 0 min 0,000 mm 0,0 UV-I 0 W/m 13,0 C 13,1 C 11,3 km/h (2 Bft) 100,00 %
13.06.2016 23:20 14,1 C 93 % 1001,9 hPa 0,0 l/m 8,5 km/h (2 Bft) S-SO 166 0 min 0,000 mm 0,0 UV-I 0 W/m 13,0 C 12,9 C 11,3 km/h (2 Bft) 97,37 %
13.06.2016 23:21 14,1 C 93 % 1001,8 hPa 0,0 l/m 6,2 km/h (2 Bft) S 172 0 min 0,000 mm 0,0 UV-I 0 W/m 13,0 C 14,1 C 9,7 km/h (2 Bft) 92,31 %
13.06.2016 23:22 14,1 C 93 % 1001,9 hPa 0,0 l/m 4,7 km/h (1 Bft) S-SW 207 0 min 0,000 mm 0,0 UV-I 0 W/m 13,0 C 14,1 C 6,4 km/h (2 Bft) 100,00 %
13.06.2016 23:23 14,1 C 93 % 1001,9 hPa 0,0 l/m 5,4 km/h (1 Bft) SW 215 0 min 0,000 mm 0,0 UV-I 0 W/m 13,0 C 14,1 C 8,0 km/h (2 Bft) 96,30 %
13.06.2016 23:24 14,1 C 93 % 1001,8 hPa 0,0 l/m 6,8 km/h (2 Bft) SW 223 0 min 0,000 mm 0,0 UV-I 0 W/m 13,0 C 13,9 C 9,7 km/h (2 Bft) 96,15 %
13.06.2016 23:25 14,1 C 93 % 1001,9 hPa 0,0 l/m 5,4 km/h (1 Bft) SW 228 0 min 0,000 mm 0,0 UV-I 0 W/m 13,0 C 14,1 C 8,0 km/h (2 Bft) 100,00 %
13.06.2016 23:26 14,1 C 93 % 1001,9 hPa 0,0 l/m 5,0 km/h (1 Bft) S 174 0 min 0,000 mm 0,0 UV-I 0 W/m 13,0 C 14,1 C 8,0 km/h (2 Bft) 96,15 %
13.06.2016 23:27 14,1 C 93 % 1001,9 hPa 0,0 l/m 5,5 km/h (1 Bft) SW 217 0 min 0,000 mm 0,0 UV-I 0 W/m 13,0 C 14,1 C 8,0 km/h (2 Bft) 100,00 %
13.06.2016 23:28 14,1 C 93 % 1001,9 hPa 0,0 l/m 4,4 km/h (1 Bft) SW 219 0 min 0,000 mm 0,0 UV-I 0 W/m 13,0 C 14,1 C 6,4 km/h (2 Bft) 90,91 %
13.06.2016 23:29 14,1 C 93 % 1001,9 hPa 0,0 l/m 3,2 km/h (1 Bft) SW 236 0 min 0,000 mm 0,0 UV-I 0 W/m 13,0 C 14,1 C 4,8 km/h (1 Bft) 100,00 %
13.06.2016 23:30 14,1 C 93 % 1001,9 hPa 0,0 l/m 5,2 km/h (1 Bft) S-SW 206 0 min 0,000 mm 0,0 UV-I 0 W/m 13,0 C 14,1 C 8,0 km/h (2 Bft) 95,65 %
13.06.2016 23:31 14,0 C 93 % 1001,9 hPa 0,0 l/m 4,5 km/h (1 Bft) SW 229 0 min 0,000 mm 0,0 UV-I 0 W/m 12,9 C 14,0 C 6,4 km/h (2 Bft) 100,00 %
13.06.2016 23:32 14,0 C 93 % 1001,9 hPa 0,0 l/m 5,3 km/h (1 Bft) SW 230 0 min 0,000 mm 0,0 UV-I 0 W/m 12,9 C 14,0 C 6,4 km/h (2 Bft) 91,30 %
13.06.2016 23:33 14,0 C 93 % 1001,9 hPa 0,0 l/m 3,6 km/h (1 Bft) SW 230 0 min 0,000 mm 0,0 UV-I 0 W/m 12,9 C 14,0 C 4,8 km/h (1 Bft) 91,67 %
13.06.2016 23:34 14,0 C 93 % 1001,9 hPa 0,0 l/m 4,1 km/h (1 Bft) SW 226 0 min 0,000 mm 0,0 UV-I 0 W/m 12,9 C 14,0 C 6,4 km/h (2 Bft) 100,00 %
13.06.2016 23:35 13,9 C 93 % 1001,9 hPa 0,0 l/m 2,7 km/h (1 Bft) SW 226 0 min 0,000 mm 0,0 UV-I 0 W/m 12,8 C 13,9 C 4,8 km/h (1 Bft) 100,00 %
13.06.2016 23:36 13,9 C 93 % 1001,9 hPa 0,0 l/m 3,0 km/h (1 Bft) SW 226 0 min 0,000 mm 0,0 UV-I 0 W/m 12,8 C 13,9 C 4,8 km/h (1 Bft) 100,00 %
13.06.2016 23:37 13,9 C 93 % 1001,9 hPa 0,0 l/m 3,5 km/h (1 Bft) SW 226 0 min 0,000 mm 0,0 UV-I 0 W/m 12,8 C 13,9 C 4,8 km/h (1 Bft) 100,00 %
13.06.2016 23:38 13,9 C 94 % 1001,9 hPa 0,0 l/m 3,1 km/h (1 Bft) SW 226 0 min 0,000 mm 0,0 UV-I 0 W/m 12,9 C 13,9 C 4,8 km/h (1 Bft) 100,00 %
13.06.2016 23:39 13,9 C 94 % 1002,0 hPa 0,0 l/m 3,0 km/h (1 Bft) SW 226 0 min 0,000 mm 0,0 UV-I 0 W/m 12,9 C 13,9 C 4,8 km/h (1 Bft) 100,00 %
13.06.2016 23:40 13,8 C 94 % 1001,9 hPa 0,0 l/m 2,9 km/h (1 Bft) SW 215 0 min 0,000 mm 0,0 UV-I 0 W/m 12,9 C 13,8 C 4,8 km/h (1 Bft) 100,00 %
13.06.2016 23:41 13,8 C 94 % 1002,0 hPa 0,0 l/m 3,3 km/h (1 Bft) S-SW 207 0 min 0,000 mm 0,0 UV-I 0 W/m 12,9 C 13,8 C 4,8 km/h (1 Bft) 95,65 %
13.06.2016 23:42 13,8 C 94 % 1001,9 hPa 0,0 l/m 5,1 km/h (1 Bft) SW 215 0 min 0,000 mm 0,0 UV-I 0 W/m 12,9 C 13,8 C 6,4 km/h (2 Bft) 96,88 %
13.06.2016 23:43 13,8 C 94 % 1002,0 hPa 0,0 l/m 4,0 km/h (1 Bft) SW 215 0 min 0,000 mm 0,0 UV-I 0 W/m 12,9 C 13,8 C 6,4 km/h (2 Bft) 100,00 %
13.06.2016 23:44 13,8 C 94 % 1001,9 hPa 0,0 l/m 4,3 km/h (1 Bft) S-SW 205 0 min 0,000 mm 0,0 UV-I 0 W/m 12,9 C 13,8 C 6,4 km/h (2 Bft) 100,00 %
13.06.2016 23:45 13,8 C 94 % 1001,9 hPa 0,0 l/m 4,4 km/h (1 Bft) S 191 0 min 0,000 mm 0,0 UV-I 0 W/m 12,9 C 13,8 C 6,4 km/h (2 Bft) 100,00 %
13.06.2016 23:46 13,8 C 94 % 1001,9 hPa 0,0 l/m 4,5 km/h (1 Bft) S-SW 206 0 min 0,000 mm 0,0 UV-I 0 W/m 12,9 C 13,8 C 6,4 km/h (2 Bft) 100,00 %
13.06.2016 23:47 13,8 C 94 % 1001,9 hPa 0,0 l/m 4,6 km/h (1 Bft) S-SW 208 0 min 0,000 mm 0,0 UV-I 0 W/m 12,9 C 13,8 C 4,8 km/h (1 Bft) 100,00 %
13.06.2016 23:48 13,8 C 94 % 1001,9 hPa 0,0 l/m 3,7 km/h (1 Bft) S-SW 208 0 min 0,000 mm 0,0 UV-I 0 W/m 12,9 C 13,8 C 4,8 km/h (1 Bft) 100,00 %
13.06.2016 23:49 13,8 C 94 % 1001,9 hPa 0,0 l/m 4,1 km/h (1 Bft) S-SW 205 0 min 0,000 mm 0,0 UV-I 0 W/m 12,9 C 13,8 C 6,4 km/h (2 Bft) 100,00 %
13.06.2016 23:50 13,8 C 94 % 1001,9 hPa 0,0 l/m 3,8 km/h (1 Bft) S-SW 205 0 min 0,000 mm 0,0 UV-I 0 W/m 12,9 C 13,8 C 4,8 km/h (1 Bft) 100,00 %
13.06.2016 23:51 13,8 C 94 % 1001,9 hPa 0,0 l/m 4,2 km/h (1 Bft) S-SW 198 0 min 0,000 mm 0,0 UV-I 0 W/m 12,9 C 13,8 C 4,8 km/h (1 Bft) 100,00 %
13.06.2016 23:52 13,8 C 94 % 1001,9 hPa 0,0 l/m 4,2 km/h (1 Bft) S-SW 197 0 min 0,000 mm 0,0 UV-I 0 W/m 12,9 C 13,8 C 6,4 km/h (2 Bft) 95,83 %
13.06.2016 23:53 13,8 C 94 % 1002,0 hPa 0,0 l/m 3,4 km/h (1 Bft) S-SW 198 0 min 0,000 mm 0,0 UV-I 0 W/m 12,9 C 13,8 C 4,8 km/h (1 Bft) 95,65 %
13.06.2016 23:54 13,8 C 94 % 1002,0 hPa 0,0 l/m 4,0 km/h (1 Bft) S 185 0 min 0,000 mm 0,0 UV-I 0 W/m 12,9 C 13,8 C 6,4 km/h (2 Bft) 95,83 %
13.06.2016 23:55 13,8 C 94 % 1002,0 hPa 0,0 l/m 4,2 km/h (1 Bft) S-SW 194 0 min 0,000 mm 0,0 UV-I 0 W/m 12,9 C 13,8 C 4,8 km/h (1 Bft) 100,00 %
13.06.2016 23:56 13,8 C 94 % 1002,0 hPa 0,0 l/m 4,7 km/h (1 Bft) S-SW 196 0 min 0,000 mm 0,0 UV-I 0 W/m 12,9 C 13,8 C 6,4 km/h (2 Bft) 100,00 %
13.06.2016 23:57 13,8 C 94 % 1001,9 hPa 0,0 l/m 3,3 km/h (1 Bft) S-SW 194 0 min 0,000 mm 0,0 UV-I 0 W/m 12,9 C 13,8 C 4,8 km/h (1 Bft) 100,00 %
13.06.2016 23:58 13,8 C 94 % 1001,9 hPa 0,0 l/m 3,7 km/h (1 Bft) S 184 0 min 0,000 mm 0,0 UV-I 0 W/m 12,9 C 13,8 C 6,4 km/h (2 Bft) 100,00 %
13.06.2016 23:59 13,8 C 94 % 1001,9 hPa 0,0 l/m 4,2 km/h (1 Bft) S-SW 205 0 min 0,000 mm 0,0 UV-I 0 W/m 12,9 C 13,8 C 4,8 km/h (1 Bft) 100,00 %
_ Min-Zeit 23:40 13:07 17:21 - 13:34 - - - - - - 03:57 06:15 13:33 13:16
Minimum _ 13,8 C 73 % 1000,5 hPa - 0,2 km/h (0 Bft) - - - - - - 12,5 C 9,9 C 1,6 km/h (1 Bft) 78,26 %
_ Max-Zeit 15:43 11:35 00:00 18:07 10:51 - - 17:20 13:00 12:29 12:39 15:43 15:43 10:51 00:00
Maximum _ 19,2 C 95 % 1006,7 hPa 1,6 l/m 22,0 km/h
S-SW (4 Bft)
- - 5 min 0,406 mm 6,7 UV-I 1051 W/m 16,0 C 19,2 C 30,6 km/h
S (5 Bft)
100,00 %
Durchschnitt _ 15,8 C 88 % 1003,5 hPa #12,8 l/m 9,1 km/h (2 Bft) SW - #2:48 h #2,388 mm 2,0 UV-I 240 W/m 13,8 C 14,3 C 13,3 km/h (3 Bft) 98,50 %